[[{"header":{"parameterUnit":"m.s-1","parameterCategory":1,"la1":31.0,"la2":29.5877,"lo1":-88.7671,"lo2":-86.6584,"dy":0.0162,"dx":0.0185,"nx":115,"ny":88,"refTime":"2023-06-08T18:00:00:Z","depth":0,"parameterNumber":2,"parameterNumberName":"U-component_of_WINDS"},"data":[0.0,0.0,0.0,0.0,0.0,0.0,0.0,0.0,0.0,0.0,0.0,0.0,0.0,0.0,0.0,0.0,0.0,0.0,0.0,0.0,0.0,0.0,0.0,0.0,0.0,0.0,0.0,0.0,0.0,0.0,0.0,0.0,0.0,0.0,0.0,0.0,0.0,0.0,0.0,0.0,0.0,0.0,0.0,0.0,0.0,0.0,0.0,0.0,0.0,0.0,0.0,0.0,0.0,0.0,0.0,0.0,0.0,0.0,0.0,0.0,0.0,0.0,0.0,0.0,0.0,0.0,0.0,0.0,0.0,0.0,0.0,0.0,0.0,0.0,0.0,0.0,0.0,0.0,0.0,0.0,0.0,0.0,0.0,0.0,0.0,0.0,0.0,0.0,0.0,0.0,0.0,0.0,0.0,0.0,0.0,0.0,0.0,0.0,0.0,0.0,0.0,0.0,0.0,0.0,0.0,0.0,0.0,0.0,0.0,0.0,0.0,0.0,0.0,0.0,0.0,0.0,0.0,0.0,0.0,0.0,0.0,0.0,0.0,0.0,0.0,0.0,0.0,0.0,0.0,0.0,0.0,0.0,0.0,0.0,0.0,0.0,0.0,0.0,0.0,0.0,0.0,0.0,0.0,0.0,0.0,0.0,0.0,0.0,0.0,0.0,0.0,0.0,0.0,0.0,0.0,0.0,0.0,0.0,0.0,0.0,0.0,0.0,0.0,0.0,0.0,0.0,0.0,0.0,0.0,0.0,0.0,0.0,0.0,0.0,0.0,0.0,0.0,0.0,0.0,0.0,0.0,0.0,0.0,0.0,0.0,0.0,0.0,0.0,0.0,0.0,0.0,0.0,0.0,0.0,0.0,0.0,0.0,0.0,0.0,0.0,0.0,0.0,0.0,0.0,0.0,0.0,0.0,0.0,0.0,0.0,0.0,0.0,0.0,0.0,0.0,0.0,0.0,0.0,0.0,0.0,0.0,0.0,0.0,0.0,0.0,0.0,0.0,0.0,0.0,0.0,0.0,0.0,0.0,0.0,0.0,0.0,0.0,0.0,0.0,0.0,0.0,0.0,0.0,0.0,0.0,0.0,0.0,0.0,0.0,0.0,0.0,0.0,0.0,0.0,0.0,0.0,0.0,0.0,0.0,0.0,0.0,0.0,0.0,0.0,0.0,0.0,0.0,0.0,0.0,0.0,0.0,0.0,0.0,0.0,0.0,0.0,0.0,0.0,0.0,0.0,0.0,0.0,0.0,0.0,0.0,0.0,0.0,0.0,0.0,0.0,0.0,0.0,0.0,0.0,0.0,0.0,0.0,0.0,0.0,0.0,0.0,0.0,0.0,0.0,0.0,0.0,0.0,0.0,0.0,0.0,0.0,0.0,0.0,0.0,0.0,0.0,0.0,0.0,0.0,0.0,0.0,0.0,0.0,0.0,0.0,0.0,0.0,0.0,0.0,0.0,0.0,0.0,0.0,0.0,0.0,0.0,0.0,0.0,0.0,0.0,0.0,0.0,0.0,0.0,0.0,0.0,0.0,0.0,0.0,0.0,0.0,0.0,0.0,0.0,0.0,0.0,0.0,0.0,0.0,0.0,0.0,0.0,0.0,0.0,0.0,0.0,0.0,0.0,0.0,0.0,0.0,0.0,0.0,0.0,0.0,0.0,0.0,0.0,0.0,0.0,0.0,0.0,0.0,0.0,0.0,0.0,0.0,0.0,0.0,0.0,0.0,0.0,0.0,0.0,0.0,0.0,0.0,0.0,0.0,0.0,0.0,0.0,0.0,0.0,0.0,0.0,0.0,0.0,0.0,0.0,0.0,0.0,0.0,0.0,0.0,0.0,0.0,0.0,0.0,0.0,0.0,0.0,0.0,0.0,0.0,0.0,0.0,0.0,0.0,0.0,0.0,0.0,0.0,0.0,0.0,0.0,0.0,0.0,0.0,0.0,0.0,0.0,0.0,0.0,0.0,0.0,0.0,0.0,0.0,0.0,0.0,0.0,0.0,0.0,0.0,0.0,0.0,0.0,0.0,0.0,0.0,0.0,0.0,0.0,0.0,0.0,0.0,0.0,0.0,0.0,0.0,0.0,0.0,0.0,0.0,0.0,0.0,0.0,0.0,0.0,0.0,0.0,0.0,0.0,0.0,0.0,0.0,0.0,0.0,0.0,0.0,0.0,0.0,0.0,0.0,0.0,0.0,0.0,0.0,0.0,0.0,0.0,0.0,0.0,0.0,0.0,0.0,0.0,0.0,0.0,0.0,0.0,0.0,0.0,0.0,0.0,0.0,0.0,0.0,0.0,0.0,0.0,0.0,0.0,0.0,0.0,0.0,0.0,0.0,0.0,0.0,0.0,0.0,0.0,0.0,0.0,0.0,0.0,0.0,0.0,0.0,0.0,0.0,0.0,0.0,0.0,0.0,0.0,0.0,0.0,0.0,0.0,0.0,0.0,0.0,0.0,0.0,0.0,0.0,0.0,0.0,0.0,0.0,0.0,0.0,0.0,0.0,0.0,0.0,0.0,0.0,0.0,0.0,0.0,0.0,0.0,0.0,0.0,0.0,0.0,0.0,0.0,0.0,0.0,0.0,0.0,0.0,0.0,0.0,0.0,0.0,0.0,0.0,0.0,0.0,0.0,0.0,0.0,0.0,0.0,0.0,0.0,0.0,0.0,0.0,0.0,0.0,0.0,0.0,0.0,0.0,0.0,0.0,0.0,0.0,0.0,0.0,0.0,0.0,0.0,0.0,0.0,0.0,0.0,0.0,0.0,0.0,0.0,0.0,0.0,0.0,0.0,0.0,0.0,0.0,0.0,0.0,0.0,0.0,0.0,0.0,0.0,0.0,0.0,0.0,0.0,0.0,0.0,0.0,0.0,0.0,0.0,0.0,0.0,0.0,0.0,0.0,0.0,0.0,0.0,0.0,0.0,0.0,0.0,0.0,0.0,0.0,0.0,0.0,0.0,0.0,0.0,0.0,0.0,0.0,0.0,0.0,0.0,0.0,0.0,0.0,0.0,0.0,0.0,0.0,0.0,0.0,0.0,0.0,0.0,0.0,0.0,0.0,0.0,0.0,0.0,0.0,0.0,0.0,0.0,0.0,0.0,0.0,0.0,0.0,0.0,0.0,0.0,0.0,0.0,0.0,0.0,0.0,0.0,0.0,0.0,0.0,0.0,0.0,0.0,0.0,0.0,0.0,0.0,0.0,0.0,0.0,0.0,0.0,0.0,0.0,0.0,0.0,0.0,0.0,0.0,0.0,0.0,0.0,0.0,0.0,0.0,0.0,0.0,0.0,0.0,0.0,0.0,0.0,0.0,0.0,0.0,0.0,0.0,0.0,0.0,0.0,0.0,0.0,0.0,0.0,0.0,0.0,0.0,0.0,0.0,0.0,0.0,0.0,0.0,0.0,0.0,0.0,0.0,0.0,0.0,0.0,0.0,0.0,0.0,0.0,0.0,0.0,0.0,0.0,0.0,0.0,0.0,0.0,0.0,0.0,0.0,0.0,0.0,0.0,0.0,0.0,0.0,0.0,0.0,0.0,0.0,0.0,0.0,0.0,0.0,0.0,0.0,0.0,0.0,0.0,0.0,0.0,0.0,0.0,0.0,0.0,0.0,0.0,0.0,0.0,0.0,0.0,0.0,0.0,0.0,0.0,0.0,0.0,0.0,0.0,0.0,0.0,0.0,0.0,0.0,0.0,0.0,0.0,0.0,0.0,0.0,0.0,0.0,0.0,0.0,0.0,0.0,0.0,0.0,0.0,0.0,0.0,0.0,0.0,0.0,0.0,0.0,0.0,0.0,0.0,0.0,0.0,0.0,0.0,0.0,0.0,0.0,0.0,0.0,0.0,0.0,0.0,0.0,0.0,0.0,0.0,0.0,0.0,0.0,0.0,0.0,0.0,0.0,0.0,0.0,0.0,0.0,0.0,0.0,0.0,0.0,0.0,0.0,0.0,0.0,0.0,0.0,0.0,0.0,0.0,0.0,0.0,0.0,0.0,0.0,0.0,0.0,0.0,0.0,0.0,0.0,0.0,0.0,0.0,0.0,0.0,0.0,0.0,0.0,0.0,0.0,0.0,0.0,0.0,0.0,0.0,0.0,0.0,0.0,0.0,0.0,0.0,0.0,0.0,0.0,0.0,0.0,0.0,0.0,0.0,0.0,0.0,0.0,0.0,0.0,0.0,0.0,0.0,0.0,0.0,0.0,0.0,0.0,0.0,0.0,0.0,0.0,0.0,0.0,0.0,0.0,0.0,0.0,0.0,0.0,-2.4273,0.0,0.0,0.0,0.0,0.0,0.0,0.0,0.0,0.0,0.0,0.0,0.0,0.0,0.0,0.0,0.0,0.0,0.0,0.0,0.0,0.0,0.0,0.0,0.0,0.0,0.0,0.0,0.0,0.0,0.0,0.0,0.0,0.0,0.0,0.0,0.0,0.0,0.0,0.0,0.0,0.0,0.0,0.0,0.0,0.0,0.0,0.0,0.0,0.0,0.0,0.0,0.0,0.0,0.0,0.0,0.0,0.0,0.0,0.0,0.0,0.0,0.0,0.0,0.0,0.0,0.0,0.0,0.0,0.0,0.0,0.0,0.0,0.0,0.0,0.0,0.0,0.0,0.0,0.0,0.0,0.0,0.0,0.0,0.0,0.0,0.0,0.0,0.0,0.0,0.0,0.0,0.0,0.0,0.0,0.0,0.0,0.0,0.0,0.0,0.0,0.0,0.0,0.0,0.0,0.0,0.0,0.0,0.0,0.0,0.0,-2.4925,-2.502,-2.5757,-2.5842,-2.5185,0.0,0.0,0.0,0.0,0.0,0.0,0.0,0.0,0.0,0.0,0.0,0.0,0.0,0.0,0.0,0.0,0.0,0.0,0.0,0.0,0.0,0.0,0.0,0.0,0.0,0.0,0.0,0.0,0.0,0.0,0.0,0.0,0.0,0.0,0.0,0.0,0.0,0.0,0.0,0.0,0.0,0.0,0.0,0.0,0.0,0.0,0.0,0.0,0.0,0.0,0.0,0.0,0.0,0.0,0.0,0.0,0.0,0.0,0.0,0.0,0.0,0.0,0.0,0.0,0.0,0.0,0.0,0.0,0.0,0.0,0.0,0.0,0.0,0.0,0.0,0.0,0.0,0.0,0.0,0.0,0.0,0.0,0.0,0.0,0.0,0.0,0.0,0.0,0.0,0.0,0.0,0.0,0.0,0.0,0.0,0.0,0.0,0.0,0.0,0.0,0.0,0.0,0.0,0.0,0.0,0.0,0.0,0.0,0.0,0.0,0.0,0.0,-2.6528,-2.666,-2.604,0.0,0.0,0.0,0.0,0.0,0.0,0.0,0.0,0.0,0.0,0.0,0.0,0.0,0.0,0.0,0.0,0.0,0.0,0.0,0.0,0.0,0.0,0.0,0.0,0.0,0.0,0.0,0.0,0.0,0.0,0.0,0.0,0.0,0.0,0.0,0.0,0.0,0.0,0.0,0.0,0.0,0.0,0.0,0.0,0.0,0.0,0.0,0.0,0.0,0.0,0.0,0.0,0.0,0.0,0.0,0.0,0.0,0.0,0.0,0.0,0.0,0.0,0.0,0.0,0.0,0.0,0.0,0.0,0.0,0.0,0.0,0.0,0.0,0.0,0.0,0.0,0.0,0.0,0.0,0.0,0.0,0.0,0.0,0.0,0.0,0.0,0.0,0.0,0.0,0.0,0.0,0.0,0.0,0.0,0.0,0.0,0.0,0.0,0.0,0.0,0.0,0.0,0.0,0.0,0.0,0.0,0.0,0.0,0.0,0.0,-2.7103,-2.7267,-2.7926,0.0,-2.6755,0.0,0.0,0.0,0.0,0.0,0.0,0.0,0.0,0.0,0.0,0.0,0.0,0.0,0.0,0.0,0.0,0.0,0.0,0.0,0.0,0.0,0.0,0.0,0.0,0.0,0.0,0.0,0.0,0.0,0.0,0.0,0.0,0.0,0.0,0.0,0.0,0.0,0.0,0.0,0.0,0.0,0.0,0.0,0.0,0.0,0.0,0.0,0.0,0.0,0.0,0.0,0.0,0.0,0.0,0.0,0.0,0.0,0.0,0.0,0.0,0.0,0.0,0.0,0.0,0.0,0.0,0.0,0.0,0.0,0.0,0.0,0.0,0.0,0.0,0.0,0.0,0.0,0.0,0.0,0.0,0.0,0.0,0.0,0.0,0.0,0.0,0.0,0.0,0.0,0.0,0.0,0.0,0.0,0.0,0.0,0.0,0.0,0.0,0.0,0.0,0.0,0.0,0.0,0.0,0.0,0.0,0.0,0.0,0.0,0.0,-2.7441,-2.7522,-2.8139,-2.8139,0.0,0.0,0.0,0.0,0.0,0.0,0.0,0.0,0.0,0.0,0.0,0.0,0.0,0.0,0.0,0.0,0.0,0.0,0.0,0.0,0.0,0.0,0.0,0.0,0.0,0.0,0.0,0.0,0.0,0.0,0.0,0.0,0.0,0.0,0.0,0.0,0.0,0.0,0.0,0.0,0.0,0.0,0.0,0.0,0.0,0.0,0.0,0.0,0.0,0.0,0.0,0.0,0.0,0.0,0.0,0.0,0.0,0.0,0.0,0.0,0.0,0.0,0.0,0.0,0.0,0.0,0.0,0.0,0.0,0.0,0.0,0.0,0.0,0.0,0.0,0.0,0.0,0.0,0.0,0.0,0.0,0.0,0.0,0.0,0.0,0.0,0.0,0.0,0.0,0.0,0.0,0.0,0.0,0.0,0.0,0.0,0.0,0.0,0.0,0.0,0.0,0.0,0.0,0.0,0.0,0.0,0.0,0.0,0.0,0.0,-2.7226,-2.7834,-2.7886,-2.8259,-2.833,-2.7957,0.0,0.0,0.0,0.0,0.0,0.0,0.0,0.0,0.0,0.0,0.0,0.0,0.0,0.0,0.0,0.0,0.0,0.0,0.0,0.0,0.0,0.0,0.0,0.0,0.0,0.0,0.0,0.0,0.0,0.0,0.0,0.0,0.0,0.0,0.0,0.0,0.0,0.0,0.0,0.0,0.0,0.0,0.0,0.0,0.0,0.0,0.0,0.0,0.0,0.0,0.0,0.0,0.0,0.0,0.0,0.0,0.0,0.0,0.0,0.0,0.0,0.0,0.0,0.0,0.0,0.0,0.0,0.0,0.0,0.0,0.0,0.0,0.0,0.0,0.0,0.0,0.0,0.0,0.0,0.0,0.0,0.0,0.0,0.0,0.0,0.0,0.0,0.0,0.0,0.0,0.0,0.0,0.0,0.0,0.0,0.0,0.0,0.0,0.0,0.0,0.0,0.0,0.0,0.0,0.0,0.0,0.0,0.0,-2.7377,-2.8299,-2.8724,-2.8749,-2.8578,-2.851,0.0,0.0,0.0,0.0,0.0,0.0,0.0,0.0,0.0,0.0,0.0,0.0,0.0,0.0,0.0,0.0,0.0,0.0,0.0,0.0,0.0,0.0,0.0,0.0,0.0,0.0,0.0,0.0,0.0,0.0,0.0,0.0,0.0,0.0,0.0,0.0,0.0,0.0,0.0,0.0,0.0,0.0,0.0,0.0,0.0,0.0,0.0,0.0,0.0,0.0,0.0,0.0,0.0,0.0,0.0,0.0,0.0,0.0,0.0,0.0,0.0,0.0,0.0,0.0,0.0,0.0,0.0,0.0,0.0,0.0,0.0,0.0,0.0,0.0,0.0,0.0,0.0,0.0,0.0,0.0,0.0,0.0,0.0,0.0,0.0,0.0,0.0,0.0,0.0,0.0,0.0,0.0,0.0,0.0,0.0,0.0,0.0,0.0,0.0,0.0,0.0,0.0,0.0,0.0,0.0,0.0,0.0,0.0,0.0,-2.8275,-2.9479,-3.0082,-3.0069,-2.9988,-2.9878,0.0,0.0,0.0,0.0,0.0,0.0,0.0,0.0,0.0,0.0,0.0,0.0,0.0,0.0,0.0,0.0,0.0,0.0,0.0,0.0,0.0,0.0,0.0,0.0,0.0,0.0,0.0,0.0,0.0,0.0,0.0,0.0,0.0,0.0,0.0,0.0,0.0,0.0,0.0,0.0,0.0,0.0,0.0,0.0,0.0,0.0,0.0,0.0,0.0,0.0,0.0,0.0,0.0,0.0,0.0,0.0,0.0,0.0,0.0,0.0,0.0,0.0,0.0,0.0,0.0,0.0,0.0,0.0,0.0,0.0,0.0,0.0,0.0,0.0,0.0,0.0,0.0,0.0,0.0,0.0,0.0,0.0,0.0,0.0,0.0,0.0,0.0,0.0,0.0,0.0,0.0,0.0,0.0,0.0,0.0,0.0,0.0,0.0,0.0,0.0,0.0,0.0,0.0,0.0,0.0,0.0,0.0,0.0,0.0,-2.9426,0.0,-3.0811,-3.0906,-3.0811,-3.0741,0.0,0.0,0.0,0.0,0.0,0.0,0.0,0.0,0.0,0.0,0.0,0.0,0.0,0.0,0.0,0.0,0.0,0.0,0.0,0.0,0.0,0.0,0.0,0.0,0.0,0.0,0.0,0.0,0.0,0.0,0.0,0.0,0.0,0.0,0.0,0.0,0.0,0.0,0.0,0.0,0.0,0.0,0.0,0.0,0.0,0.0,0.0,0.0,0.0,0.0,0.0,0.0,0.0,0.0,0.0,0.0,0.0,0.0,0.0,0.0,0.0,0.0,0.0,0.0,0.0,0.0,0.0,0.0,0.0,0.0,0.0,0.0,0.0,0.0,0.0,0.0,0.0,0.0,0.0,0.0,0.0,0.0,0.0,0.0,0.0,0.0,0.0,0.0,0.0,0.0,0.0,0.0,0.0,0.0,0.0,0.0,0.0,0.0,0.0,0.0,0.0,0.0,0.0,0.0,0.0,0.0,0.0,0.0,-2.9515,-3.1017,-3.0931,-3.0993,-3.1121,-3.0968,-3.086,0.0,0.0,0.0,0.0,0.0,0.0,0.0,0.0,0.0,0.0,0.0,0.0,0.0,0.0,0.0,0.0,0.0,0.0,0.0,0.0,0.0,0.0,0.0,0.0,0.0,0.0,0.0,0.0,0.0,0.0,0.0,0.0,0.0,0.0,0.0,0.0,0.0,0.0,0.0,0.0,0.0,0.0,0.0,0.0,0.0,0.0,0.0,0.0,0.0,0.0,0.0,0.0,0.0,0.0,0.0,0.0,0.0,0.0,0.0,0.0,0.0,0.0,0.0,0.0,0.0,0.0,0.0,0.0,0.0,0.0,0.0,0.0,0.0,0.0,0.0,0.0,0.0,0.0,0.0,0.0,0.0,0.0,0.0,0.0,0.0,0.0,0.0,0.0,0.0,0.0,0.0,0.0,0.0,0.0,0.0,0.0,0.0,0.0,0.0,0.0,0.0,0.0,0.0,0.0,0.0,0.0,0.0,0.0,0.0,-3.1851,-3.2184,-3.2342,-3.2214,-3.2116,-3.1945,0.0,0.0,0.0,0.0,0.0,0.0,0.0,0.0,0.0,0.0,0.0,0.0,0.0,0.0,0.0,0.0,0.0,0.0,0.0,0.0,0.0,0.0,0.0,0.0,0.0,0.0,0.0,0.0,0.0,0.0,0.0,0.0,0.0,0.0,0.0,0.0,0.0,0.0,0.0,0.0,0.0,0.0,0.0,0.0,0.0,0.0,0.0,0.0,0.0,0.0,0.0,0.0,0.0,0.0,0.0,0.0,0.0,0.0,0.0,0.0,0.0,0.0,0.0,0.0,0.0,0.0,0.0,0.0,0.0,0.0,0.0,0.0,0.0,0.0,0.0,0.0,0.0,0.0,0.0,0.0,0.0,0.0,0.0,0.0,0.0,0.0,0.0,0.0,0.0,0.0,0.0,0.0,0.0,0.0,0.0,0.0,0.0,0.0,0.0,0.0,0.0,0.0,0.0,0.0,0.0,0.0,0.0,0.0,0.0,-3.2671,-3.2852,-3.2953,-3.3009,-3.3021,-3.2945,-3.2877,0.0,0.0,0.0,0.0,0.0,0.0,0.0,0.0,0.0,0.0,0.0,0.0,0.0,0.0,0.0,0.0,0.0,0.0,0.0,0.0,0.0,0.0,0.0,0.0,0.0,0.0,0.0,0.0,0.0,0.0,0.0,0.0,0.0,0.0,0.0,0.0,0.0,0.0,0.0,0.0,0.0,0.0,0.0,0.0,0.0,0.0,0.0,0.0,0.0,0.0,0.0,0.0,0.0,0.0,0.0,0.0,0.0,0.0,0.0,0.0,0.0,0.0,0.0,0.0,0.0,0.0,0.0,0.0,0.0,0.0,0.0,0.0,0.0,0.0,0.0,0.0,0.0,0.0,0.0,0.0,0.0,0.0,0.0,0.0,0.0,0.0,0.0,0.0,0.0,0.0,0.0,0.0,0.0,0.0,0.0,0.0,0.0,0.0,0.0,0.0,0.0,0.0,0.0,0.0,0.0,0.0,0.0,0.0,-3.3524,-3.3027,-3.3027,-3.3467,-3.3491,-3.3727,0.0,0.0,0.0,0.0,0.0,0.0,0.0,0.0,0.0,0.0,0.0,0.0,0.0,0.0,0.0,0.0,0.0,0.0,0.0,0.0,0.0,0.0,0.0,0.0,0.0,0.0,0.0,0.0,0.0,0.0,0.0,0.0,0.0,0.0,0.0,0.0,0.0,0.0,0.0,0.0,0.0,0.0,0.0,0.0,0.0,0.0,0.0,0.0,0.0,0.0,0.0,0.0,0.0,0.0,0.0,0.0,0.0,0.0,0.0,0.0,0.0,0.0,0.0,0.0,0.0,0.0,0.0,0.0,0.0,0.0,0.0,0.0,0.0,0.0,0.0,0.0,0.0,0.0,0.0,0.0,0.0,0.0,0.0,0.0,0.0,0.0,0.0,0.0,0.0,0.0,0.0,0.0,0.0,0.0,0.0,0.0,0.0,0.0,0.0,0.0,0.0,0.0,0.0,0.0,0.0,0.0,0.0,0.0,0.0,-3.3798,-3.3551,-3.3414,-3.3549,-3.3561,-3.3576,0.0,0.0,0.0,0.0,0.0,0.0,0.0,0.0,0.0,0.0,0.0,0.0,0.0,0.0,0.0,0.0,0.0,0.0,0.0,0.0,0.0,0.0,0.0,0.0,0.0,0.0,0.0,0.0,0.0,0.0,0.0,0.0,0.0,0.0,0.0,0.0,0.0,0.0,0.0,0.0,0.0,0.0,0.0,0.0,0.0,0.0,0.0,0.0,0.0,0.0,0.0,0.0,0.0,0.0,0.0,0.0,0.0,0.0,0.0,0.0,0.0,0.0,0.0,0.0,0.0,0.0,0.0,0.0,0.0,0.0,0.0,0.0,0.0,0.0,0.0,0.0,0.0,0.0,0.0,0.0,0.0,0.0,0.0,0.0,0.0,0.0,0.0,0.0,0.0,0.0,0.0,0.0,0.0,0.0,0.0,0.0,0.0,0.0,0.0,0.0,0.0,0.0,0.0,0.0,0.0,0.0,0.0,0.0,-3.3607,-3.4342,-3.3959,-3.3881,-3.4098,-3.4127,-3.4127,0.0,0.0,0.0,0.0,0.0,0.0,0.0,0.0,0.0,0.0,0.0,0.0,0.0,0.0,0.0,0.0,0.0,0.0,0.0,0.0,0.0,0.0,0.0,0.0,0.0,0.0,0.0,0.0,0.0,0.0,0.0,0.0,0.0,0.0,0.0,0.0,0.0,0.0,0.0,0.0,0.0,0.0,0.0,0.0,0.0,0.0,0.0,0.0,0.0,0.0,0.0,0.0,0.0,0.0,0.0,0.0,0.0,0.0,0.0,0.0,0.0,0.0,0.0,0.0,0.0,0.0,0.0,0.0,0.0,0.0,0.0,0.0,0.0,0.0,0.0,0.0,0.0,0.0,0.0,0.0,0.0,0.0,0.0,0.0,0.0,0.0,0.0,0.0,0.0,0.0,0.0,0.0,0.0,0.0,0.0,0.0,0.0,0.0,0.0,0.0,0.0,0.0,0.0,0.0,0.0,0.0,0.0,0.0,-3.4296,-3.4824,-3.4364,-3.4294,-3.4787,-3.4797,-3.4927,0.0,0.0,0.0,0.0,0.0,0.0,0.0,0.0,0.0,0.0,0.0,0.0,0.0,0.0,0.0,0.0,0.0,0.0,0.0,0.0,0.0,0.0,0.0,0.0,0.0,0.0,0.0,0.0,0.0,0.0,0.0,0.0,0.0,0.0,0.0,0.0,0.0,0.0,0.0,0.0,0.0,0.0,0.0,0.0,0.0,0.0,0.0,0.0,0.0,0.0,0.0,0.0,0.0,0.0,0.0,0.0,0.0,0.0,0.0,0.0,0.0,0.0,0.0,0.0,0.0,0.0,0.0,0.0,0.0,0.0,0.0,0.0,0.0,0.0,0.0,0.0,0.0,0.0,0.0,0.0,0.0,0.0,0.0,0.0,0.0,0.0,0.0,0.0,0.0,0.0,0.0,0.0,0.0,0.0,0.0,0.0,0.0,0.0,0.0,0.0,0.0,0.0,0.0,0.0,0.0,0.0,0.0,0.0,-3.4565,-3.5089,-3.4812,-3.4715,-3.4763,-3.4764,-3.4812,0.0,0.0,0.0,0.0,0.0,0.0,0.0,0.0,0.0,0.0,0.0,0.0,0.0,0.0,0.0,0.0,0.0,0.0,0.0,0.0,0.0,0.0,0.0,0.0,0.0,0.0,0.0,0.0,0.0,0.0,0.0,0.0,0.0,0.0,0.0,0.0,0.0,0.0,0.0,0.0,0.0,0.0,0.0,0.0,0.0,0.0,0.0,0.0,-3.812,0.0,0.0,0.0,0.0,0.0,0.0,0.0,0.0,0.0,0.0,0.0,0.0,0.0,0.0,0.0,0.0,0.0,0.0,0.0,0.0,0.0,0.0,0.0,0.0,0.0,0.0,0.0,0.0,0.0,0.0,0.0,0.0,0.0,0.0,0.0,0.0,0.0,0.0,0.0,0.0,0.0,0.0,0.0,0.0,0.0,0.0,0.0,0.0,0.0,0.0,0.0,0.0,0.0,0.0,0.0,0.0,0.0,0.0,0.0,-3.4895,-3.5163,-3.4932,-3.4775,-3.4775,-3.4775,-3.4775,0.0,0.0,0.0,0.0,0.0,0.0,0.0,0.0,0.0,0.0,0.0,0.0,0.0,0.0,0.0,0.0,0.0,0.0,0.0,0.0,0.0,0.0,0.0,0.0,0.0,0.0,0.0,0.0,0.0,0.0,0.0,0.0,0.0,0.0,0.0,0.0,0.0,0.0,0.0,0.0,0.0,0.0,0.0,0.0,0.0,0.0,0.0,0.0,0.0,0.0,0.0,0.0,0.0,0.0,0.0,0.0,0.0,0.0,0.0,0.0,0.0,0.0,0.0,0.0,0.0,0.0,0.0,0.0,0.0,0.0,0.0,0.0,0.0,0.0,0.0,0.0,0.0,0.0,0.0,0.0,0.0,0.0,0.0,0.0,0.0,0.0,0.0,0.0,0.0,0.0,0.0,0.0,0.0,0.0,0.0,0.0,0.0,0.0,0.0,0.0,0.0,0.0,0.0,0.0,0.0,0.0,0.0,-3.5271,-3.5175,-3.5126,-3.5005,-3.4944,-3.4907,-3.4907,-3.4895,-3.4944,0.0,0.0,0.0,0.0,0.0,0.0,0.0,0.0,0.0,0.0,0.0,0.0,0.0,0.0,0.0,0.0,0.0,0.0,0.0,0.0,0.0,0.0,0.0,0.0,0.0,0.0,0.0,0.0,0.0,0.0,0.0,0.0,0.0,0.0,0.0,0.0,0.0,0.0,-3.521,-3.6743,0.0,0.0,0.0,0.0,0.0,0.0,0.0,0.0,-3.8579,0.0,0.0,0.0,0.0,0.0,0.0,0.0,0.0,0.0,0.0,0.0,0.0,0.0,0.0,0.0,0.0,0.0,0.0,0.0,0.0,0.0,0.0,0.0,0.0,0.0,0.0,0.0,0.0,0.0,0.0,0.0,0.0,0.0,0.0,0.0,0.0,0.0,0.0,0.0,0.0,0.0,0.0,0.0,0.0,0.0,0.0,0.0,0.0,0.0,0.0,0.0,0.0,0.0,0.0,0.0,0.0,-3.458,-3.4981,-3.5126,-3.4884,-3.5256,-3.5485,-3.5485,-3.5485,-3.5485,-3.5461,0.0,0.0,0.0,0.0,0.0,0.0,0.0,0.0,0.0,0.0,0.0,0.0,0.0,0.0,0.0,0.0,0.0,0.0,0.0,0.0,0.0,0.0,0.0,0.0,0.0,0.0,0.0,0.0,0.0,0.0,0.0,0.0,0.0,0.0,0.0,0.0,0.0,0.0,0.0,-3.7619,-3.7892,0.0,0.0,0.0,0.0,0.0,0.0,0.0,0.0,-3.8461,0.0,0.0,0.0,0.0,0.0,0.0,0.0,0.0,0.0,0.0,0.0,0.0,0.0,0.0,0.0,0.0,0.0,0.0,0.0,0.0,0.0,0.0,0.0,0.0,0.0,0.0,0.0,0.0,0.0,0.0,0.0,0.0,0.0,0.0,0.0,0.0,0.0,0.0,0.0,0.0,0.0,0.0,0.0,0.0,0.0,0.0,0.0,0.0,0.0,0.0,0.0,0.0,0.0,0.0,0.0,-3.464,-3.5137,-3.533,-3.5256,-3.5749,-3.6038,-3.6026,-3.6026,-3.6026,0.0,0.0,0.0,0.0,0.0,0.0,0.0,0.0,0.0,0.0,0.0,0.0,0.0,0.0,0.0,0.0,0.0,0.0,0.0,0.0,0.0,0.0,0.0,0.0,0.0,0.0,0.0,0.0,0.0,0.0,0.0,0.0,0.0,0.0,0.0,0.0,0.0,0.0,0.0,0.0,-3.7518,-3.7744,-3.7596,0.0,0.0,0.0,0.0,0.0,0.0,-3.825,-3.8409,0.0,0.0,0.0,0.0,0.0,0.0,0.0,0.0,0.0,0.0,0.0,0.0,0.0,0.0,0.0,0.0,0.0,0.0,0.0,0.0,0.0,0.0,0.0,0.0,0.0,0.0,0.0,0.0,0.0,0.0,0.0,0.0,0.0,0.0,0.0,0.0,0.0,0.0,0.0,0.0,0.0,0.0,0.0,0.0,0.0,0.0,0.0,0.0,0.0,0.0,0.0,0.0,0.0,0.0,0.0,-3.4796,-3.5314,-3.5677,-3.5785,-3.629,-3.6567,-3.6567,-3.6567,-3.6516,0.0,0.0,0.0,0.0,0.0,0.0,0.0,0.0,0.0,0.0,0.0,0.0,0.0,0.0,0.0,0.0,0.0,0.0,0.0,0.0,0.0,0.0,0.0,0.0,0.0,0.0,0.0,0.0,0.0,0.0,0.0,0.0,0.0,0.0,0.0,0.0,0.0,0.0,0.0,0.0,0.0,-3.7596,-3.7702,-3.7892,0.0,0.0,0.0,0.0,-3.7974,-3.8198,0.0,0.0,0.0,0.0,0.0,0.0,0.0,0.0,0.0,0.0,0.0,0.0,0.0,0.0,0.0,0.0,0.0,0.0,0.0,0.0,0.0,0.0,0.0,0.0,0.0,0.0,0.0,0.0,0.0,0.0,0.0,0.0,0.0,0.0,0.0,0.0,0.0,0.0,0.0,0.0,0.0,0.0,0.0,0.0,0.0,0.0,0.0,0.0,0.0,0.0,0.0,0.0,0.0,0.0,0.0,0.0,-3.4799,-3.5332,-3.5845,-3.6302,-3.6831,-3.7108,-3.7108,-3.7096,-3.7016,0.0,0.0,0.0,0.0,0.0,0.0,0.0,0.0,0.0,0.0,0.0,0.0,0.0,0.0,0.0,0.0,0.0,0.0,0.0,0.0,0.0,0.0,0.0,0.0,0.0,0.0,0.0,0.0,0.0,0.0,0.0,0.0,0.0,0.0,0.0,0.0,0.0,0.0,0.0,0.0,0.0,-3.7691,-3.7933,-3.7986,-3.7974,0.0,0.0,-3.7974,-3.7974,-3.8039,0.0,0.0,0.0,0.0,0.0,0.0,0.0,0.0,0.0,0.0,0.0,0.0,0.0,0.0,0.0,0.0,0.0,0.0,0.0,0.0,0.0,0.0,0.0,0.0,0.0,0.0,0.0,0.0,0.0,0.0,0.0,0.0,0.0,0.0,0.0,0.0,0.0,0.0,0.0,0.0,0.0,0.0,0.0,0.0,0.0,0.0,0.0,0.0,0.0,0.0,0.0,0.0,0.0,0.0,0.0,-3.4593,-3.4828,-3.5953,-3.6627,-3.6855,-3.736,-3.7637,-3.7637,-3.7503,-3.7357,0.0,0.0,0.0,0.0,0.0,0.0,0.0,0.0,0.0,0.0,0.0,0.0,0.0,0.0,0.0,0.0,0.0,0.0,0.0,0.0,0.0,0.0,0.0,0.0,0.0,0.0,0.0,0.0,0.0,0.0,0.0,0.0,0.0,0.0,0.0,0.0,0.0,0.0,0.0,0.0,0.0,0.0,-3.7744,-3.788,0.0,0.0,0.0,-3.7974,-3.7974,0.0,0.0,0.0,0.0,0.0,0.0,0.0,0.0,0.0,0.0,0.0,0.0,0.0,0.0,0.0,0.0,0.0,0.0,0.0,0.0,0.0,0.0,0.0,0.0,0.0,0.0,0.0,0.0,0.0,0.0,0.0,0.0,0.0,0.0,0.0,0.0,0.0,0.0,0.0,0.0,0.0,0.0,0.0,0.0,0.0,0.0,0.0,0.0,0.0,0.0,0.0,0.0,0.0,0.0,0.0,0.0,0.0,-3.5216,-3.6538,-3.7252,-3.7397,-3.7781,-3.7974,-3.7974,-3.7785,0.0,0.0,0.0,0.0,0.0,0.0,0.0,0.0,0.0,0.0,0.0,0.0,0.0,0.0,0.0,0.0,0.0,0.0,0.0,0.0,0.0,0.0,0.0,0.0,0.0,0.0,0.0,-3.0508,0.0,0.0,0.0,0.0,0.0,0.0,0.0,0.0,0.0,0.0,0.0,0.0,0.0,0.0,-3.7251,-3.7542,-3.785,-3.7974,0.0,0.0,-3.819,-3.819,-3.831,-3.8346,0.0,0.0,0.0,0.0,0.0,0.0,0.0,0.0,0.0,0.0,0.0,0.0,0.0,0.0,0.0,0.0,0.0,0.0,0.0,0.0,0.0,0.0,0.0,0.0,0.0,0.0,0.0,0.0,0.0,0.0,0.0,0.0,0.0,0.0,0.0,0.0,0.0,0.0,0.0,0.0,0.0,0.0,0.0,0.0,0.0,0.0,0.0,0.0,0.0,0.0,0.0,0.0,0.0,0.0,0.0,-3.6302,-3.6908,-3.7445,-3.7902,-3.7962,-3.7974,-3.7974,-3.7986,-3.772,0.0,0.0,0.0,0.0,0.0,0.0,0.0,0.0,0.0,0.0,0.0,0.0,0.0,0.0,0.0,0.0,0.0,0.0,0.0,0.0,0.0,0.0,0.0,0.0,0.0,0.0,0.0,0.0,0.0,0.0,0.0,0.0,0.0,0.0,0.0,0.0,0.0,0.0,0.0,0.0,0.0,-3.7185,-3.7542,-3.7838,-3.7974,0.0,0.0,-3.8767,-3.8755,-3.9176,-3.9333,-3.8839,0.0,0.0,0.0,0.0,0.0,0.0,0.0,0.0,0.0,0.0,0.0,0.0,0.0,0.0,0.0,0.0,0.0,0.0,0.0,0.0,0.0,0.0,0.0,0.0,0.0,0.0,0.0,0.0,0.0,0.0,0.0,0.0,0.0,0.0,0.0,0.0,0.0,0.0,0.0,0.0,0.0,0.0,0.0,0.0,0.0,0.0,0.0,0.0,0.0,0.0,0.0,0.0,0.0,-3.5991,-3.6391,-3.7266,-3.7769,-3.7962,-3.7974,-3.7974,-3.7974,-3.785,-3.7292,0.0,0.0,0.0,0.0,0.0,0.0,0.0,0.0,0.0,0.0,0.0,0.0,0.0,0.0,0.0,0.0,0.0,0.0,0.0,0.0,0.0,0.0,0.0,0.0,0.0,0.0,0.0,0.0,-3.1054,-3.1334,-3.174,0.0,0.0,0.0,0.0,0.0,0.0,0.0,0.0,0.0,0.0,-3.7411,-3.8198,-3.8449,0.0,0.0,-3.9176,-3.9308,-3.9308,-3.9477,-3.9537,-3.9345,-3.9296,0.0,0.0,0.0,0.0,0.0,0.0,0.0,0.0,0.0,0.0,0.0,0.0,0.0,0.0,0.0,0.0,0.0,0.0,0.0,0.0,0.0,0.0,0.0,0.0,0.0,0.0,0.0,0.0,0.0,0.0,0.0,0.0,0.0,0.0,0.0,0.0,0.0,0.0,0.0,0.0,0.0,0.0,0.0,0.0,0.0,0.0,0.0,0.0,0.0,0.0,0.0,0.0,-3.642,-3.6455,-3.7488,-3.7814,-3.7441,-3.7495,-3.7269,-3.6923,-3.6731,-3.62,0.0,0.0,0.0,0.0,0.0,0.0,0.0,0.0,0.0,0.0,0.0,0.0,0.0,0.0,0.0,0.0,0.0,0.0,0.0,0.0,0.0,0.0,0.0,0.0,0.0,0.0,0.0,0.0,-3.1276,-3.1672,-3.2258,0.0,0.0,0.0,0.0,0.0,0.0,0.0,0.0,0.0,0.0,-3.7724,-3.843,-3.8718,-3.9012,-3.9272,-3.9463,-3.9559,-3.9559,-3.969,-3.975,-3.9682,0.0,0.0,0.0,0.0,0.0,0.0,0.0,0.0,0.0,0.0,0.0,0.0,0.0,0.0,0.0,0.0,0.0,0.0,0.0,0.0,0.0,0.0,0.0,0.0,0.0,0.0,0.0,0.0,0.0,0.0,-2.745,0.0,0.0,0.0,0.0,0.0,0.0,0.0,0.0,0.0,0.0,0.0,0.0,0.0,0.0,0.0,0.0,0.0,0.0,0.0,0.0,0.0,0.0,-3.6478,-3.6677,-3.7483,-3.7376,-3.6286,-3.6243,-3.5685,-3.4614,-3.4492,-3.4336,-3.4067,0.0,0.0,0.0,0.0,0.0,0.0,0.0,0.0,0.0,0.0,0.0,0.0,0.0,0.0,0.0,0.0,0.0,0.0,0.0,0.0,0.0,0.0,0.0,0.0,0.0,0.0,-3.1286,-3.1556,-3.1923,0.0,0.0,0.0,0.0,0.0,0.0,0.0,0.0,0.0,0.0,-3.7986,-3.8247,-3.7986,-3.8619,-3.9018,-3.881,-3.9141,-3.9447,-3.9528,-3.9858,-4.0139,0.0,0.0,0.0,0.0,0.0,0.0,0.0,0.0,0.0,0.0,0.0,0.0,0.0,0.0,0.0,0.0,0.0,0.0,0.0,0.0,0.0,0.0,0.0,0.0,0.0,0.0,0.0,-2.6438,-2.6693,0.0,0.0,0.0,0.0,0.0,0.0,0.0,0.0,0.0,0.0,0.0,-3.1078,-3.1288,0.0,0.0,0.0,0.0,0.0,0.0,0.0,0.0,0.0,0.0,0.0,0.0,-3.5768,-3.5806,-3.5674,-3.5388,-3.5013,-3.5002,-3.4836,-3.438,-3.438,-3.4011,-3.3187,0.0,0.0,0.0,0.0,0.0,0.0,0.0,0.0,0.0,0.0,0.0,0.0,0.0,0.0,0.0,0.0,0.0,0.0,0.0,0.0,0.0,0.0,0.0,0.0,0.0,-3.123,0.0,0.0,0.0,0.0,0.0,0.0,0.0,0.0,0.0,0.0,0.0,-3.6353,-3.6555,-3.7534,-3.8454,-3.8918,-3.9163,-3.9512,0.0,0.0,0.0,0.0,0.0,0.0,0.0,0.0,0.0,0.0,0.0,0.0,0.0,0.0,-3.9233,-4.0302,-4.0347,-4.0171,-4.0006,0.0,0.0,0.0,0.0,0.0,0.0,0.0,0.0,0.0,0.0,0.0,0.0,0.0,0.0,-2.6384,0.0,-2.6281,0.0,0.0,0.0,0.0,0.0,0.0,0.0,0.0,-3.0229,-3.0616,-3.0914,-3.1076,-3.1523,0.0,-3.2405,-3.291,0.0,0.0,0.0,0.0,0.0,0.0,0.0,0.0,-3.5091,-3.4758,-3.4678,-3.4417,-3.4033,-3.4126,-3.404,-3.3649,-3.3649,-3.3314,-3.2522,-3.1749,-3.1387,0.0,0.0,0.0,0.0,0.0,0.0,0.0,0.0,0.0,0.0,0.0,0.0,0.0,0.0,0.0,0.0,0.0,0.0,0.0,0.0,0.0,0.0,0.0,-3.1623,0.0,0.0,0.0,0.0,0.0,0.0,0.0,0.0,0.0,-3.514,-3.5634,-3.6038,-3.6234,-3.752,-3.856,-3.8908,0.0,0.0,0.0,0.0,0.0,0.0,0.0,-4.0587,-4.0458,-4.0563,-4.0493,-4.0106,-4.0235,-3.9919,-3.8625,0.0,0.0,-4.0106,-4.0212,-4.0153,-4.0466,-4.0397,-4.0233,-3.9938,-3.9886,-3.9886,0.0,0.0,0.0,0.0,0.0,0.0,0.0,0.0,-2.6868,-2.6846,0.0,-2.7311,0.0,0.0,0.0,0.0,0.0,-2.8398,0.0,0.0,-3.0324,-3.0635,-3.0264,-3.0722,-3.1218,-3.173,-3.1943,-3.2289,-3.2618,-3.2903,0.0,0.0,0.0,0.0,0.0,0.0,-3.4413,-3.3681,-3.4418,-3.4436,-3.332,-3.3664,-3.3305,-3.227,-3.2209,-3.2209,-3.2209,-3.1748,-3.1543,-3.1523,-3.1152,0.0,0.0,0.0,0.0,0.0,0.0,0.0,0.0,0.0,0.0,0.0,0.0,0.0,0.0,0.0,0.0,0.0,0.0,0.0,0.0,-3.1811,0.0,0.0,0.0,0.0,0.0,0.0,0.0,0.0,0.0,0.0,-3.5819,-3.6243,-3.6458,-3.6448,0.0,0.0,0.0,0.0,-4.0106,-4.0128,-4.0077,-4.0249,-4.072,-4.1045,-4.1164,-4.0914,0.0,0.0,-3.9174,-3.8857,-3.8511,-3.7082,-3.7104,-3.7605,-3.8559,-3.8468,-3.8678,-4.02,-3.9626,-3.9183,-4.0083,-4.0514,-4.0559,-2.9784,0.0,0.0,0.0,0.0,-2.7603,-2.7509,-2.7565,-2.7054,-2.6955,-2.7207,-2.7733,0.0,0.0,0.0,0.0,0.0,0.0,-2.9012,-2.9593,-2.9958,-3.0344,-3.0693,-3.082,-3.0995,-3.117,-3.118,-3.1296,-3.1402,-3.1508,-3.2065,-3.3119,0.0,0.0,0.0,0.0,-3.323,-3.3103,-3.2723,-3.2533,-3.2505,-3.2624,-3.2512,-3.2229,-3.2229,-3.2229,-3.2168,-3.2051,-3.1982,-3.1992,-3.1925,0.0,0.0,0.0,0.0,0.0,0.0,0.0,0.0,0.0,0.0,0.0,0.0,0.0,0.0,0.0,0.0,0.0,0.0,0.0,-3.1504,-3.1811,-3.2296,0.0,0.0,0.0,0.0,0.0,0.0,0.0,0.0,0.0,-3.447,-3.5154,-3.5787,0.0,0.0,-3.8397,-3.8687,-3.8737,-3.9165,-4.0376,-4.0132,0.0,-4.0325,-4.0263,-3.9837,-3.8836,-3.9691,-4.038,-3.9878,-3.9954,-3.9394,-3.7149,-3.6782,-3.6971,-3.7285,-3.8313,-3.9054,-3.9249,-3.9532,-4.0045,-4.0555,-4.1401,-4.2062,-3.0172,-3.0016,-2.8684,-2.8107,-2.8116,-2.8093,-2.812,-2.8174,-2.8018,-2.7969,-2.8098,-2.8521,-2.8525,-2.8368,-2.8558,0.0,0.0,0.0,-2.9565,-3.0258,-3.0258,-3.0461,-3.0889,-3.0898,-3.0898,-3.0898,-3.0898,-3.0898,-3.0898,-3.0898,-3.1434,-3.2415,0.0,0.0,-3.2782,-3.2666,-3.2611,-3.2643,-3.2235,-3.2158,-3.2412,-3.2578,-3.2666,-3.2666,-3.2656,-3.2666,-3.2656,-3.25,-3.2422,-3.2422,-3.2317,-3.2229,0.0,0.0,0.0,0.0,0.0,0.0,0.0,0.0,0.0,0.0,0.0,-3.1514,-3.1514,0.0,0.0,0.0,-3.1924,-3.1953,-3.1787,-3.2095,0.0,0.0,0.0,0.0,0.0,0.0,0.0,-3.436,-3.4395,-3.4369,-3.4369,-3.5033,-3.5459,-3.5529,-3.6829,-3.7808,-3.8035,0.0,-3.8523,-3.96,-3.9434,-3.9374,-3.974,-3.9762,-3.9379,-3.8507,-3.8996,-3.9312,-3.8875,-3.9001,-3.8352,-3.6529,-3.5905,-3.5966,-3.6158,-3.7132,-3.8081,-3.8488,-3.878,-3.9144,-3.9725,-4.0548,-4.1179,-3.0821,-3.035,-2.8828,-2.8,-2.7875,-2.8744,-2.8947,-2.8639,-2.9293,-2.9402,-2.9178,-2.9497,-2.9358,-2.8889,-2.888,0.0,-2.9872,-2.9882,-3.0258,-3.0898,-3.0898,-3.0898,-3.0898,-3.0898,-3.0898,-3.0898,-3.0918,-3.0937,-3.0957,-3.0986,-3.1191,-3.1543,-3.1759,-3.1749,-3.1612,-3.2137,-3.2356,-3.2278,-3.2598,-3.2803,-3.2851,-3.3223,-3.3418,-3.3408,-3.3418,-3.3408,-3.3398,-3.3057,-3.2842,-3.2842,-3.248,-3.2275,-3.2275,0.0,0.0,0.0,0.0,0.0,0.0,0.0,0.0,0.0,0.0,0.0,0.0,0.0,0.0,0.0,-3.2539,0.0,-3.2256,-3.2568,0.0,0.0,0.0,-3.3994,-3.4348,-3.4348,-3.4358,-3.4398,0.0,0.0,-3.5083,-3.539,-3.5446,-3.4744,-3.6098,-3.7061,-3.6825,-3.7487,-3.8082,-3.8465,-3.8399,-3.8548,-3.8997,-3.9137,-3.9194,-3.9088,-3.8901,-3.823,-3.7283,-3.7016,-3.635,-3.5172,-3.4805,-3.5007,-3.5371,-3.563,-3.609,-3.8018,-3.7625,-3.7231,-3.8409,-3.8873,-3.9245,-3.0377,-2.944,-2.9027,-2.8969,-2.9176,-2.9384,-2.9437,-2.9378,-2.9531,-2.957,-2.9478,-2.9902,-3.0187,-3.0345,-3.0345,-3.0461,-3.0616,-3.0674,-3.0723,-3.0889,-3.0898,-3.0898,-3.0898,-3.0898,-3.0898,-3.0918,-3.1211,-3.1367,-3.1387,-3.1699,-3.1914,-3.2072,-3.2085,-3.2095,-3.2072,-3.2354,-3.2561,-3.2646,-3.2744,-3.2949,-3.3252,-3.3369,-3.3418,-3.3418,-3.3418,-3.3418,-3.3418,-3.332,-3.3271,-3.3262,-3.3174,-3.3125,-3.3125,-3.3125,0.0,0.0,0.0,0.0,0.0,0.0,0.0,0.0,0.0,-3.25,-3.25,0.0,-3.2529,0.0,-3.2451,-3.2402,-3.2627,-3.2734,0.0,0.0,-3.3485,-3.3681,-3.4123,-3.4162,-3.43,-3.4615,-3.4743,-3.4811,-3.4802,-3.5205,-3.5395,-3.523,-3.5986,-3.6759,-3.7171,-3.6988,-3.7279,-3.8232,-3.8253,-3.826,-3.8287,-3.7518,-3.7287,-3.8228,-3.829,-3.8107,-3.7777,-3.7788,-3.7325,-3.603,-3.5713,-3.5762,-3.584,-3.5869,-3.5955,-3.6566,-3.7202,-3.7843,-3.8162,-3.9001,-3.9811,-3.0475,-2.9571,-2.9571,-2.9801,-3.0146,-2.9941,-2.9853,-2.9873,-3.0068,-3.0156,-3.0166,-3.041,-3.0654,-3.0889,-3.0898,-3.0898,-3.0898,-3.0898,-3.0898,-3.0898,-3.0898,-3.0898,-3.0898,-3.1084,-3.1162,-3.1191,-3.1601,-3.1797,-3.1826,-3.2051,-3.2266,-3.2441,-3.2441,-3.2539,-3.2715,-3.2713,-3.2821,-3.3057,-3.3076,-3.3184,-3.3408,-3.3418,-3.3418,-3.3418,-3.3418,-3.3418,-3.3418,-3.3418,-3.3418,-3.3418,-3.3418,-3.3418,-3.3418,-3.3418,-3.3418,0.0,0.0,0.0,0.0,0.0,0.0,0.0,0.0,0.0,0.0,0.0,-3.2871,-3.3066,-3.2861,-3.2822,-3.3047,-3.3252,-3.3457,-3.3691,-3.3887,-3.4092,-3.4326,-3.4355,-3.4443,-3.4668,-3.4883,-3.501,-3.5019,-3.5391,-3.5664,-3.5674,-3.5991,-3.6383,-3.666,-3.6467,-3.6596,-3.7317,-3.726,-3.7203,-3.7136,-3.6549,-3.6287,-3.6934,-3.7193,-3.7136,-3.7193,-3.7203,-3.6866,-3.6152,-3.6025,-3.6025,-3.6025,-3.6025,-3.6025,-3.6084,-3.6606,-3.7136,-3.7193,-3.7786,-3.8308,-3.0979,-3.0283,-3.0283,-3.0518,-3.0859,-3.0449,-3.0283,-3.0322,-3.0713,-3.0898,-3.0898,-3.0898,-3.0898,-3.0898,-3.0898,-3.0898,-3.0898,-3.0898,-3.0898,-3.0898,-3.0898,-3.0918,-3.0986,-3.1348,-3.1553,-3.1621,-3.2041,-3.2317,-3.2246,-3.2305,-3.2519,-3.2861,-3.2871,-3.3057,-3.3389,-3.3057,-3.3057,-3.3408,-3.3418,-3.3418,-3.3418,-3.3418,-3.3418,-3.3418,-3.3418,-3.3418,-3.3418,-3.3418,-3.3418,-3.3418,-3.3418,-3.3418,-3.3418,-3.3418,-3.3418,0.0,-3.3418,0.0,0.0,0.0,0.0,0.0,0.0,0.0,0.0,-3.292,-3.3135,-3.3555,-3.3584,-3.3584,-3.3584,-3.3926,-3.415,-3.416,-3.4473,-3.4726,-3.4785,-3.4785,-3.4814,-3.4863,-3.5225,-3.5469,-3.5488,-3.5801,-3.6025,-3.5996,-3.5986,-3.6044,-3.6006,-3.6016,-3.6093,-3.6025,-3.6025,-3.6152,-3.6161,-3.6093,-3.6016,-3.6025,-3.6093,-3.6025,-3.6093,-3.6093,-3.6025,-3.6025,-3.6025,-3.6025,-3.6025,-3.6025,-3.6025,-3.6025,-3.6093,-3.6084,-3.6084,-3.6152,-3.6025,-3.1748,-3.0762,-3.0752,-3.081,-3.0879,-3.0791,-3.0762,-3.0771,-3.085,-3.0898,-3.0898,-3.0898,-3.0898,-3.0898,-3.0898,-3.0898,-3.0898,-3.0898,-3.0898,-3.0898,-3.0898,-3.1074,-3.1387,-3.1475,-3.1709,-3.206,-3.2471,-3.2676,-3.2685,-3.3008,-3.3223,-3.3301,-3.3301,-3.334,-3.3418,0.0,0.0,0.0,-3.3418,-3.3418,-3.3418,-3.3418,-3.3418,-3.3418,-3.3418,0.0,-3.3418,-3.3418,-3.3418,-3.3418,-3.3418,0.0,0.0,0.0,0.0,0.0,0.0,0.0,0.0,0.0,0.0,0.0,-3.3877,-3.3682,-3.335,-3.3623,-3.4014,-3.4404,-3.4453,-3.4453,-3.4453,-3.4521,-3.458,-3.459,-3.4658,-3.4834,-3.5195,-3.5264,-3.5381,-3.5732,-3.585,-3.5898,-3.5898,-3.5976,-3.6025,-3.6025,-3.6025,-3.6025,-3.6025,-3.6025,-3.6025,-3.6025,-3.6025,-3.6025,-3.6025,-3.6025,-3.6025,-3.6025,-3.6025,-3.6025,-3.6025,-3.6025,-3.6025,-3.6025,-3.6025,-3.6025,-3.6025,-3.6025,-3.6025,-3.6025,-3.6025,-3.6025,-3.6025,-3.6025,-3.6025,-3.145,0.0,-3.0898,-3.0898,0.0,-3.0898,-3.0898,-3.0898,-3.0898,-3.0898,-3.0898,-3.0898,-3.0898,-3.0898,-3.0898,-3.0898,-3.0898,-3.0898,-3.0898,-3.0898,-3.0898,-3.1113,-3.1523,-3.1748,-3.206,-3.248,-3.29,-3.3105,-3.3115,-3.332,-3.3418,-3.3418,-3.3418,-3.3418,-3.3418,-3.3418,-3.3418,-3.3418,-3.3418,-3.3418,-3.3428,-3.3623,-3.374,-3.375,0.0,0.0,0.0,0.0,0.0,0.0,0.0,0.0,0.0,0.0,0.0,-3.4053,-3.4043,-3.4053,-3.4053,-3.4043,-3.415,-3.4365,-3.4385,-3.4287,-3.4072,-3.4258,-3.4473,-3.4668,-3.4697,-3.4697,-3.4707,-3.4902,-3.5039,-3.5049,-3.5225,-3.5459,-3.5654,-3.5703,-3.5781,-3.5967,-3.6025,-3.6025,-3.6025,-3.6025,-3.6025,-3.6025,-3.6025,-3.6025,-3.6025,-3.6025,-3.6025,-3.6025,-3.6025,-3.6025,-3.6025,-3.6025,-3.6025,-3.6025,-3.6025,-3.6025,-3.6025,-3.6025,-3.6025,-3.6025,-3.6025,-3.6025,-3.6025,-3.6025,-3.6025,-3.6025,-3.6025,-3.6025,-3.6025,-3.6025,-3.6025,-3.0898,-3.0898,-3.0898,-3.0898,-3.0898,-3.0898,-3.0898,-3.0898,0.0,0.0,0.0,-3.0898,-3.0898,-3.0898,-3.0898,-3.0898,-3.0898,-3.0898,-3.0898,-3.0898,-3.0898,-3.1152,-3.1641,-3.2002,-3.2432,-3.291,-3.3262,-3.3418,-3.3418,-3.3418,-3.3418,-3.3418,-3.3418,-3.3418,-3.3428,-3.3496,-3.3535,-3.3535,-3.3535,-3.3535,-3.3555,-3.3955,-3.4189,-3.4189,-3.4521,-3.4697,-3.4697,-3.4697,-3.4697,-3.4697,-3.4697,-3.4697,-3.4697,-3.4697,-3.4697,-3.4697,-3.4697,-3.4697,-3.4697,-3.4697,-3.4736,-3.4814,-3.4892,-3.4902,-3.4824,-3.4824,-3.4853,-3.4922,-3.4932,-3.4941,-3.4932,-3.5264,-3.5508,-3.5508,-3.581,-3.6016,-3.6025,-3.6025,-3.6006,-3.6025,-3.6025,-3.6025,-3.6025,-3.6025,-3.6025,-3.6025,-3.6025,-3.6025,-3.6025,-3.6025,-3.6025,-3.6025,-3.6025,-3.6025,-3.6025,-3.6025,-3.6025,-3.6025,-3.6025,-3.6025,-3.6025,-3.6025,-3.6025,-3.6025,-3.6025,-3.6025,-3.6025,-3.6025,-3.6025,-3.6025,-3.6025,-3.6025,-3.6025,-3.6025,-3.6025,-3.0898,-3.0898,-3.0898,-3.0898,-3.0898,-3.0898,-3.0898,-3.0898,-3.0898,-3.0898,-3.0898,-3.0898,-3.0898,-3.0898,-3.0898,-3.0898,-3.0898,-3.0898,-3.0898,0.0,-3.0898,-3.1318,-3.207,-3.2139,-3.2568,-3.3291,-3.3335,-3.3418,-3.3418,-3.3418,-3.3418,-3.3418,-3.3418,-3.3418,-3.3447,-3.3789,-3.3975,-3.3975,-3.3984,-3.3984,-3.3984,-3.4394,-3.4609,-3.4619,-3.4678,-3.4697,-3.4697,-3.4707,-3.4697,-3.4697,-3.4697,-3.4697,-3.4697,-3.4717,-3.4697,-3.4697,-3.4697,-3.4697,-3.4697,-3.4697,-3.4873,-3.5273,-3.5625,-3.5684,-3.5332,-3.5293,-3.5449,-3.5791,-3.5801,-3.583,-3.584,-3.5879,-3.5908,-3.5918,-3.5986,-3.6025,-3.6025,-3.6025,-3.6025,-3.6025,-3.6025,-3.6025,-3.6025,-3.6025,-3.6025,-3.6025,-3.6025,-3.6025,-3.6025,-3.6025,-3.6025,-3.6025,-3.6025,-3.6025,-3.6025,-3.6025,-3.6025,-3.6025,-3.6025,-3.6025,-3.6025,-3.6025,-3.6025,-3.6025,-3.6025,-3.6025,-3.6025,-3.6025,-3.6025,-3.6025,-3.6025,-3.6025,-3.6025,-3.6025,-3.6025,-3.0898,-3.0898,-3.0898,-3.0898,-3.0898,-3.0898,-3.0898,-3.0898,-3.0898,-3.0898,-3.0898,-3.0898,-3.0898,-3.0898,-3.0898,-3.0898,-3.0898,-3.0898,-3.0898,-3.0898,-3.0898,-3.1348,-3.217,-3.2229,-3.2607,-3.3379,-3.3418,-3.3418,-3.3418,-3.3418,-3.3418,-3.3418,-3.3418,-3.3535,-3.3769,-3.3975,-3.4189,-3.4404,-3.4414,-3.4414,-3.4424,-3.4844,-3.5078,-3.5078,-3.5283,-3.542,-3.541,-3.541,-3.542,-3.542,-3.542,-3.542,-3.542,-3.541,-3.542,-3.542,-3.542,-3.541,-3.542,-3.542,-3.5508,-3.5713,-3.5908,-3.5947,-3.5752,-3.5732,-3.582,-3.6006,-3.6025,-3.6025,-3.6025,-3.6025,-3.6025,-3.6025,-3.6025,-3.6025,-3.6025,-3.6025,-3.6025,-3.6025,-3.6025,-3.6025,-3.6025,-3.6025,-3.6025,-3.6025,-3.6025,-3.6025,-3.6025,-3.6025,-3.6025,-3.6025,-3.6025,-3.6025,-3.6025,-3.6025,-3.6025,-3.6025,-3.6025,-3.6025,-3.6025,-3.6025,-3.6025,-3.6025,-3.6025,-3.6025,-3.6025,-3.6025,-3.6025,-3.6025,-3.6025,-3.6025,-3.6025,-3.6025,-3.6025,-3.0898,-3.0898,-3.0898,-3.0898,-3.0898,-3.0898,-3.0898,-3.0898,-3.0898,-3.0898,-3.0898,-3.0898,-3.0898,-3.0898,-3.0898,-3.0898,-3.0898,-3.0898,-3.0898,-3.0898,-3.0898,-3.1348,-3.21,-3.2229,-3.2607,-3.334,-3.3418,-3.3418,-3.3418,-3.3418,-3.3418,-3.3428,-3.3516,-3.374,-3.4072,-3.4267,-3.4531,-3.4844,-3.4951,-3.4961,-3.4873,-3.5303,-3.5537,-3.5557,-3.584,-3.6025,-3.6025,-3.6025,-3.6025,-3.6025,-3.6025,-3.6025,-3.6025,-3.6025,-3.6025,-3.6025,-3.6025,-3.6025,-3.6025,-3.6025,-3.6025,-3.6025,-3.6025,-3.6025,-3.6025,-3.6025,-3.6025,-3.6025,-3.6025,-3.6025,-3.6025,-3.6025,-3.6025,-3.6025,-3.6025,-3.6025,-3.6025,-3.6025,-3.6025,-3.6025,-3.6025,-3.6025,-3.6025,-3.6025,-3.6025,-3.6025,-3.6025,-3.6025,-3.6025,-3.6025,-3.6025,-3.6025,-3.6025,-3.6025,-3.6025,-3.6025,-3.6025,-3.6025,-3.6025,-3.6025,-3.6025,-3.6025,-3.6025,-3.6025,-3.6025,-3.6025,-3.6025,-3.6025,-3.6025,-3.6025,-3.6025,-3.6025,-3.6025,-3.6025,-3.6025,-3.0898,-3.0898,-3.0898,-3.0898,-3.0898,-3.0898,-3.0898,-3.0898,-3.0898,-3.0898,-3.0898,-3.0898,-3.0898,-3.0898,-3.0898,-3.0898,-3.0898,-3.0898,-3.0898,-3.0898,-3.0898,-3.1348,-3.219,-3.2178,-3.2607,-3.333,-3.3418,-3.3418,-3.3418,-3.3418,-3.3418,-3.3467,-3.3809,-3.4023,-3.416,-3.4863,-3.5283,-3.5332,-3.5713,-3.5723,-3.5381,-3.5742,-3.5967,-3.5967,-3.5996,-3.6025,-3.6025,-3.6025,-3.6025,-3.6025,-3.6025,-3.6025,-3.6025,-3.6025,-3.6025,-3.6025,-3.6025,-3.6025,-3.6025,-3.6025,-3.6025,-3.6025,-3.6025,-3.6025,-3.6025,-3.6025,-3.6025,-3.6025,-3.6025,-3.6025,-3.6025,-3.6025,-3.6025,-3.6025,-3.6025,-3.6025,-3.6025,-3.6025,-3.6025,-3.6025,-3.6025,-3.6025,-3.6025,-3.6025,-3.6025,-3.6025,-3.6025,-3.6025,-3.6025,-3.6025,-3.6025,-3.6025,-3.6025,-3.6025,-3.6025,-3.6025,-3.6025,-3.6025,-3.6025,-3.6025,-3.6025,-3.6025,-3.6025,-3.6025,-3.6025,-3.6025,-3.6025,-3.6025,-3.6025,-3.6025,-3.6025,-3.6025,-3.6025,-3.6025,-3.6025,-3.0898,-3.0898,-3.0898,-3.0898,-3.0898,-3.0898,-3.0898,-3.0898,-3.0898,-3.0898,-3.0898,-3.0898,-3.0898,-3.0898,-3.0898,-3.0898,-3.0898,-3.0898,-3.0898,-3.0918,-3.1133,-3.1592,-3.2148,-3.2441,-3.2851,-3.3379,-3.3418,-3.3418,-3.3418,-3.3418,-3.3418,-3.3467,-3.3857,-3.4189,-3.4473,-3.5068,-3.5508,-3.5762,-3.5928,-3.5937,-3.581,-3.5928,-3.6025,-3.6025,-3.6025,-3.6025,-3.6025,-3.6025,-3.6025,-3.6025,-3.6025,-3.6025,-3.6025,-3.6025,-3.6025,-3.6025,-3.6025,-3.6025,-3.6025,-3.6025,-3.6025,-3.6025,-3.6025,-3.6025,-3.6025,-3.6025,-3.6025,-3.6025,-3.6025,-3.6025,-3.6025,-3.6025,-3.6025,-3.6025,-3.6025,-3.6025,-3.6025,-3.6025,-3.6025,-3.6025,-3.6025,-3.6025,-3.6025,-3.6025,-3.6025,-3.6025,-3.6025,-3.6025,-3.6025,-3.6025,-3.6025,-3.6025,-3.6025,-3.6025,-3.6025,-3.6025,-3.6025,-3.6025,-3.6025,-3.6025,-3.6025,-3.6025,-3.6025,-3.6025,-3.6025,-3.6025,-3.6025,-3.6025,-3.6025,-3.6025,-3.6025,-3.6025,-3.6025,-3.6025,-3.6025,-3.0781,-3.0889,-3.0898,-3.0898,-3.0898,-3.0898,-3.0898,-3.0898,-3.0898,-3.0898,-3.0898,-3.0898,-3.0898,-3.0898,-3.0898,-3.0898,-3.0898,-3.0898,-3.0898,-3.0937,-3.1318,-3.1748,-3.2187,-3.2598,-3.3008,-3.3359,-3.3418,-3.3418,-3.3418,-3.3418,-3.3476,-3.3643,-3.4033,-3.4453,-3.4892,-3.5332,-3.5713,-3.5986,-3.6025,-3.6025,-3.6025,-3.6025,-3.6025,-3.6025,-3.6025,-3.6025,-3.6025,-3.6025,-3.6025,-3.6025,-3.6025,-3.6025,-3.6025,-3.6025,-3.6025,-3.6025,-3.6025,-3.6025,-3.6025,-3.6025,-3.6025,-3.6025,-3.6025,-3.6025,-3.6025,-3.6025,-3.6025,-3.6025,-3.6025,-3.6025,-3.6025,-3.6025,-3.6025,-3.6025,-3.6025,-3.6025,-3.6025,-3.6025,-3.6025,-3.6025,-3.6025,-3.6025,-3.6025,-3.6025,-3.6025,-3.6025,-3.6025,-3.6025,-3.6025,-3.6025,-3.6025,-3.6025,-3.6025,-3.6025,-3.6025,-3.6025,-3.6025,-3.6025,-3.6025,-3.6025,-3.6025,-3.6025,-3.6025,-3.6025,-3.6025,-3.6025,-3.6025,-3.6025,-3.6025,-3.6025,-3.6025,-3.6025,-3.6025,-3.6025,-3.6025,-3.0488,-3.0869,-3.0898,-3.0898,-3.0898,-3.0898,-3.0898,-3.0898,-3.0898,-3.0898,-3.0898,-3.0898,-3.0898,-3.0898,-3.0898,-3.0898,-3.0898,-3.0898,-3.0898,-3.0937,-3.1348,-3.1758,-3.2178,-3.2598,-3.3018,-3.3398,-3.3418,-3.3418,-3.3418,-3.3418,-3.3633,-3.4033,-3.4434,-3.4883,-3.5322,-3.5732,-3.5996,-3.6016,-3.6025,-3.6025,-3.6025,-3.6025,-3.6025,-3.6025,-3.6025,-3.6025,-3.6025,-3.6025,-3.6025,-3.6025,-3.6025,-3.6025,-3.6025,-3.6025,-3.6025,-3.6025,-3.6025,-3.6025,-3.6025,-3.6025,-3.6025,-3.6025,-3.6025,-3.6025,-3.6025,-3.6025,-3.6025,-3.6025,-3.6025,-3.6025,-3.6025,-3.6025,-3.6025,-3.6025,-3.6025,-3.6025,-3.6025,-3.6025,-3.6025,-3.6025,-3.6025,-3.6025,-3.6025,-3.6025,-3.6025,-3.6025,-3.6025,-3.6025,-3.6025,-3.6025,-3.6025,-3.6025,-3.6025,-3.6025,-3.6025,-3.6025,-3.6025,-3.6025,-3.6025,-3.6025,-3.6025,-3.6025,-3.6025,-3.6025,-3.6025,-3.6025,-3.6025,-3.6025,-3.6025,-3.6025,-3.6025,-3.6025,-3.6025,-3.6025,-3.6025,-3.0478,-3.0889,-3.0898,-3.0898,-3.0898,-3.0898,-3.0898,-3.0898,-3.0898,-3.0898,-3.0898,-3.0898,-3.0898,-3.0898,-3.0898,-3.0898,-3.0898,-3.0898,-3.0898,-3.0976,-3.1611,-3.2012,-3.2217,-3.2861,-3.3252,-3.3389,-3.3418,-3.3418,-3.3418,-3.3418,-3.3643,-3.4072,-3.4492,-3.4932,-3.5391,-3.582,-3.6025,-3.6025,-3.6025,-3.6025,-3.6025,-3.6025,-3.6025,-3.6025,-3.6025,-3.6025,-3.6025,-3.6025,-3.6025,-3.6025,-3.6025,-3.6025,-3.6025,-3.6025,-3.6025,-3.6025,-3.6025,-3.6025,-3.6025,-3.6025,-3.6025,-3.6025,-3.6025,-3.6025,-3.6025,-3.6025,-3.6025,-3.6025,-3.6025,-3.6025,-3.6025,-3.6025,-3.6025,-3.6025,-3.6025,-3.6025,-3.6025,-3.6025,-3.6025,-3.6025,-3.6025,-3.6025,-3.6025,-3.6025,-3.6025,-3.6025,-3.6025,-3.6025,-3.6025,-3.6025,-3.6025,-3.6025,-3.6025,-3.6025,-3.6025,-3.6025,-3.6025,-3.6025,-3.6025,-3.6025,-3.6025,-3.6025,-3.6025,-3.6025,-3.6025,-3.6025,-3.6025,-3.6025,-3.6025,-3.6025,-3.6025,-3.6025,-3.6025,-3.6025,-3.6025,-3.0371,-3.0664,-3.083,-3.0898,-3.0898,-3.0898,-3.0898,-3.0898,-3.0898,-3.0898,-3.0898,-3.0898,-3.0898,-3.0898,-3.0898,-3.0898,-3.0898,-3.0898,-3.0898,-3.0976,-3.1768,-3.2229,-3.2305,-3.3027,-3.3418,-3.3418,-3.3418,-3.3418,-3.3418,-3.3418,-3.3721,-3.4277,-3.457,-3.5,-3.5547,-3.5889,-3.6025,-3.6025,-3.6025,-3.6025,-3.6025,-3.6025,-3.6025,-3.6025,-3.6025,-3.6025,-3.6025,-3.6025,-3.6025,-3.6025,-3.6025,-3.6025,-3.6025,-3.6025,-3.6025,-3.6025,-3.6025,-3.6025,-3.6025,-3.6025,-3.6025,-3.6025,-3.6025,-3.6025,-3.6025,-3.6025,-3.6025,-3.6025,-3.6025,-3.6025,-3.6025,-3.6025,-3.6025,-3.6025,-3.6025,-3.6025,-3.6025,-3.6025,-3.6025,-3.6025,-3.6025,-3.6025,-3.6025,-3.6025,-3.6025,-3.6025,-3.6025,-3.6025,-3.6025,-3.6025,-3.6025,-3.6025,-3.6025,-3.6025,-3.6025,-3.6025,-3.6025,-3.6025,-3.6025,-3.6025,-3.6025,-3.6025,-3.6025,-3.6025,-3.6025,-3.6025,-3.6025,-3.6025,-3.6025,-3.6025,-3.6025,-3.6025,-3.6025,-3.6025,-3.6025,-3.0185,-3.0293,-3.0703,-3.0898,-3.0898,-3.0898,-3.0898,-3.0898,-3.0898,-3.0898,-3.0898,-3.0898,-3.0898,-3.0898,-3.0898,-3.0898,-3.0898,-3.0898,-3.0898,-3.0976,-3.1768,-3.2168,-3.2226,-3.3027,-3.3418,-3.3418,-3.3418,-3.3418,-3.3418,-3.3437,-3.3828,-3.4541,-3.4668,-3.5117,-3.5986,-3.6006,-3.6025,-3.6025,-3.6025,-3.6025,-3.6025,-3.6025,-3.6025,-3.6025,-3.6025,-3.6025,-3.6025,-3.6025,-3.6025,-3.6025,-3.6025,-3.6025,-3.6025,-3.6025,-3.6025,-3.6025,-3.6025,-3.6025,-3.6025,-3.6025,-3.6025,-3.6025,-3.6025,-3.6025,-3.6025,-3.6025,-3.6025,-3.6025,-3.6025,-3.6025,-3.6025,-3.6025,-3.6025,-3.6025,-3.6025,-3.6025,-3.6025,-3.6025,-3.6025,-3.6025,-3.6025,-3.6025,-3.6025,-3.6025,-3.6025,-3.6025,-3.6025,-3.6025,-3.6025,-3.6025,-3.6025,-3.6025,-3.6025,-3.6025,-3.6025,-3.6025,-3.6025,-3.6025,-3.6025,-3.6025,-3.6025,-3.6025,-3.6025,-3.6025,-3.6025,-3.6025,-3.6025,-3.6025,-3.6025,-3.6025,-3.6025,-3.6025,-3.6025,-3.6025,-3.6025,-2.9932,-3.0244,-3.0693,-3.0898,-3.0898,-3.0898,-3.0898,-3.0898,-3.0898,-3.0898,-3.0898,-3.0898,-3.0898,-3.0898,-3.0898,-3.0898,-3.0898,-3.0898,-3.0898,-3.1045,-3.1768,-3.2229,-3.2324,-3.3027,-3.3418,-3.3418,-3.3418,-3.3418,-3.3418,-3.3418,-3.3857,-3.4541,-3.4697,-3.5156,-3.5967,-3.6025,-3.6025,-3.6025,-3.6025,-3.6025,-3.6025,-3.6025,-3.6025,-3.6025,-3.6025,-3.6025,-3.6025,-3.6025,-3.6025,-3.6025,-3.6025,-3.6025,-3.6025,-3.6025,-3.6025,-3.6025,-3.6025,-3.6025,-3.6025,-3.6025,-3.6025,-3.6025,-3.6025,-3.6025,-3.6025,-3.6025,-3.6025,-3.6025,-3.6025,-3.6025,-3.6025,-3.6025,-3.6025,-3.6025,-3.6025,-3.6025,-3.6025,-3.6025,-3.6025,-3.6025,-3.6025,-3.6025,-3.6025,-3.6025,-3.6025,-3.6025,-3.6025,-3.6025,-3.6025,-3.6025,-3.6025,-3.6025,-3.6025,-3.6025,-3.6025,-3.6025,-3.6025,-3.6025,-3.6025,-3.6025,-3.6025,-3.6025,-3.6025,-3.6025,-3.6025,-3.6025,-3.6025,-3.6025,-3.6025,-3.6025,-3.6025,-3.6025,-3.6025,-3.6025,-3.6025,-2.9726,-3.0019,-3.0635,-3.0898,-3.0898,-3.0898,-3.0898,-3.0898,-3.0898,-3.0898,-3.0898,-3.0898,-3.0898,-3.0898,-3.0898,-3.0898,-3.0898,-3.0898,-3.0898,-3.1025,-3.1777,-3.2219,-3.2275,-3.3027,-3.3418,-3.3418,-3.3418,-3.3418,-3.3418,-3.3447,-3.3857,-3.457,-3.4697,-3.5137,-3.5937,-3.6025,-3.6025,-3.6025,-3.6025,-3.6025,-3.6025,-3.6025,-3.6025,-3.6025,-3.6025,-3.6025,-3.6025,-3.6025,-3.6025,-3.6025,-3.6025,-3.6025,-3.6025,-3.6025,-3.6025,-3.6025,-3.6025,-3.6025,-3.6025,-3.6025,-3.6025,-3.6025,-3.6025,-3.6025,-3.6025,-3.6025,-3.6025,-3.6025,-3.6025,-3.6025,-3.6025,-3.6025,-3.6025,-3.6025,-3.6025,-3.6025,-3.6025,-3.6025,-3.6025,-3.6025,-3.6025,-3.6025,-3.6025,-3.6025,-3.6025,-3.6025,-3.6025,-3.6025,-3.6025,-3.6025,-3.6025,-3.6025,-3.6025,-3.6025,-3.6025,-3.6025,-3.6025,-3.6025,-3.6025,-3.6025,-3.6025,-3.6025,-3.6025,-3.6025,-3.6025,-3.6025,-3.6025,-3.6025,-3.6025,-3.6025,-3.6025,-3.6025,-3.6025,-3.6025,-3.6025,-2.958,-2.9678,-3.0518,-3.0898,-3.0898,-3.0898,-3.0898,-3.0898,-3.0898,-3.0898,-3.0898,-3.0898,-3.0898,-3.0898,-3.0898,-3.0898,-3.0898,-3.0898,-3.0898,-3.1123,-3.1748,-3.2278,-3.248,-3.3115,-3.3398,-3.3418,-3.3418,-3.3418,-3.3418,-3.3418,-3.3838,-3.4531,-3.4687,-3.5107,-3.5791,-3.5986,-3.6025,-3.6025,-3.6025,-3.6025,-3.6025,-3.6025,-3.6025,-3.6025,-3.6025,-3.6025,-3.6025,-3.6025,-3.6025,-3.6025,-3.6025,-3.6025,-3.6025,-3.6025,-3.6025,-3.6025,-3.6025,-3.6025,-3.6025,-3.6025,-3.6025,-3.6025,-3.6025,-3.6025,-3.6025,-3.6025,-3.6025,-3.6025,-3.6025,-3.6025,-3.6025,-3.6025,-3.6025,-3.6025,-3.6025,-3.6025,-3.6025,-3.6025,-3.6025,-3.6025,-3.6025,-3.6025,-3.6025,-3.6025,-3.6025,-3.6025,-3.6025,-3.6025,-3.6025,-3.6025,-3.6025,-3.6025,-3.6025,-3.6025,-3.6025,-3.6025,-3.6025,-3.6025,-3.6025,-3.6025,-3.6025,-3.6025,-3.6025,-3.6025,-3.6025,-3.6025,-3.6025,-3.6025,-3.6025,-3.6025,-3.6025,-3.6025,-3.6025,-3.6025,-3.6025,-2.958,-2.9724,-3.0518,-3.0898,-3.0898,-3.0898,-3.0898,-3.0898,-3.0898,-3.0898,-3.0898,-3.0898,-3.0898,-3.0898,-3.0898,-3.0898,-3.0898,-3.0898,-3.0898,-3.1025,-3.1768,-3.2529,-3.2998,-3.3281,-3.3418,-3.3418,-3.3418,-3.3418,-3.3418,-3.3418,-3.3721,-3.4228,-3.457,-3.4971,-3.5508,-3.5869,-3.6016,-3.6025,-3.6025,-3.6025,-3.6025,-3.6025,-3.6025,-3.6025,-3.6025,-3.6025,-3.6025,-3.6025,-3.6025,-3.6025,-3.6025,-3.6025,-3.6025,-3.6025,-3.6025,-3.6025,-3.6025,-3.6025,-3.6025,-3.6025,-3.6025,-3.6025,-3.6025,-3.6025,-3.6025,-3.6025,-3.6025,-3.6025,-3.6025,-3.6025,-3.6025,-3.6025,-3.6025,-3.6025,-3.6025,-3.6025,-3.6025,-3.6025,-3.6025,-3.6025,-3.6025,-3.6025,-3.6025,-3.6025,-3.6025,-3.6025,-3.6025,-3.6025,-3.6025,-3.6025,-3.6025,-3.6025,-3.6025,-3.6025,-3.6025,-3.6025,-3.6025,-3.6025,-3.6025,-3.6025,-3.6025,-3.6025,-3.6025,-3.6025,-3.6025,-3.6025,-3.6025,-3.6025,-3.6025,-3.6025,-3.6025,-3.6025,-3.6025,-3.6025,-3.6025,-2.958,-2.9648,-3.0518,-3.0898,-3.0898,-3.0898,-3.0898,-3.0898,-3.0898,-3.0898,-3.0898,-3.0898,-3.0898,-3.0898,-3.0898,-3.0898,-3.0898,-3.0898,-3.0898,-3.1035,-3.1777,-3.2598,-3.3232,-3.3418,-3.3418,-3.3418,-3.3418,-3.3418,-3.3418,-3.3418,-3.3662,-3.4092,-3.4492,-3.4941,-3.541,-3.5801,-3.6025,-3.6025,-3.6025,-3.6025,-3.6025,-3.6025,-3.6025,-3.6025,-3.6025,-3.6025,-3.6025,-3.6025,-3.6025,-3.6025,-3.6025,-3.6025,-3.6025,-3.6025,-3.6025,-3.6025,-3.6025,-3.6025,-3.6025,-3.6025,-3.6025,-3.6025,-3.6025,-3.6025,-3.6025,-3.6025,-3.6025,-3.6025,-3.6025,-3.6025,-3.6025,-3.6025,-3.6025,-3.6025,-3.6025,-3.6025,-3.6025,-3.6025,-3.6025,-3.6025,-3.6025,-3.6025,-3.6025,-3.6025,-3.6025,-3.6025,-3.6025,-3.6025,-3.6025,-3.6025,-3.6025,-3.6025,-3.6025,-3.6025,-3.6025,-3.6025,-3.6025,-3.6025,-3.6025,-3.6025,-3.6025,-3.6025,-3.6025,-3.6025,-3.6025,-3.6025,-3.6025,-3.6025,-3.6025,-3.6025,-3.6025,-3.6025,-3.6025,-3.6025,-3.6025,-2.958,-2.9695,-3.0518,-3.0898,-3.0898,-3.0898,-3.0898,-3.0898,-3.0898,-3.0898,-3.0898,-3.0898,-3.0898,-3.0898,-3.0898,-3.0898,-3.0898,-3.0898,-3.0957,-3.1211,-3.1816,-3.2588,-3.3213,-3.3389,-3.3408,-3.3418,-3.3418,-3.3418,-3.3418,-3.3418,-3.3603,-3.3955,-3.4375,-3.4844,-3.5234,-3.5703,-3.5957,-3.6025,-3.6025,-3.6025,-3.6025,-3.6025,-3.6025,-3.6025,-3.6025,-3.6025,-3.6025,-3.6025,-3.6025,-3.6025,-3.6025,-3.6025,-3.6025,-3.6025,-3.6025,-3.6025,-3.6025,-3.6025,-3.6025,-3.6025,-3.6025,-3.6025,-3.6025,-3.6025,-3.6025,-3.6025,-3.6025,-3.6025,-3.6025,-3.6025,-3.6025,-3.6025,-3.6025,-3.6025,-3.6025,-3.6025,-3.6025,-3.6025,-3.6025,-3.6025,-3.6025,-3.6025,-3.6025,-3.6025,-3.6025,-3.6025,-3.6025,-3.6025,-3.6025,-3.6025,-3.6025,-3.6025,-3.6025,-3.6025,-3.6025,-3.6025,-3.6025,-3.6025,-3.6025,-3.6025,-3.6025,-3.6025,-3.6025,-3.6025,-3.6025,-3.6025,-3.6025,-3.6025,-3.6025,-3.6025,-3.6025,-3.6025,-3.6025,-3.6025,-3.6025,-2.958,-2.9648,-3.0518,-3.0898,-3.0898,-3.0898,-3.0898,-3.0898,-3.0898,-3.0898,-3.0898,-3.0898,-3.0898,-3.0898,-3.0898,-3.0898,-3.0898,-3.0908,-3.1055,-3.1445,-3.1904,-3.2432,-3.2949,-3.3252,-3.3408,-3.3418,-3.3418,-3.3418,-3.3418,-3.3428,-3.3457,-3.3613,-3.4053,-3.4424,-3.4853,-3.5342,-3.5713,-3.5947,-3.6016,-3.6025,-3.6025,-3.6025,-3.6025,-3.6025,-3.6025,-3.6025,-3.6025,-3.6025,-3.6025,-3.6025,-3.6025,-3.6025,-3.6025,-3.6025,-3.6025,-3.6025,-3.6025,-3.6025,-3.6025,-3.6025,-3.6025,-3.6025,-3.6025,-3.6025,-3.6025,-3.6025,-3.6025,-3.6025,-3.6025,-3.6025,-3.6025,-3.6025,-3.6025,-3.6025,-3.6025,-3.6025,-3.6025,-3.6025,-3.6025,-3.6025,-3.6025,-3.6025,-3.6025,-3.6025,-3.6025,-3.6025,-3.6025,-3.6025,-3.6025,-3.6025,-3.6025,-3.6025,-3.6025,-3.6025,-3.6025,-3.6025,-3.6025,-3.6025,-3.6025,-3.6025,-3.6025,-3.6025,-3.6025,-3.6025,-3.6025,-3.6025,-3.6025,-3.6025,-3.6025,-3.6025,-3.6025,-3.6025,-3.6025,-3.6025,-3.6025,-3.0052,-2.9724,-3.0518,-3.0898,-3.0898,-3.0898,-3.0898,-3.0898,-3.0898,-3.0898,-3.0898,-3.0898,-3.0898,-3.0898,-3.0898,-3.0898,-3.0898,-3.0898,-3.1113,-3.1523,-3.1963,-3.2393,-3.2812,-3.3184,-3.3418,-3.3418,-3.3418,-3.3418,-3.3418,-3.3418,-3.3418,-3.3457,-3.3857,-3.417,-3.4492,-3.5049,-3.5488,-3.5713,-3.5928,-3.6025,-3.6025,-3.6025,-3.6025,-3.6025,-3.6025,-3.6025,-3.6025,-3.6025,-3.6025,-3.6025,-3.6025,-3.6025,-3.6025,-3.6025,-3.6025,-3.6025,-3.6025,-3.6025,-3.6025,-3.6025,-3.6025,-3.6025,-3.6025,-3.6025,-3.6025,-3.6025,-3.6025,-3.6025,-3.6025,-3.6025,-3.6025,-3.6025,-3.6025,-3.6025,-3.6025,-3.6025,-3.6025,-3.6025,-3.6025,-3.6025,-3.6025,-3.6025,-3.6025,-3.6025,-3.6025,-3.6025,-3.6025,-3.6025,-3.6025,-3.6025,-3.6025,-3.6025,-3.6025,-3.6025,-3.6025,-3.6025,-3.6025,-3.6025,-3.6025,-3.6025,-3.6025,-3.6025,-3.6025,-3.6025,-3.6025,-3.6025,-3.6025,-3.6025,-3.6025,-3.6025,-3.6025,-3.6025,-3.6025,-3.6025,-3.6025,-3.0891,-3.0007,-3.0825,-3.1054,-3.0898,-3.0898,-3.0898,-3.0898,-3.0898,-3.0898,-3.0898,-3.0898,-3.0898,-3.0898,-3.0898,-3.0898,-3.0898,-3.0908,-3.1094,-3.1377,-3.1787,-3.2217,-3.2646,-3.3027,-3.333,-3.3398,-3.3418,-3.3418,-3.3418,-3.3418,-3.3418,-3.3476,-3.375,-3.3994,-3.4238,-3.4824,-3.5322,-3.5469,-3.583,-3.6025,-3.6025,-3.6025,-3.6025,-3.6025,-3.6025,-3.6025,-3.6025,-3.6025,-3.6025,-3.6025,-3.6025,-3.6025,-3.6025,-3.6025,-3.6025,-3.6025,-3.6025,-3.6025,-3.6025,-3.6025,-3.6025,-3.6025,-3.6025,-3.6025,-3.6025,-3.6025,-3.6025,-3.6025,-3.6025,-3.6025,-3.6025,-3.6025,-3.6025,-3.6025,-3.6025,-3.6025,-3.6025,-3.6025,-3.6025,-3.6025,-3.6025,-3.6025,-3.6025,-3.6025,-3.6025,-3.6025,-3.6025,-3.6025,-3.6025,-3.6025,-3.6025,-3.6025,-3.6025,-3.6025,-3.6025,-3.6025,-3.6025,-3.6025,-3.6025,-3.6025,-3.6025,-3.6025,-3.6025,-3.6025,-3.6025,-3.6025,-3.6025,-3.6025,-3.6025,-3.6025,-3.6025,-3.6025,-3.6025,-3.6025,-3.6025,-3.225,-3.1609,-3.2174,-3.1845,-3.1005,-3.0898,-3.0898,-3.0898,-3.0898,-3.0898,-3.0898,-3.0898,-3.0898,-3.0898,-3.0898,-3.0898,-3.0898,-3.0908,-3.0947,-3.1113,-3.1484,-3.1904,-3.2353,-3.2783,-3.3105,-3.334,-3.3418,-3.3418,-3.3418,-3.3418,-3.3418,-3.3437,-3.3516,-3.3701,-3.4072,-3.457,-3.499,-3.5264,-3.5693,-3.5947,-3.5957,-3.6006,-3.6025,-3.6025,-3.6025,-3.6025,-3.6025,-3.6025,-3.6025,-3.6025,-3.6025,-3.6025,-3.6025,-3.6025,-3.6025,-3.6025,-3.6025,-3.6025,-3.6025,-3.6025,-3.6025,-3.6025,-3.6025,-3.6025,-3.6025,-3.6025,-3.6025,-3.6025,-3.6025,-3.6025,-3.6025,-3.6025,-3.6025,-3.6025,-3.6025,-3.6025,-3.6025,-3.6025,-3.6025,-3.6025,-3.6025,-3.6025,-3.6025,-3.6025,-3.6025,-3.6025,-3.6025,-3.6025,-3.6025,-3.6025,-3.6025,-3.6025,-3.6025,-3.6025,-3.6025,-3.6025,-3.6025,-3.6025,-3.6025,-3.6025,-3.6025,-3.6025,-3.6025,-3.6025,-3.6025,-3.6025,-3.6025,-3.6025,-3.6025,-3.6025,-3.6025,-3.6025,-3.6025,-3.6025,-3.6025,-3.3482,-3.2925,-3.2761,-3.2352,-3.1787,-3.1122,-3.0898,-3.0898,-3.0898,-3.0898,-3.0898,-3.0898,-3.0898,-3.0898,-3.0898,-3.0898,-3.0898,-3.0898,-3.0898,-3.0986,-3.1328,-3.1748,-3.2229,-3.2588,-3.3018,-3.331,-3.3418,-3.3418,-3.3418,-3.3418,-3.3418,-3.3418,-3.3418,-3.3535,-3.3779,-3.415,-3.4473,-3.4834,-3.5332,-3.5703,-3.5732,-3.5879,-3.6016,-3.6025,-3.6025,-3.6025,-3.6025,-3.6025,-3.6025,-3.6025,-3.6025,-3.6025,-3.6025,-3.6025,-3.6025,-3.6025,-3.6025,-3.6025,-3.6025,-3.6025,-3.6025,-3.6025,-3.6025,-3.6025,-3.6025,-3.6025,-3.6025,-3.6025,-3.6025,-3.6025,-3.6025,-3.6025,-3.6025,-3.6025,-3.6025,-3.6025,-3.6025,-3.6025,-3.6025,-3.6025,-3.6025,-3.6025,-3.6025,-3.6025,-3.6025,-3.6025,-3.6025,-3.6025,-3.6025,-3.6025,-3.6025,-3.6025,-3.6025,-3.6025,-3.6025,-3.6025,-3.6025,-3.6025,-3.6025,-3.6025,-3.6025,-3.6025,-3.6025,-3.6025,-3.6025,-3.6025,-3.6025,-3.6025,-3.6025,-3.6025,-3.6025,-3.6025,-3.6025,-3.6025,-3.6025,-3.4668,-3.4218,-3.3626,-3.3243,-3.2913,-3.2065,-3.1672,-3.1614,-3.1672,-3.1566,-3.1286,-3.1286,-3.117,-3.0947,-3.0898,-3.0898,-3.0898,-3.0898,-3.0898,-3.0957,-3.1191,-3.1601,-3.2041,-3.2471,-3.2842,-3.3092,-3.3398,-3.3408,-3.3418,-3.3418,-3.3418,-3.3418,-3.3418,-3.3418,-3.3535,-3.3926,-3.4014,-3.4316,-3.4805,-3.5254,-3.5469,-3.5781,-3.6025,-3.6025,-3.6025,-3.6025,-3.6025,-3.6025,-3.6025,-3.6025,-3.6025,-3.6025,-3.6025,-3.6025,-3.6025,-3.6025,-3.6025,-3.6025,-3.6025,-3.6025,-3.6025,-3.6025,-3.6025,-3.6025,-3.6025,-3.6025,-3.6025,-3.6025,-3.6025,-3.6025,-3.6025,-3.6025,-3.6025,-3.6025,-3.6025,-3.6025,-3.6025,-3.6025,-3.6025,-3.6025,-3.6025,-3.6025,-3.6025,-3.6025,-3.6025,-3.6025,-3.6025,-3.6025,-3.6025,-3.6025,-3.6025,-3.6025,-3.6025,-3.6025,-3.6025,-3.6025,-3.6025,-3.6025,-3.6025,-3.6025,-3.6025,-3.6025,-3.6025,-3.6025,-3.6025,-3.6025,-3.6025,-3.6025,-3.6025,-3.6025,-3.6025,-3.6025,-3.6025,-3.6025,-3.6025,-3.6068,-3.5922,-3.5815,-3.5179,-3.4224,-3.3944,-3.3944,-3.3888,-3.3776,-3.3392,-3.2457,-3.2342,-3.1845,-3.1112,-3.0898,-3.0898,-3.0898,-3.0898,-3.0898,-3.0918,-3.1006,-3.126,-3.1631,-3.2031,-3.249,-3.2828,-3.3179,-3.3398,-3.3418,-3.3418,-3.3418,-3.3418,-3.3418,-3.3418,-3.3467,-3.3779,-3.4053,-3.415,-3.4541,-3.498,-3.5391,-3.5781,-3.5957,-3.6025,-3.6025,-3.6025,-3.6025,-3.6025,-3.6025,-3.6025,-3.6025,-3.6025,-3.6025,-3.6025,-3.6025,-3.6025,-3.6025,-3.6025,-3.6025,-3.6025,-3.6025,-3.6025,-3.6025,-3.6025,-3.6025,-3.6025,-3.6025,-3.6025,-3.6025,-3.6025,-3.6025,-3.6025,-3.6025,-3.6025,-3.6025,-3.6025,-3.6025,-3.6025,-3.6025,-3.6025,-3.6025,-3.6025,-3.6025,-3.6025,-3.6025,-3.6025,-3.6025,-3.6025,-3.6025,-3.6025,-3.6025,-3.6025,-3.6025,-3.6025,-3.6025,-3.6025,-3.6025,-3.6025,-3.6025,-3.6025,-3.6025,-3.6025,-3.6025,-3.6025,-3.6025,-3.6025,-3.6025,-3.6025,-3.6025,-3.6025,-3.6025,-3.6025,-3.6025,-3.6025,-3.6016,-3.6975,-3.715,-3.6514,-3.5904,-3.5344,-3.4725,-3.438,-3.438,-3.438,-3.4123,-3.3561,-3.2913,-3.2018,-3.118,-3.0898,-3.0898,-3.0898,-3.0898,-3.0898,-3.0898,-3.0928,-3.1113,-3.1475,-3.1748,-3.2029,-3.2614,-3.2988,-3.3203,-3.331,-3.3418,-3.3418,-3.3418,-3.3418,-3.3418,-3.3418,-3.3603,-3.3682,-3.3809,-3.415,-3.4697,-3.5244,-3.5576,-3.5781,-3.6006,-3.6016,-3.6025,-3.6025,-3.6025,-3.6025,-3.6025,-3.6025,-3.6025,-3.6025,-3.6025,-3.6025,-3.6025,-3.6025,-3.6025,-3.6025,-3.6025,-3.6025,-3.6025,-3.6025,-3.6025,-3.6025,-3.6025,-3.6025,-3.6025,-3.6025,-3.6025,-3.6025,-3.6025,-3.6025,-3.6025,-3.6025,-3.6025,-3.6025,-3.6025,-3.6025,-3.6025,-3.6025,-3.6025,-3.6025,-3.6025,-3.6025,-3.6025,-3.6025,-3.6025,-3.6025,-3.6025,-3.6025,-3.6025,-3.6025,-3.6025,-3.6025,-3.6025,-3.6025,-3.6025,-3.6025,-3.6025,-3.6025,-3.6025,-3.6025,-3.6025,-3.6025,-3.6025,-3.6025,-3.6025,-3.6025,-3.6025,-3.6025,-3.6025,-3.6025,-3.5996,-3.5947,-3.7625,-3.7921,-3.7,-3.6665,-3.6557,-3.5674,-3.5322,-3.5322,-3.5388,-3.5168,-3.4503,-3.3402,-3.218,-3.1392,-3.1122,-3.0898,-3.0898,-3.0898,-3.0898,-3.0898,-3.0928,-3.1064,-3.1289,-3.1484,-3.1854,-3.2546,-3.2773,-3.3047,-3.331,-3.3418,-3.3418,-3.3418,-3.3418,-3.3418,-3.3418,-3.3447,-3.3476,-3.3516,-3.3906,-3.4414,-3.4932,-3.5283,-3.5547,-3.5781,-3.5947,-3.6025,-3.6025,-3.6025,-3.6025,-3.6025,-3.6025,-3.6025,-3.6025,-3.6025,-3.6025,-3.6025,-3.6025,-3.6025,-3.6025,-3.6025,-3.6025,-3.6025,-3.6025,-3.6025,-3.6025,-3.6025,-3.6025,-3.6025,-3.6025,-3.6025,-3.6025,-3.6025,-3.6025,-3.6025,-3.6025,-3.6025,-3.6025,-3.6025,-3.6025,-3.6025,-3.6025,-3.6025,-3.6025,-3.6025,-3.6025,-3.6025,-3.6025,-3.6025,-3.6025,-3.6025,-3.6025,-3.6025,-3.6025,-3.6025,-3.6025,-3.6025,-3.6025,-3.6025,-3.6025,-3.6025,-3.6025,-3.6025,-3.6025,-3.6025,-3.6025,-3.6025,-3.6025,-3.6025,-3.6025,-3.6025,-3.6025,-3.6025,-3.6016,-3.5957,-3.581,-3.795,-3.7986,-3.7868,-3.7814,-3.7826,-3.7802,-3.7696,-3.7418,-3.759,-3.6893,-3.5674,-3.3966,-3.2903,-3.2399,-3.173,-3.1276,-3.1054,-3.0947,-3.1064,-3.1064,-3.0908,-3.0937,-3.1094,-3.1338,-3.162,-3.1947,-3.2409,-3.2939,-3.332,-3.3389,-3.3408,-3.3418,-3.3418,-3.3418,-3.3418,-3.3418,-3.3418,-3.3486,-3.3799,-3.4023,-3.4463,-3.4863,-3.5332,-3.5517,-3.5801,-3.6016,-3.6025,-3.6025,-3.6025,-3.6025,-3.6025,-3.6025,-3.6025,-3.6025,-3.6025,-3.6025,-3.6025,-3.6025,-3.6025,-3.6025,-3.6025,-3.6025,-3.6025,-3.6025,-3.6025,-3.6025,-3.6025,-3.6025,-3.6025,-3.6025,-3.6025,-3.6025,-3.6025,-3.6025,-3.6025,-3.6025,-3.6025,-3.6025,-3.6025,-3.6025,-3.6025,-3.6025,-3.6025,-3.6025,-3.6025,-3.6025,-3.6025,-3.6025,-3.6025,-3.6025,-3.6025,-3.6025,-3.6025,-3.6025,-3.6025,-3.6025,-3.6025,-3.6025,-3.6025,-3.6025,-3.6025,-3.6025,-3.6025,-3.6025,-3.6025,-3.6025,-3.6025,-3.6025,-3.6025,-3.6025,-3.6016,-3.5986,-3.5791,-3.5605,-3.5469,-3.7974,-3.7974,-3.7974,-3.7974,-3.7974,-3.7974,-3.7974,-3.7974,-3.7974,-3.7322,-3.6177,-3.5245,-3.4458,-3.373,-3.3392,-3.3063,-3.2949,-3.2227,-3.2123,-3.1682,-3.1402,-3.1005,-3.0976,-3.1143,-3.1279,-3.1638,-3.2197,-3.2627,-3.2998,-3.3281,-3.3398,-3.3418,-3.3418,-3.3418,-3.3418,-3.3418,-3.3418,-3.3447,-3.3603,-3.3769,-3.4131,-3.4346,-3.4834,-3.541,-3.5488,-3.5781,-3.5967,-3.6016,-3.6025,-3.6025,-3.6025,-3.6025,-3.6025,-3.6025,-3.6025,-3.6025,-3.6025,-3.6025,-3.6025,-3.6025,-3.6025,-3.6025,-3.6025,-3.6025,-3.6025,-3.6025,-3.6025,-3.6025,-3.6025,-3.6025,-3.6025,-3.6025,-3.6025,-3.6025,-3.6025,-3.6025,-3.6025,-3.6025,-3.6025,-3.6025,-3.6025,-3.6025,-3.6025,-3.6025,-3.6025,-3.6025,-3.6025,-3.6025,-3.6025,-3.6025,-3.6025,-3.6025,-3.6025,-3.6025,-3.6025,-3.6025,-3.6025,-3.6025,-3.6025,-3.6025,-3.6025,-3.6025,-3.6025,-3.6025,-3.6025,-3.6025,-3.6025,-3.6025,-3.6025,-3.6025,-3.5967,-3.5898,-3.5635,-3.5273,-3.5039,-3.7974,-3.7974,-3.7974,-3.7974,-3.7974,-3.7974,-3.7974,-3.7974,-3.7974,-3.7601,-3.6719,-3.6406,-3.5795,-3.5002,-3.4447,-3.428,-3.4,-3.3572,-3.3289,-3.2789,-3.218,-3.1566,-3.1334,-3.1191,-3.1172,-3.1533,-3.1963,-3.2473,-3.3096,-3.3305,-3.3379,-3.3418,-3.3418,-3.3418,-3.3418,-3.3418,-3.3418,-3.3418,-3.3447,-3.3535,-3.3857,-3.4062,-3.4267,-3.4932,-3.5078,-3.54,-3.5664,-3.5781,-3.5889,-3.5967,-3.6025,-3.6025,-3.6025,-3.6025,-3.6025,-3.6025,-3.6025,-3.6025,-3.6025,-3.6025,-3.6025,-3.6025,-3.6025,-3.6025,-3.6025,-3.6025,-3.6025,-3.6025,-3.6025,-3.6025,-3.6025,-3.6025,-3.6025,-3.6025,-3.6025,-3.6025,-3.6025,-3.6025,-3.6025,-3.6025,-3.6025,-3.6025,-3.6025,-3.6025,-3.6025,-3.6025,-3.6025,-3.6025,-3.6025,-3.6025,-3.6025,-3.6025,-3.6025,-3.6025,-3.6025,-3.6025,-3.6025,-3.6025,-3.6025,-3.6025,-3.6025,-3.6025,-3.6025,-3.6025,-3.6025,-3.6025,-3.6016,-3.6006,-3.6016,-3.6025,-3.5859,-3.5605,-3.5225,-3.4844,-3.4551,-3.7974,-3.7974,-3.7974,-3.7974,-3.7974,-3.7974,-3.7974,-3.7974,-3.7974,-3.7921,-3.7643,-3.6773,-3.634,-3.5947,-3.5333,-3.5057,-3.488,-3.4558,-3.4391,-3.4112,-3.3233,-3.2742,-3.218,-3.1732,-3.1357,-3.1662,-3.1964,-3.2427,-3.3233,-3.327,-3.331,-3.3418,-3.3418,-3.3418,-3.3418,-3.3418,-3.3418,-3.3418,-3.3418,-3.3467,-3.3564,-3.3828,-3.4072,-3.4336,-3.458,-3.4941,-3.5283,-3.5498,-3.5644,-3.585,-3.5986,-3.6016,-3.6025,-3.6025,-3.6025,-3.6025,-3.6025,-3.6025,-3.6025,-3.6025,-3.6025,-3.6025,-3.6025,-3.6025,-3.6025,-3.6025,-3.6025,-3.6025,-3.6025,-3.6025,-3.6025,-3.6025,-3.6025,-3.6025,-3.6025,-3.6025,-3.6025,-3.6025,-3.6025,-3.6025,-3.6025,-3.6025,-3.6025,-3.6025,-3.6025,-3.6025,-3.6025,-3.6025,-3.6025,-3.6025,-3.6025,-3.6025,-3.6025,-3.6025,-3.6025,-3.6025,-3.6025,-3.6025,-3.6025,-3.6025,-3.6025,-3.6025,-3.6025,-3.6025,-3.6006,-3.5996,-3.5986,-3.5976,-3.5732,-3.5449,-3.5391,-3.5146,-3.4775,-3.4424,-3.4121,-3.7974,-3.7974,-3.7974,-3.7974,-3.7974,-3.7974,-3.7974,-3.7974,-3.7974,-3.7974,-3.7921,-3.7495,-3.7388,-3.7215,-3.6989,-3.6599,-3.6545,-3.5729,-3.5564,-3.5454,-3.4402,-3.3402,-3.2789,-3.2315,-3.1704,-3.1417,-3.1543,-3.2062,-3.2534,-3.2861,-3.3203,-3.334,-3.3418,-3.3418,-3.3418,-3.3418,-3.3418,-3.3418,-3.3418,-3.3428,-3.3437,-3.3594,-3.3789,-3.4043,-3.4209,-3.4492,-3.4912,-3.5127,-3.5391,-3.5615,-3.5762,-3.5967,-3.5986,-3.5996,-3.6025,-3.6025,-3.6025,-3.6025,-3.6025,-3.6025,-3.6025,-3.6025,-3.6025,-3.6025,-3.6025,-3.6025,-3.6025,-3.6025,-3.6025,-3.6025,-3.6025,-3.6025,-3.6025,-3.6025,-3.6025,-3.6025,-3.6025,-3.6025,-3.6025,-3.6025,-3.6025,-3.6025,-3.6025,-3.6025,-3.6025,-3.6025,-3.6025,-3.6025,-3.6025,-3.6025,-3.6025,-3.6025,-3.6025,-3.6025,-3.6025,-3.6025,-3.6025,-3.6025,-3.6025,-3.6025,-3.6025,-3.6025,-3.6025,-3.6025,-3.5996,-3.5957,-3.5703,-3.543,-3.5019,-3.4766,-3.4717,-3.4639,-3.4346,-3.4004,-3.3691,-3.7974,-3.7974,-3.7974,-3.7974,-3.7974,-3.7974,-3.7974,-3.7974,-3.7974,-3.7974,-3.7974,-3.7974,-3.7974,-3.7974,-3.7974,-3.7974,-3.7933,-3.7269,-3.6839,-3.6665,-3.5619,-3.4792,-3.4078,-3.2995,-3.1927,-3.1306,-3.1338,-3.1768,-3.2287,-3.2607,-3.3008,-3.333,-3.3418,-3.3418,-3.3418,-3.3418,-3.3418,-3.3418,-3.3418,-3.3418,-3.3418,-3.3476,-3.3574,-3.375,-3.3896,-3.4043,-3.4434,-3.4756,-3.5029,-3.5225,-3.5508,-3.5781,-3.582,-3.5928,-3.5986,-3.6025,-3.6025,-3.6025,-3.6025,-3.6025,-3.6025,-3.6025,-3.6025,-3.6025,-3.6025,-3.6025,-3.6025,-3.6025,-3.6025,-3.6025,-3.6025,-3.6025,-3.6025,-3.6025,-3.6025,-3.6025,-3.6025,-3.6025,-3.6025,-3.6025,-3.6025,-3.6025,-3.6025,-3.6025,-3.6025,-3.6025,-3.6025,-3.6025,-3.6025,-3.6025,-3.6025,-3.6025,-3.6025,-3.6025,-3.6025,-3.6025,-3.6025,-3.6025,-3.5996,-3.5967,-3.6025,-3.6025,-3.6025,-3.5967,-3.5791,-3.5557,-3.5176,-3.4834,-3.4512,-3.4238,-3.4062,-3.3975,-3.3857,-3.3672,-3.3437,-3.7974,-3.7974,-3.7974,-3.7974,-3.7974,-3.7974,-3.7974,-3.7974,-3.7974,-3.7974,-3.7974,-3.7974,-3.7974,-3.7974,-3.7974,-3.7974,-3.7974,-3.7868,-3.7814,-3.7601,-3.6665,-3.6177,-3.5234,-3.3888,-3.2561,-3.1639,-3.1309,-3.1631,-3.2219,-3.2715,-3.3115,-3.333,-3.3408,-3.3418,-3.3418,-3.3418,-3.3418,-3.3418,-3.3418,-3.3418,-3.3418,-3.3418,-3.3457,-3.3545,-3.3564,-3.3721,-3.3994,-3.4209,-3.4424,-3.4707,-3.5098,-3.5283,-3.5488,-3.5762,-3.5898,-3.5996,-3.5967,-3.6025,-3.6025,-3.6025,-3.6025,-3.6025,-3.6025,-3.6025,-3.6025,-3.6025,-3.6025,-3.6025,-3.6025,-3.6025,-3.6025,-3.6025,-3.6025,-3.6025,-3.6025,-3.6025,-3.6025,-3.6025,-3.6025,-3.6025,-3.6025,-3.6025,-3.6025,-3.6025,-3.6025,-3.6025,-3.6025,-3.6025,-3.6025,-3.6025,-3.6025,-3.6025,-3.6025,-3.6025,-3.6025,-3.5996,-3.6025,-3.6025,-3.5889,-3.584,-3.5928,-3.5859,-3.5654,-3.5508,-3.543,-3.5176,-3.4766,-3.4414,-3.4101,-3.3857,-3.3701,-3.3643,-3.3643,-3.3584,-3.3418,-3.7974,-3.7974,-3.7974,-3.7974,-3.7974,-3.7974,-3.7974,-3.7974,-3.7974,-3.7974,-3.7974,-3.7974,-3.7974,-3.7974,-3.7974,-3.7974,-3.7974,-3.7974,-3.7974,-3.7761,-3.7483,-3.6935,-3.5947,-3.4614,-3.3318,-3.2223,-3.1668,-3.1475,-3.2187,-3.2793,-3.3203,-3.3398,-3.3418,-3.3418,-3.3418,-3.3418,-3.3418,-3.3418,-3.3418,-3.3418,-3.3418,-3.3418,-3.3418,-3.3418,-3.3418,-3.3555,-3.3643,-3.3916,-3.4121,-3.4287,-3.4668,-3.4883,-3.4932,-3.5039,-3.5156,-3.5586,-3.5801,-3.6025,-3.6025,-3.6025,-3.6016,-3.6016,-3.6025,-3.6025,-3.6025,-3.6025,-3.6025,-3.6025,-3.6025,-3.6025,-3.6025,-3.6025,-3.6025,-3.6025,-3.6025,-3.6025,-3.6025,-3.6025,-3.6025,-3.6025,-3.6025,-3.6025,-3.6025,-3.6025,-3.6025,-3.6025,-3.6016,-3.6006,-3.6006,-3.5996,-3.6025,-3.6025,-3.5918,-3.5879,-3.5937,-3.5937,-3.5986,-3.6006,-3.5762,-3.5557,-3.5498,-3.5381,-3.5176,-3.501,-3.4883,-3.4639,-3.4316,-3.4014,-3.376,-3.3643,-3.3496,-3.3457,-3.3418,-3.3418,-3.3418,-3.7974,-3.7974,-3.7974,-3.7974,-3.7974,-3.7974,-3.7974,-3.7974,-3.7974,-3.7974,-3.7974,-3.7974,-3.7974,-3.7974,-3.7974,-3.7974,-3.7974,-3.7974,-3.7974,-3.7974,-3.7974,-3.7601,-3.6611,-3.5212,-3.3858,-3.2773,-3.1838,-3.1329,-3.2092,-3.2725,-3.3193,-3.3418,-3.3418,-3.3418,-3.3418,-3.3418,-3.3418,-3.3418,-3.3418,-3.3418,-3.3418,-3.3418,-3.3418,-3.3418,-3.3418,-3.3418,-3.3437,-3.375,-3.3799,-3.3877,-3.4219,-3.4434,-3.4512,-3.4609,-3.4756,-3.5146,-3.5264,-3.5537,-3.5664,-3.5732,-3.585,-3.5967,-3.6006,-3.6025,-3.6025,-3.6025,-3.6025,-3.6025,-3.6025,-3.6025,-3.6025,-3.6025,-3.6025,-3.6025,-3.6025,-3.6025,-3.6025,-3.6025,-3.6025,-3.6025,-3.6025,-3.6025,-3.6025,-3.6016,-3.6025,-3.6025,-3.5967,-3.5869,-3.5889,-3.5918,-3.5976,-3.6025,-3.584,-3.5703,-3.5742,-3.5674,-3.5547,-3.5439,-3.5264,-3.5098,-3.5049,-3.4961,-3.4805,-3.456,-3.4307,-3.4101,-3.3935,-3.3711,-3.3486,-3.3418,-3.3418,-3.3418,-3.3418,-3.3418,-3.3418,-3.7974,-3.7974,-3.7974,-3.7974,-3.7974,-3.7974,-3.7974,-3.7974,-3.7974,-3.7974,-3.7974,-3.7974,-3.7974,-3.7974,-3.7974,-3.7974,-3.7974,-3.7974,-3.7974,-3.7974,-3.7974,-3.7814,-3.715,-3.5761,-3.4482,-3.3166,-3.2129,-3.1623,-3.1878,-3.2532,-3.3096,-3.3389,-3.3418,-3.3418,-3.3418,-3.3418,-3.3418,-3.3418,-3.3418,-3.3418,-3.3418,-3.3418,-3.3418,-3.3418,-3.3418,-3.3418,-3.3418,-3.3428,-3.3418,-3.3564,-3.374,-3.4004,-3.4131,-3.4385,-3.457,-3.4707,-3.4814,-3.5029,-3.5244,-3.5322,-3.5508,-3.5703,-3.5937,-3.5898,-3.5859,-3.5986,-3.6016,-3.6025,-3.6025,-3.6025,-3.6025,-3.6025,-3.6025,-3.6025,-3.6025,-3.6025,-3.6025,-3.6025,-3.6025,-3.6025,-3.6025,-3.5996,-3.581,-3.5781,-3.5625,-3.581,-3.5742,-3.5586,-3.5586,-3.5625,-3.5664,-3.5742,-3.5547,-3.5312,-3.5273,-3.5176,-3.4932,-3.4795,-3.4717,-3.4668,-3.4639,-3.4551,-3.4443,-3.417,-3.3896,-3.3769,-3.3603,-3.3467,-3.3418,-3.3418,-3.3418,-3.3418,-3.3418,-3.3418,-3.3418,-3.7974,-3.7974,-3.7974,-3.7974,-3.7974,-3.7974,-3.7974,-3.7974,-3.7974,-3.7974,-3.7974,-3.7974,-3.7974,-3.7974,-3.7974,-3.7974,-3.7974,-3.7974,-3.7974,-3.7974,-3.7974,-3.7974,-3.7761,-3.6383,-3.5112,-3.4013,-3.3043,-3.1984,-3.2046,-3.248,-3.2988,-3.3359,-3.3408,-3.3418,-3.3418,-3.3418,-3.3418,-3.3418,-3.3418,-3.3418,-3.3418,-3.3418,-3.3418,-3.3418,-3.3418,-3.3418,-3.3418,-3.3418,-3.3418,-3.3476,-3.3506,-3.3574,-3.3594,-3.3994,-3.4189,-3.4267,-3.4463,-3.4658,-3.4795,-3.4883,-3.5,-3.5146,-3.5322,-3.5478,-3.5635,-3.5869,-3.5996,-3.6006,-3.6025,-3.6025,-3.6025,-3.6025,-3.6025,-3.6025,-3.6025,-3.6025,-3.6025,-3.6006,-3.6006,-3.5996,-3.5996,-3.582,-3.5605,-3.5469,-3.5322,-3.5185,-3.5039,-3.4932,-3.4951,-3.4971,-3.4932,-3.498,-3.499,-3.4853,-3.4814,-3.4687,-3.4463,-3.4385,-3.4346,-3.4297,-3.4238,-3.4092,-3.3945,-3.374,-3.3525,-3.3506,-3.3496,-3.3457,-3.3418,-3.3418,-3.3418,-3.3418,-3.3418,-3.3418,-3.3418,-3.7974,-3.7974,-3.7974,-3.7974,-3.7974,-3.7974,-3.7974,-3.7974,-3.7974,-3.7974,-3.7974,-3.7974,-3.7974,-3.7974,-3.7974,-3.7974,-3.7974,-3.7974,-3.7974,-3.7974,-3.7974,-3.7974,-3.7483,-3.6785,-3.5498,-3.4336,-3.2716,-3.176,-3.1945,-3.2295,-3.2695,-3.3125,-3.3262,-3.3398,-3.3408,-3.3418,-3.3418,-3.3418,-3.3418,-3.3418,-3.3418,-3.3418,-3.3418,-3.3418,-3.3418,-3.3418,-3.3418,-3.3418,-3.3418,-3.3418,-3.3437,-3.3447,-3.3486,-3.3662,-3.3769,-3.3828,-3.3975,-3.4219,-3.4355,-3.4434,-3.4492,-3.4687,-3.4853,-3.5078,-3.5088,-3.5312,-3.5674,-3.5732,-3.5986,-3.6025,-3.6025,-3.6025,-3.6025,-3.6025,-3.6025,-3.6025,-3.5918,-3.582,-3.5752,-3.5674,-3.5537,-3.5234,-3.5088,-3.5078,-3.4961,-3.4941,-3.4726,-3.4502,-3.4473,-3.4414,-3.4336,-3.4307,-3.4375,-3.4404,-3.4394,-3.4228,-3.3994,-3.3955,-3.3984,-3.3887,-3.3799,-3.3613,-3.3428,-3.3437,-3.3447,-3.3437,-3.3428,-3.3418,-3.3418,-3.3418,-3.3418,-3.3418,-3.3418,-3.3418,-3.3418,-3.8027,-3.7974,-3.7974,-3.7974,-3.7974,-3.7974,-3.7974,-3.7974,-3.7974,-3.7974,-3.7974,-3.7974,-3.7974,-3.7974,-3.7974,-3.7974,-3.7974,-3.7974,-3.7974,-3.7974,-3.7974,-3.7974,-3.7536,-3.6785,-3.5399,-3.3786,-3.2086,-3.1622,-3.1592,-3.1953,-3.2314,-3.2764,-3.3096,-3.3296,-3.3398,-3.3418,-3.3418,-3.3418,-3.3418,-3.3418,-3.3418,-3.3418,-3.3418,-3.3418,-3.3418,-3.3418,-3.3418,-3.3418,-3.3418,-3.3418,-3.3418,-3.3418,-3.3418,-3.3486,-3.3476,-3.3545,-3.3564,-3.376,-3.3896,-3.3984,-3.418,-3.4385,-3.4541,-3.4619,-3.4629,-3.4863,-3.5215,-3.5439,-3.5703,-3.581,-3.581,-3.582,-3.582,-3.582,-3.582,-3.582,-3.5664,-3.5517,-3.541,-3.5303,-3.5059,-3.4746,-3.4639,-3.4629,-3.46,-3.46,-3.4482,-3.4287,-3.4121,-3.4014,-3.3916,-3.3887,-3.3916,-3.3935,-3.3965,-3.3877,-3.3691,-3.3643,-3.3662,-3.3516,-3.3418,-3.3418,-3.3418,-3.3418,-3.3418,-3.3418,-3.3418,-3.3418,-3.3418,-3.3418,-3.3418,-3.3418,-3.3418,-3.3418,-3.3418,-3.821,-3.7974,-3.7974,-3.7974,-3.7974,-3.7974,-3.7974,-3.7974,-3.7974,-3.7974,-3.7974,-3.7974,-3.7974,-3.7974,-3.7974,-3.7974,-3.7974,-3.7974,-3.7974,-3.7974,-3.7974,-3.7974,-3.7536,-3.6503,-3.4902,-3.3346,-3.1875,-3.1309,-3.1377,-3.1601,-3.2041,-3.2725,-3.2812,-3.3096,-3.3408,-3.3418,-3.3418,-3.3418,-3.3418,-3.3418,-3.3418,-3.3418,-3.3418,-3.3418,-3.3418,-3.3418,-3.3418,-3.3418,-3.3418,-3.3418,-3.3418,-3.3418,-3.3418,-3.3418,-3.3418,-3.3418,-3.3418,-3.3476,-3.3623,-3.3643,-3.3838,-3.3838,-3.3994,-3.4189,-3.4277,-3.4473,-3.4707,-3.4766,-3.4951,-3.5019,-3.5039,-3.5078,-3.5088,-3.5088,-3.5088,-3.5088,-3.5019,-3.4951,-3.4873,-3.4814,-3.4717,-3.4424,-3.4189,-3.4141,-3.4043,-3.4004,-3.3867,-3.3701,-3.373,-3.3623,-3.3555,-3.3555,-3.3564,-3.3506,-3.3545,-3.3623,-3.3506,-3.3437,-3.3418,-3.3418,-3.3418,-3.3418,-3.3418,-3.3418,-3.3418,-3.3418,-3.3418,-3.3418,-3.3418,-3.3418,-3.3418,-3.3418,-3.3418,-3.3418,-3.3418]},{"header":{"parameterUnit":"m.s-1","parameterCategory":1,"la1":31.0,"la2":29.5877,"lo1":-88.7671,"lo2":-86.6584,"dy":0.0162,"dx":0.0185,"nx":115,"ny":88,"refTime":"2023-06-08T18:00:00:Z","depth":0,"parameterNumber":3,"parameterNumberName":"V-component_of_WINDS"},"data":[0.0,0.0,0.0,0.0,0.0,0.0,0.0,0.0,0.0,0.0,0.0,0.0,0.0,0.0,0.0,0.0,0.0,0.0,0.0,0.0,0.0,0.0,0.0,0.0,0.0,0.0,0.0,0.0,0.0,0.0,0.0,0.0,0.0,0.0,0.0,0.0,0.0,0.0,0.0,0.0,0.0,0.0,0.0,0.0,0.0,0.0,0.0,0.0,0.0,0.0,0.0,0.0,0.0,0.0,0.0,0.0,0.0,0.0,0.0,0.0,0.0,0.0,0.0,0.0,0.0,0.0,0.0,0.0,0.0,0.0,0.0,0.0,0.0,0.0,0.0,0.0,0.0,0.0,0.0,0.0,0.0,0.0,0.0,0.0,0.0,0.0,0.0,0.0,0.0,0.0,0.0,0.0,0.0,0.0,0.0,0.0,0.0,0.0,0.0,0.0,0.0,0.0,0.0,0.0,0.0,0.0,0.0,0.0,0.0,0.0,0.0,0.0,0.0,0.0,0.0,0.0,0.0,0.0,0.0,0.0,0.0,0.0,0.0,0.0,0.0,0.0,0.0,0.0,0.0,0.0,0.0,0.0,0.0,0.0,0.0,0.0,0.0,0.0,0.0,0.0,0.0,0.0,0.0,0.0,0.0,0.0,0.0,0.0,0.0,0.0,0.0,0.0,0.0,0.0,0.0,0.0,0.0,0.0,0.0,0.0,0.0,0.0,0.0,0.0,0.0,0.0,0.0,0.0,0.0,0.0,0.0,0.0,0.0,0.0,0.0,0.0,0.0,0.0,0.0,0.0,0.0,0.0,0.0,0.0,0.0,0.0,0.0,0.0,0.0,0.0,0.0,0.0,0.0,0.0,0.0,0.0,0.0,0.0,0.0,0.0,0.0,0.0,0.0,0.0,0.0,0.0,0.0,0.0,0.0,0.0,0.0,0.0,0.0,0.0,0.0,0.0,0.0,0.0,0.0,0.0,0.0,0.0,0.0,0.0,0.0,0.0,0.0,0.0,0.0,0.0,0.0,0.0,0.0,0.0,0.0,0.0,0.0,0.0,0.0,0.0,0.0,0.0,0.0,0.0,0.0,0.0,0.0,0.0,0.0,0.0,0.0,0.0,0.0,0.0,0.0,0.0,0.0,0.0,0.0,0.0,0.0,0.0,0.0,0.0,0.0,0.0,0.0,0.0,0.0,0.0,0.0,0.0,0.0,0.0,0.0,0.0,0.0,0.0,0.0,0.0,0.0,0.0,0.0,0.0,0.0,0.0,0.0,0.0,0.0,0.0,0.0,0.0,0.0,0.0,0.0,0.0,0.0,0.0,0.0,0.0,0.0,0.0,0.0,0.0,0.0,0.0,0.0,0.0,0.0,0.0,0.0,0.0,0.0,0.0,0.0,0.0,0.0,0.0,0.0,0.0,0.0,0.0,0.0,0.0,0.0,0.0,0.0,0.0,0.0,0.0,0.0,0.0,0.0,0.0,0.0,0.0,0.0,0.0,0.0,0.0,0.0,0.0,0.0,0.0,0.0,0.0,0.0,0.0,0.0,0.0,0.0,0.0,0.0,0.0,0.0,0.0,0.0,0.0,0.0,0.0,0.0,0.0,0.0,0.0,0.0,0.0,0.0,0.0,0.0,0.0,0.0,0.0,0.0,0.0,0.0,0.0,0.0,0.0,0.0,0.0,0.0,0.0,0.0,0.0,0.0,0.0,0.0,0.0,0.0,0.0,0.0,0.0,0.0,0.0,0.0,0.0,0.0,0.0,0.0,0.0,0.0,0.0,0.0,0.0,0.0,0.0,0.0,0.0,0.0,0.0,0.0,0.0,0.0,0.0,0.0,0.0,0.0,0.0,0.0,0.0,0.0,0.0,0.0,0.0,0.0,0.0,0.0,0.0,0.0,0.0,0.0,0.0,0.0,0.0,0.0,0.0,0.0,0.0,0.0,0.0,0.0,0.0,0.0,0.0,0.0,0.0,0.0,0.0,0.0,0.0,0.0,0.0,0.0,0.0,0.0,0.0,0.0,0.0,0.0,0.0,0.0,0.0,0.0,0.0,0.0,0.0,0.0,0.0,0.0,0.0,0.0,0.0,0.0,0.0,0.0,0.0,0.0,0.0,0.0,0.0,0.0,0.0,0.0,0.0,0.0,0.0,0.0,0.0,0.0,0.0,0.0,0.0,0.0,0.0,0.0,0.0,0.0,0.0,0.0,0.0,0.0,0.0,0.0,0.0,0.0,0.0,0.0,0.0,0.0,0.0,0.0,0.0,0.0,0.0,0.0,0.0,0.0,0.0,0.0,0.0,0.0,0.0,0.0,0.0,0.0,0.0,0.0,0.0,0.0,0.0,0.0,0.0,0.0,0.0,0.0,0.0,0.0,0.0,0.0,0.0,0.0,0.0,0.0,0.0,0.0,0.0,0.0,0.0,0.0,0.0,0.0,0.0,0.0,0.0,0.0,0.0,0.0,0.0,0.0,0.0,0.0,0.0,0.0,0.0,0.0,0.0,0.0,0.0,0.0,0.0,0.0,0.0,0.0,0.0,0.0,0.0,0.0,0.0,0.0,0.0,0.0,0.0,0.0,0.0,0.0,0.0,0.0,0.0,0.0,0.0,0.0,0.0,0.0,0.0,0.0,0.0,0.0,0.0,0.0,0.0,0.0,0.0,0.0,0.0,0.0,0.0,0.0,0.0,0.0,0.0,0.0,0.0,0.0,0.0,0.0,0.0,0.0,0.0,0.0,0.0,0.0,0.0,0.0,0.0,0.0,0.0,0.0,0.0,0.0,0.0,0.0,0.0,0.0,0.0,0.0,0.0,0.0,0.0,0.0,0.0,0.0,0.0,0.0,0.0,0.0,0.0,0.0,0.0,0.0,0.0,0.0,0.0,0.0,0.0,0.0,0.0,0.0,0.0,0.0,0.0,0.0,0.0,0.0,0.0,0.0,0.0,0.0,0.0,0.0,0.0,0.0,0.0,0.0,0.0,0.0,0.0,0.0,0.0,0.0,0.0,0.0,0.0,0.0,0.0,0.0,0.0,0.0,0.0,0.0,0.0,0.0,0.0,0.0,0.0,0.0,0.0,0.0,0.0,0.0,0.0,0.0,0.0,0.0,0.0,0.0,0.0,0.0,0.0,0.0,0.0,0.0,0.0,0.0,0.0,0.0,0.0,0.0,0.0,0.0,0.0,0.0,0.0,0.0,0.0,0.0,0.0,0.0,0.0,0.0,0.0,0.0,0.0,0.0,0.0,0.0,0.0,0.0,0.0,0.0,0.0,0.0,0.0,0.0,0.0,0.0,0.0,0.0,0.0,0.0,0.0,0.0,0.0,0.0,0.0,0.0,0.0,0.0,0.0,0.0,0.0,0.0,0.0,0.0,0.0,0.0,0.0,0.0,0.0,0.0,0.0,0.0,0.0,0.0,0.0,0.0,0.0,0.0,0.0,0.0,0.0,0.0,0.0,0.0,0.0,0.0,0.0,0.0,0.0,0.0,0.0,0.0,0.0,0.0,0.0,0.0,0.0,0.0,0.0,0.0,0.0,0.0,0.0,0.0,0.0,0.0,0.0,0.0,0.0,0.0,0.0,0.0,0.0,0.0,0.0,0.0,0.0,0.0,0.0,0.0,0.0,0.0,0.0,0.0,0.0,0.0,0.0,0.0,0.0,0.0,0.0,0.0,0.0,0.0,0.0,0.0,0.0,0.0,0.0,0.0,0.0,0.0,0.0,0.0,0.0,0.0,0.0,0.0,0.0,0.0,0.0,0.0,0.0,0.0,0.0,0.0,0.0,0.0,0.0,0.0,0.0,0.0,0.0,0.0,0.0,0.0,0.0,0.0,0.0,0.0,0.0,0.0,0.0,0.0,0.0,0.0,0.0,0.0,0.0,0.0,0.0,0.0,0.0,0.0,0.0,0.0,0.0,0.0,0.0,0.0,0.0,0.0,0.0,0.0,0.0,0.0,0.0,0.0,0.0,0.0,0.0,0.0,0.0,0.0,0.0,0.0,0.0,0.0,0.0,0.0,0.0,0.0,0.0,0.0,0.0,0.0,0.0,0.0,0.0,0.0,0.0,0.0,0.0,0.0,0.0,0.0,0.0,0.0,0.0,0.0,0.0,0.0,0.0,0.0,0.0,0.0,0.0,0.0,0.0,0.0,0.0,0.0,0.0,0.0,0.0,0.0,0.0,0.0,0.0,0.0,0.0,0.0,0.0,0.0,0.0,0.0,0.0,0.0,0.0,0.0,0.0,0.0,0.0,0.0,0.0,0.0,0.0,-3.6586,0.0,0.0,0.0,0.0,0.0,0.0,0.0,0.0,0.0,0.0,0.0,0.0,0.0,0.0,0.0,0.0,0.0,0.0,0.0,0.0,0.0,0.0,0.0,0.0,0.0,0.0,0.0,0.0,0.0,0.0,0.0,0.0,0.0,0.0,0.0,0.0,0.0,0.0,0.0,0.0,0.0,0.0,0.0,0.0,0.0,0.0,0.0,0.0,0.0,0.0,0.0,0.0,0.0,0.0,0.0,0.0,0.0,0.0,0.0,0.0,0.0,0.0,0.0,0.0,0.0,0.0,0.0,0.0,0.0,0.0,0.0,0.0,0.0,0.0,0.0,0.0,0.0,0.0,0.0,0.0,0.0,0.0,0.0,0.0,0.0,0.0,0.0,0.0,0.0,0.0,0.0,0.0,0.0,0.0,0.0,0.0,0.0,0.0,0.0,0.0,0.0,0.0,0.0,0.0,0.0,0.0,0.0,0.0,0.0,0.0,-3.8936,-3.8898,-3.8367,-3.7601,-3.6559,0.0,0.0,0.0,0.0,0.0,0.0,0.0,0.0,0.0,0.0,0.0,0.0,0.0,0.0,0.0,0.0,0.0,0.0,0.0,0.0,0.0,0.0,0.0,0.0,0.0,0.0,0.0,0.0,0.0,0.0,0.0,0.0,0.0,0.0,0.0,0.0,0.0,0.0,0.0,0.0,0.0,0.0,0.0,0.0,0.0,0.0,0.0,0.0,0.0,0.0,0.0,0.0,0.0,0.0,0.0,0.0,0.0,0.0,0.0,0.0,0.0,0.0,0.0,0.0,0.0,0.0,0.0,0.0,0.0,0.0,0.0,0.0,0.0,0.0,0.0,0.0,0.0,0.0,0.0,0.0,0.0,0.0,0.0,0.0,0.0,0.0,0.0,0.0,0.0,0.0,0.0,0.0,0.0,0.0,0.0,0.0,0.0,0.0,0.0,0.0,0.0,0.0,0.0,0.0,0.0,0.0,0.0,0.0,0.0,0.0,0.0,0.0,-3.7886,-3.729,-3.6676,0.0,0.0,0.0,0.0,0.0,0.0,0.0,0.0,0.0,0.0,0.0,0.0,0.0,0.0,0.0,0.0,0.0,0.0,0.0,0.0,0.0,0.0,0.0,0.0,0.0,0.0,0.0,0.0,0.0,0.0,0.0,0.0,0.0,0.0,0.0,0.0,0.0,0.0,0.0,0.0,0.0,0.0,0.0,0.0,0.0,0.0,0.0,0.0,0.0,0.0,0.0,0.0,0.0,0.0,0.0,0.0,0.0,0.0,0.0,0.0,0.0,0.0,0.0,0.0,0.0,0.0,0.0,0.0,0.0,0.0,0.0,0.0,0.0,0.0,0.0,0.0,0.0,0.0,0.0,0.0,0.0,0.0,0.0,0.0,0.0,0.0,0.0,0.0,0.0,0.0,0.0,0.0,0.0,0.0,0.0,0.0,0.0,0.0,0.0,0.0,0.0,0.0,0.0,0.0,0.0,0.0,0.0,0.0,0.0,0.0,-3.7476,-3.7358,-3.6892,0.0,-3.6158,0.0,0.0,0.0,0.0,0.0,0.0,0.0,0.0,0.0,0.0,0.0,0.0,0.0,0.0,0.0,0.0,0.0,0.0,0.0,0.0,0.0,0.0,0.0,0.0,0.0,0.0,0.0,0.0,0.0,0.0,0.0,0.0,0.0,0.0,0.0,0.0,0.0,0.0,0.0,0.0,0.0,0.0,0.0,0.0,0.0,0.0,0.0,0.0,0.0,0.0,0.0,0.0,0.0,0.0,0.0,0.0,0.0,0.0,0.0,0.0,0.0,0.0,0.0,0.0,0.0,0.0,0.0,0.0,0.0,0.0,0.0,0.0,0.0,0.0,0.0,0.0,0.0,0.0,0.0,0.0,0.0,0.0,0.0,0.0,0.0,0.0,0.0,0.0,0.0,0.0,0.0,0.0,0.0,0.0,0.0,0.0,0.0,0.0,0.0,0.0,0.0,0.0,0.0,0.0,0.0,0.0,0.0,0.0,0.0,0.0,-3.7254,-3.7194,-3.6754,-3.6261,0.0,0.0,0.0,0.0,0.0,0.0,0.0,0.0,0.0,0.0,0.0,0.0,0.0,0.0,0.0,0.0,0.0,0.0,0.0,0.0,0.0,0.0,0.0,0.0,0.0,0.0,0.0,0.0,0.0,0.0,0.0,0.0,0.0,0.0,0.0,0.0,0.0,0.0,0.0,0.0,0.0,0.0,0.0,0.0,0.0,0.0,0.0,0.0,0.0,0.0,0.0,0.0,0.0,0.0,0.0,0.0,0.0,0.0,0.0,0.0,0.0,0.0,0.0,0.0,0.0,0.0,0.0,0.0,0.0,0.0,0.0,0.0,0.0,0.0,0.0,0.0,0.0,0.0,0.0,0.0,0.0,0.0,0.0,0.0,0.0,0.0,0.0,0.0,0.0,0.0,0.0,0.0,0.0,0.0,0.0,0.0,0.0,0.0,0.0,0.0,0.0,0.0,0.0,0.0,0.0,0.0,0.0,0.0,0.0,0.0,-3.7387,-3.6937,-3.6922,-3.6662,-3.6261,-3.5784,0.0,0.0,0.0,0.0,0.0,0.0,0.0,0.0,0.0,0.0,0.0,0.0,0.0,0.0,0.0,0.0,0.0,0.0,0.0,0.0,0.0,0.0,0.0,0.0,0.0,0.0,0.0,0.0,0.0,0.0,0.0,0.0,0.0,0.0,0.0,0.0,0.0,0.0,0.0,0.0,0.0,0.0,0.0,0.0,0.0,0.0,0.0,0.0,0.0,0.0,0.0,0.0,0.0,0.0,0.0,0.0,0.0,0.0,0.0,0.0,0.0,0.0,0.0,0.0,0.0,0.0,0.0,0.0,0.0,0.0,0.0,0.0,0.0,0.0,0.0,0.0,0.0,0.0,0.0,0.0,0.0,0.0,0.0,0.0,0.0,0.0,0.0,0.0,0.0,0.0,0.0,0.0,0.0,0.0,0.0,0.0,0.0,0.0,0.0,0.0,0.0,0.0,0.0,0.0,0.0,0.0,0.0,0.0,-3.7252,-3.6631,-3.6274,-3.6304,-3.6414,-3.6492,0.0,0.0,0.0,0.0,0.0,0.0,0.0,0.0,0.0,0.0,0.0,0.0,0.0,0.0,0.0,0.0,0.0,0.0,0.0,0.0,0.0,0.0,0.0,0.0,0.0,0.0,0.0,0.0,0.0,0.0,0.0,0.0,0.0,0.0,0.0,0.0,0.0,0.0,0.0,0.0,0.0,0.0,0.0,0.0,0.0,0.0,0.0,0.0,0.0,0.0,0.0,0.0,0.0,0.0,0.0,0.0,0.0,0.0,0.0,0.0,0.0,0.0,0.0,0.0,0.0,0.0,0.0,0.0,0.0,0.0,0.0,0.0,0.0,0.0,0.0,0.0,0.0,0.0,0.0,0.0,0.0,0.0,0.0,0.0,0.0,0.0,0.0,0.0,0.0,0.0,0.0,0.0,0.0,0.0,0.0,0.0,0.0,0.0,0.0,0.0,0.0,0.0,0.0,0.0,0.0,0.0,0.0,0.0,0.0,-3.7607,-3.7394,-3.7314,-3.7299,-3.7364,-3.7478,0.0,0.0,0.0,0.0,0.0,0.0,0.0,0.0,0.0,0.0,0.0,0.0,0.0,0.0,0.0,0.0,0.0,0.0,0.0,0.0,0.0,0.0,0.0,0.0,0.0,0.0,0.0,0.0,0.0,0.0,0.0,0.0,0.0,0.0,0.0,0.0,0.0,0.0,0.0,0.0,0.0,0.0,0.0,0.0,0.0,0.0,0.0,0.0,0.0,0.0,0.0,0.0,0.0,0.0,0.0,0.0,0.0,0.0,0.0,0.0,0.0,0.0,0.0,0.0,0.0,0.0,0.0,0.0,0.0,0.0,0.0,0.0,0.0,0.0,0.0,0.0,0.0,0.0,0.0,0.0,0.0,0.0,0.0,0.0,0.0,0.0,0.0,0.0,0.0,0.0,0.0,0.0,0.0,0.0,0.0,0.0,0.0,0.0,0.0,0.0,0.0,0.0,0.0,0.0,0.0,0.0,0.0,0.0,0.0,-3.7833,0.0,-3.7879,-3.7827,-3.7879,-3.7962,0.0,0.0,0.0,0.0,0.0,0.0,0.0,0.0,0.0,0.0,0.0,0.0,0.0,0.0,0.0,0.0,0.0,0.0,0.0,0.0,0.0,0.0,0.0,0.0,0.0,0.0,0.0,0.0,0.0,0.0,0.0,0.0,0.0,0.0,0.0,0.0,0.0,0.0,0.0,0.0,0.0,0.0,0.0,0.0,0.0,0.0,0.0,0.0,0.0,0.0,0.0,0.0,0.0,0.0,0.0,0.0,0.0,0.0,0.0,0.0,0.0,0.0,0.0,0.0,0.0,0.0,0.0,0.0,0.0,0.0,0.0,0.0,0.0,0.0,0.0,0.0,0.0,0.0,0.0,0.0,0.0,0.0,0.0,0.0,0.0,0.0,0.0,0.0,0.0,0.0,0.0,0.0,0.0,0.0,0.0,0.0,0.0,0.0,0.0,0.0,0.0,0.0,0.0,0.0,0.0,0.0,0.0,0.0,-3.7863,-3.7711,-3.7857,-3.7933,-3.7752,-3.7903,-3.794,0.0,0.0,0.0,0.0,0.0,0.0,0.0,0.0,0.0,0.0,0.0,0.0,0.0,0.0,0.0,0.0,0.0,0.0,0.0,0.0,0.0,0.0,0.0,0.0,0.0,0.0,0.0,0.0,0.0,0.0,0.0,0.0,0.0,0.0,0.0,0.0,0.0,0.0,0.0,0.0,0.0,0.0,0.0,0.0,0.0,0.0,0.0,0.0,0.0,0.0,0.0,0.0,0.0,0.0,0.0,0.0,0.0,0.0,0.0,0.0,0.0,0.0,0.0,0.0,0.0,0.0,0.0,0.0,0.0,0.0,0.0,0.0,0.0,0.0,0.0,0.0,0.0,0.0,0.0,0.0,0.0,0.0,0.0,0.0,0.0,0.0,0.0,0.0,0.0,0.0,0.0,0.0,0.0,0.0,0.0,0.0,0.0,0.0,0.0,0.0,0.0,0.0,0.0,0.0,0.0,0.0,0.0,0.0,0.0,-3.8212,-3.8697,-3.8973,-3.9078,-3.9134,-3.9273,0.0,0.0,0.0,0.0,0.0,0.0,0.0,0.0,0.0,0.0,0.0,0.0,0.0,0.0,0.0,0.0,0.0,0.0,0.0,0.0,0.0,0.0,0.0,0.0,0.0,0.0,0.0,0.0,0.0,0.0,0.0,0.0,0.0,0.0,0.0,0.0,0.0,0.0,0.0,0.0,0.0,0.0,0.0,0.0,0.0,0.0,0.0,0.0,0.0,0.0,0.0,0.0,0.0,0.0,0.0,0.0,0.0,0.0,0.0,0.0,0.0,0.0,0.0,0.0,0.0,0.0,0.0,0.0,0.0,0.0,0.0,0.0,0.0,0.0,0.0,0.0,0.0,0.0,0.0,0.0,0.0,0.0,0.0,0.0,0.0,0.0,0.0,0.0,0.0,0.0,0.0,0.0,0.0,0.0,0.0,0.0,0.0,0.0,0.0,0.0,0.0,0.0,0.0,0.0,0.0,0.0,0.0,0.0,0.0,-3.9283,-3.9412,-3.9709,-4.0043,-4.0058,-4.0323,-4.0781,0.0,0.0,0.0,0.0,0.0,0.0,0.0,0.0,0.0,0.0,0.0,0.0,0.0,0.0,0.0,0.0,0.0,0.0,0.0,0.0,0.0,0.0,0.0,0.0,0.0,0.0,0.0,0.0,0.0,0.0,0.0,0.0,0.0,0.0,0.0,0.0,0.0,0.0,0.0,0.0,0.0,0.0,0.0,0.0,0.0,0.0,0.0,0.0,0.0,0.0,0.0,0.0,0.0,0.0,0.0,0.0,0.0,0.0,0.0,0.0,0.0,0.0,0.0,0.0,0.0,0.0,0.0,0.0,0.0,0.0,0.0,0.0,0.0,0.0,0.0,0.0,0.0,0.0,0.0,0.0,0.0,0.0,0.0,0.0,0.0,0.0,0.0,0.0,0.0,0.0,0.0,0.0,0.0,0.0,0.0,0.0,0.0,0.0,0.0,0.0,0.0,0.0,0.0,0.0,0.0,0.0,0.0,0.0,-4.0758,-4.0154,-4.0154,-4.0779,-4.0809,-4.1096,0.0,0.0,0.0,0.0,0.0,0.0,0.0,0.0,0.0,0.0,0.0,0.0,0.0,0.0,0.0,0.0,0.0,0.0,0.0,0.0,0.0,0.0,0.0,0.0,0.0,0.0,0.0,0.0,0.0,0.0,0.0,0.0,0.0,0.0,0.0,0.0,0.0,0.0,0.0,0.0,0.0,0.0,0.0,0.0,0.0,0.0,0.0,0.0,0.0,0.0,0.0,0.0,0.0,0.0,0.0,0.0,0.0,0.0,0.0,0.0,0.0,0.0,0.0,0.0,0.0,0.0,0.0,0.0,0.0,0.0,0.0,0.0,0.0,0.0,0.0,0.0,0.0,0.0,0.0,0.0,0.0,0.0,0.0,0.0,0.0,0.0,0.0,0.0,0.0,0.0,0.0,0.0,0.0,0.0,0.0,0.0,0.0,0.0,0.0,0.0,0.0,0.0,0.0,0.0,0.0,0.0,0.0,0.0,0.0,-4.1644,-4.1617,-4.1727,-4.1894,-4.191,-4.2023,0.0,0.0,0.0,0.0,0.0,0.0,0.0,0.0,0.0,0.0,0.0,0.0,0.0,0.0,0.0,0.0,0.0,0.0,0.0,0.0,0.0,0.0,0.0,0.0,0.0,0.0,0.0,0.0,0.0,0.0,0.0,0.0,0.0,0.0,0.0,0.0,0.0,0.0,0.0,0.0,0.0,0.0,0.0,0.0,0.0,0.0,0.0,0.0,0.0,0.0,0.0,0.0,0.0,0.0,0.0,0.0,0.0,0.0,0.0,0.0,0.0,0.0,0.0,0.0,0.0,0.0,0.0,0.0,0.0,0.0,0.0,0.0,0.0,0.0,0.0,0.0,0.0,0.0,0.0,0.0,0.0,0.0,0.0,0.0,0.0,0.0,0.0,0.0,0.0,0.0,0.0,0.0,0.0,0.0,0.0,0.0,0.0,0.0,0.0,0.0,0.0,0.0,0.0,0.0,0.0,0.0,0.0,0.0,-4.1873,-4.2409,-4.2692,-4.2978,-4.3254,-4.2807,-4.2807,0.0,0.0,0.0,0.0,0.0,0.0,0.0,0.0,0.0,0.0,0.0,0.0,0.0,0.0,0.0,0.0,0.0,0.0,0.0,0.0,0.0,0.0,0.0,0.0,0.0,0.0,0.0,0.0,0.0,0.0,0.0,0.0,0.0,0.0,0.0,0.0,0.0,0.0,0.0,0.0,0.0,0.0,0.0,0.0,0.0,0.0,0.0,0.0,0.0,0.0,0.0,0.0,0.0,0.0,0.0,0.0,0.0,0.0,0.0,0.0,0.0,0.0,0.0,0.0,0.0,0.0,0.0,0.0,0.0,0.0,0.0,0.0,0.0,0.0,0.0,0.0,0.0,0.0,0.0,0.0,0.0,0.0,0.0,0.0,0.0,0.0,0.0,0.0,0.0,0.0,0.0,0.0,0.0,0.0,0.0,0.0,0.0,0.0,0.0,0.0,0.0,0.0,0.0,0.0,0.0,0.0,0.0,0.0,-4.2446,-4.31,-4.3492,-4.3994,-4.4526,-4.3647,-4.3518,0.0,0.0,0.0,0.0,0.0,0.0,0.0,0.0,0.0,0.0,0.0,0.0,0.0,0.0,0.0,0.0,0.0,0.0,0.0,0.0,0.0,0.0,0.0,0.0,0.0,0.0,0.0,0.0,0.0,0.0,0.0,0.0,0.0,0.0,0.0,0.0,0.0,0.0,0.0,0.0,0.0,0.0,0.0,0.0,0.0,0.0,0.0,0.0,0.0,0.0,0.0,0.0,0.0,0.0,0.0,0.0,0.0,0.0,0.0,0.0,0.0,0.0,0.0,0.0,0.0,0.0,0.0,0.0,0.0,0.0,0.0,0.0,0.0,0.0,0.0,0.0,0.0,0.0,0.0,0.0,0.0,0.0,0.0,0.0,0.0,0.0,0.0,0.0,0.0,0.0,0.0,0.0,0.0,0.0,0.0,0.0,0.0,0.0,0.0,0.0,0.0,0.0,0.0,0.0,0.0,0.0,0.0,0.0,-4.3357,-4.4014,-4.4258,-4.4433,-4.4594,-4.4395,-4.4357,0.0,0.0,0.0,0.0,0.0,0.0,0.0,0.0,0.0,0.0,0.0,0.0,0.0,0.0,0.0,0.0,0.0,0.0,0.0,0.0,0.0,0.0,0.0,0.0,0.0,0.0,0.0,0.0,0.0,0.0,0.0,0.0,0.0,0.0,0.0,0.0,0.0,0.0,0.0,0.0,0.0,0.0,0.0,0.0,0.0,0.0,0.0,0.0,-4.7817,0.0,0.0,0.0,0.0,0.0,0.0,0.0,0.0,0.0,0.0,0.0,0.0,0.0,0.0,0.0,0.0,0.0,0.0,0.0,0.0,0.0,0.0,0.0,0.0,0.0,0.0,0.0,0.0,0.0,0.0,0.0,0.0,0.0,0.0,0.0,0.0,0.0,0.0,0.0,0.0,0.0,0.0,0.0,0.0,0.0,0.0,0.0,0.0,0.0,0.0,0.0,0.0,0.0,0.0,0.0,0.0,0.0,0.0,0.0,-4.3968,-4.4305,-4.4511,-4.461,-4.461,-4.461,-4.461,0.0,0.0,0.0,0.0,0.0,0.0,0.0,0.0,0.0,0.0,0.0,0.0,0.0,0.0,0.0,0.0,0.0,0.0,0.0,0.0,0.0,0.0,0.0,0.0,0.0,0.0,0.0,0.0,0.0,0.0,0.0,0.0,0.0,0.0,0.0,0.0,0.0,0.0,0.0,0.0,0.0,0.0,0.0,0.0,0.0,0.0,0.0,0.0,0.0,0.0,0.0,0.0,0.0,0.0,0.0,0.0,0.0,0.0,0.0,0.0,0.0,0.0,0.0,0.0,0.0,0.0,0.0,0.0,0.0,0.0,0.0,0.0,0.0,0.0,0.0,0.0,0.0,0.0,0.0,0.0,0.0,0.0,0.0,0.0,0.0,0.0,0.0,0.0,0.0,0.0,0.0,0.0,0.0,0.0,0.0,0.0,0.0,0.0,0.0,0.0,0.0,0.0,0.0,0.0,0.0,0.0,0.0,-4.4243,-4.432,-4.4358,-4.4603,-4.4726,-4.4779,-4.4779,-4.4764,-4.4726,0.0,0.0,0.0,0.0,0.0,0.0,0.0,0.0,0.0,0.0,0.0,0.0,0.0,0.0,0.0,0.0,0.0,0.0,0.0,0.0,0.0,0.0,0.0,0.0,0.0,0.0,0.0,0.0,0.0,0.0,0.0,0.0,0.0,0.0,0.0,0.0,0.0,0.0,-4.9136,-4.8981,0.0,0.0,0.0,0.0,0.0,0.0,0.0,0.0,-4.8175,0.0,0.0,0.0,0.0,0.0,0.0,0.0,0.0,0.0,0.0,0.0,0.0,0.0,0.0,0.0,0.0,0.0,0.0,0.0,0.0,0.0,0.0,0.0,0.0,0.0,0.0,0.0,0.0,0.0,0.0,0.0,0.0,0.0,0.0,0.0,0.0,0.0,0.0,0.0,0.0,0.0,0.0,0.0,0.0,0.0,0.0,0.0,0.0,0.0,0.0,0.0,0.0,0.0,0.0,0.0,0.0,-4.4761,-4.4473,-4.4358,-4.4549,-4.5126,-4.5418,-4.5418,-4.5418,-4.5418,-4.5387,0.0,0.0,0.0,0.0,0.0,0.0,0.0,0.0,0.0,0.0,0.0,0.0,0.0,0.0,0.0,0.0,0.0,0.0,0.0,0.0,0.0,0.0,0.0,0.0,0.0,0.0,0.0,0.0,0.0,0.0,0.0,0.0,0.0,0.0,0.0,0.0,0.0,0.0,0.0,-4.8805,-4.8718,0.0,0.0,0.0,0.0,0.0,0.0,0.0,0.0,-4.8244,0.0,0.0,0.0,0.0,0.0,0.0,0.0,0.0,0.0,0.0,0.0,0.0,0.0,0.0,0.0,0.0,0.0,0.0,0.0,0.0,0.0,0.0,0.0,0.0,0.0,0.0,0.0,0.0,0.0,0.0,0.0,0.0,0.0,0.0,0.0,0.0,0.0,0.0,0.0,0.0,0.0,0.0,0.0,0.0,0.0,0.0,0.0,0.0,0.0,0.0,0.0,0.0,0.0,0.0,0.0,-4.4739,-4.4872,-4.5018,-4.5126,-4.5757,-4.6126,-4.6111,-4.6111,-4.6111,0.0,0.0,0.0,0.0,0.0,0.0,0.0,0.0,0.0,0.0,0.0,0.0,0.0,0.0,0.0,0.0,0.0,0.0,0.0,0.0,0.0,0.0,0.0,0.0,0.0,0.0,0.0,0.0,0.0,0.0,0.0,0.0,0.0,0.0,0.0,0.0,0.0,0.0,0.0,0.0,-4.9006,-4.8857,-4.8996,0.0,0.0,0.0,0.0,0.0,0.0,-4.8412,-4.8286,0.0,0.0,0.0,0.0,0.0,0.0,0.0,0.0,0.0,0.0,0.0,0.0,0.0,0.0,0.0,0.0,0.0,0.0,0.0,0.0,0.0,0.0,0.0,0.0,0.0,0.0,0.0,0.0,0.0,0.0,0.0,0.0,0.0,0.0,0.0,0.0,0.0,0.0,0.0,0.0,0.0,0.0,0.0,0.0,0.0,0.0,0.0,0.0,0.0,0.0,0.0,0.0,0.0,0.0,0.0,-4.4939,-4.5403,-4.5664,-4.5803,-4.6449,-4.6803,-4.6803,-4.6803,-4.6843,0.0,0.0,0.0,0.0,0.0,0.0,0.0,0.0,0.0,0.0,0.0,0.0,0.0,0.0,0.0,0.0,0.0,0.0,0.0,0.0,0.0,0.0,0.0,0.0,0.0,0.0,0.0,0.0,0.0,0.0,0.0,0.0,0.0,0.0,0.0,0.0,0.0,0.0,0.0,0.0,0.0,-4.8996,-4.8914,-4.8718,0.0,0.0,0.0,0.0,-4.8604,-4.8453,0.0,0.0,0.0,0.0,0.0,0.0,0.0,0.0,0.0,0.0,0.0,0.0,0.0,0.0,0.0,0.0,0.0,0.0,0.0,0.0,0.0,0.0,0.0,0.0,0.0,0.0,0.0,0.0,0.0,0.0,0.0,0.0,0.0,0.0,0.0,0.0,0.0,0.0,0.0,0.0,0.0,0.0,0.0,0.0,0.0,0.0,0.0,0.0,0.0,0.0,0.0,0.0,0.0,0.0,0.0,0.0,-4.597,-4.5735,-4.588,-4.6465,-4.7142,-4.7496,-4.7496,-4.7481,-4.7592,0.0,0.0,0.0,0.0,0.0,0.0,0.0,0.0,0.0,0.0,0.0,0.0,0.0,0.0,0.0,0.0,0.0,0.0,0.0,0.0,0.0,0.0,0.0,0.0,0.0,0.0,0.0,0.0,0.0,0.0,0.0,0.0,0.0,0.0,0.0,0.0,0.0,0.0,0.0,0.0,0.0,-4.8898,-4.8661,-4.862,-4.8604,0.0,0.0,-4.8604,-4.8604,-4.8578,0.0,0.0,0.0,0.0,0.0,0.0,0.0,0.0,0.0,0.0,0.0,0.0,0.0,0.0,0.0,0.0,0.0,0.0,0.0,0.0,0.0,0.0,0.0,0.0,0.0,0.0,0.0,0.0,0.0,0.0,0.0,0.0,0.0,0.0,0.0,0.0,0.0,0.0,0.0,0.0,0.0,0.0,0.0,0.0,0.0,0.0,0.0,0.0,0.0,0.0,0.0,0.0,0.0,0.0,0.0,-4.5906,-4.6218,-4.6538,-4.688,-4.7173,-4.7819,-4.8173,-4.8173,-4.8327,-4.8465,0.0,0.0,0.0,0.0,0.0,0.0,0.0,0.0,0.0,0.0,0.0,0.0,0.0,0.0,0.0,0.0,0.0,0.0,0.0,0.0,0.0,0.0,0.0,0.0,0.0,0.0,0.0,0.0,0.0,0.0,0.0,0.0,0.0,0.0,0.0,0.0,0.0,0.0,0.0,0.0,0.0,0.0,-4.8857,-4.8702,0.0,0.0,0.0,-4.8604,-4.8604,0.0,0.0,0.0,0.0,0.0,0.0,0.0,0.0,0.0,0.0,0.0,0.0,0.0,0.0,0.0,0.0,0.0,0.0,0.0,0.0,0.0,0.0,0.0,0.0,0.0,0.0,0.0,0.0,0.0,0.0,0.0,0.0,0.0,0.0,0.0,0.0,0.0,0.0,0.0,0.0,0.0,0.0,0.0,0.0,0.0,0.0,0.0,0.0,0.0,0.0,0.0,0.0,0.0,0.0,0.0,0.0,0.0,-4.6733,-4.7296,-4.7681,-4.7865,-4.8358,-4.8604,-4.8604,-4.88,0.0,0.0,0.0,0.0,0.0,0.0,0.0,0.0,0.0,0.0,0.0,0.0,0.0,0.0,0.0,0.0,0.0,0.0,0.0,0.0,0.0,0.0,0.0,0.0,0.0,0.0,0.0,-5.2841,0.0,0.0,0.0,0.0,0.0,0.0,0.0,0.0,0.0,0.0,0.0,0.0,0.0,0.0,-4.921,-4.9037,-4.8774,-4.8604,0.0,0.0,-4.8881,-4.8881,-4.9035,-4.9081,0.0,0.0,0.0,0.0,0.0,0.0,0.0,0.0,0.0,0.0,0.0,0.0,0.0,0.0,0.0,0.0,0.0,0.0,0.0,0.0,0.0,0.0,0.0,0.0,0.0,0.0,0.0,0.0,0.0,0.0,0.0,0.0,0.0,0.0,0.0,0.0,0.0,0.0,0.0,0.0,0.0,0.0,0.0,0.0,0.0,0.0,0.0,0.0,0.0,0.0,0.0,0.0,0.0,0.0,0.0,-4.8066,-4.7775,-4.7927,-4.8512,-4.8589,-4.8604,-4.8604,-4.862,-4.8826,0.0,0.0,0.0,0.0,0.0,0.0,0.0,0.0,0.0,0.0,0.0,0.0,0.0,0.0,0.0,0.0,0.0,0.0,0.0,0.0,0.0,0.0,0.0,0.0,0.0,0.0,0.0,0.0,0.0,0.0,0.0,0.0,0.0,0.0,0.0,0.0,0.0,0.0,0.0,0.0,0.0,-4.9235,-4.9037,-4.8759,-4.8604,0.0,0.0,-4.962,-4.9605,-5.0143,-5.0343,-4.9712,0.0,0.0,0.0,0.0,0.0,0.0,0.0,0.0,0.0,0.0,0.0,0.0,0.0,0.0,0.0,0.0,0.0,0.0,0.0,0.0,0.0,0.0,0.0,0.0,0.0,0.0,0.0,0.0,0.0,0.0,0.0,0.0,0.0,0.0,0.0,0.0,0.0,0.0,0.0,0.0,0.0,0.0,0.0,0.0,0.0,0.0,0.0,0.0,0.0,0.0,0.0,0.0,0.0,-4.7762,-4.8292,-4.8239,-4.8343,-4.8589,-4.8604,-4.8604,-4.8604,-4.8774,-4.9153,0.0,0.0,0.0,0.0,0.0,0.0,0.0,0.0,0.0,0.0,0.0,0.0,0.0,0.0,0.0,0.0,0.0,0.0,0.0,0.0,0.0,0.0,0.0,0.0,0.0,0.0,0.0,0.0,-5.3382,-5.3195,-5.2955,0.0,0.0,0.0,0.0,0.0,0.0,0.0,0.0,0.0,0.0,-4.9309,-4.9444,-4.9323,0.0,0.0,-5.0143,-5.0313,-5.0313,-5.0528,-5.0605,-5.0359,-5.0297,0.0,0.0,0.0,0.0,0.0,0.0,0.0,0.0,0.0,0.0,0.0,0.0,0.0,0.0,0.0,0.0,0.0,0.0,0.0,0.0,0.0,0.0,0.0,0.0,0.0,0.0,0.0,0.0,0.0,0.0,0.0,0.0,0.0,0.0,0.0,0.0,0.0,0.0,0.0,0.0,0.0,0.0,0.0,0.0,0.0,0.0,0.0,0.0,0.0,0.0,0.0,0.0,-4.8441,-4.8708,-4.8635,-4.8728,-4.9015,-4.8975,-4.9122,-4.9334,-4.9526,-4.9939,0.0,0.0,0.0,0.0,0.0,0.0,0.0,0.0,0.0,0.0,0.0,0.0,0.0,0.0,0.0,0.0,0.0,0.0,0.0,0.0,0.0,0.0,0.0,0.0,0.0,0.0,0.0,0.0,-5.323,-5.2972,-5.264,0.0,0.0,0.0,0.0,0.0,0.0,0.0,0.0,0.0,0.0,-4.961,-4.9857,-5.0005,-5.0271,-5.0835,-5.1083,-5.1206,-5.1206,-5.1376,-5.1454,-5.1135,0.0,0.0,0.0,0.0,0.0,0.0,0.0,0.0,0.0,0.0,0.0,0.0,0.0,0.0,0.0,0.0,0.0,0.0,0.0,0.0,0.0,0.0,0.0,0.0,0.0,0.0,0.0,0.0,0.0,0.0,-4.6484,0.0,0.0,0.0,0.0,0.0,0.0,0.0,0.0,0.0,0.0,0.0,0.0,0.0,0.0,0.0,0.0,0.0,0.0,0.0,0.0,0.0,0.0,-4.874,-4.9566,-4.8959,-4.9041,-4.9829,-4.9884,-5.026,-5.0957,-5.1016,-5.1145,-5.1348,0.0,0.0,0.0,0.0,0.0,0.0,0.0,0.0,0.0,0.0,0.0,0.0,0.0,0.0,0.0,0.0,0.0,0.0,0.0,0.0,0.0,0.0,0.0,0.0,0.0,0.0,-5.3246,-5.3041,-5.2867,0.0,0.0,0.0,0.0,0.0,0.0,0.0,0.0,0.0,0.0,-5.0294,-5.0071,-5.0294,-5.0672,-5.108,-5.1385,-5.1942,-5.2348,-5.2336,-5.2894,-5.3025,0.0,0.0,0.0,0.0,0.0,0.0,0.0,0.0,0.0,0.0,0.0,0.0,0.0,0.0,0.0,0.0,0.0,0.0,0.0,0.0,0.0,0.0,0.0,0.0,0.0,0.0,0.0,-4.5448,-4.5887,0.0,0.0,0.0,0.0,0.0,0.0,0.0,0.0,0.0,0.0,0.0,-4.9857,-5.0071,0.0,0.0,0.0,0.0,0.0,0.0,0.0,0.0,0.0,0.0,0.0,0.0,-4.9914,-5.0198,-5.0245,-5.0422,-5.0707,-5.0691,-5.0805,-5.1091,-5.1091,-5.1385,-5.1967,0.0,0.0,0.0,0.0,0.0,0.0,0.0,0.0,0.0,0.0,0.0,0.0,0.0,0.0,0.0,0.0,0.0,0.0,0.0,0.0,0.0,0.0,0.0,0.0,0.0,-5.3551,0.0,0.0,0.0,0.0,0.0,0.0,0.0,0.0,0.0,0.0,0.0,-5.1439,-5.1248,-5.119,-5.1262,-5.1646,-5.1853,-5.2079,0.0,0.0,0.0,0.0,0.0,0.0,0.0,0.0,0.0,0.0,0.0,0.0,0.0,0.0,-5.302,-5.2286,-5.2226,-5.2116,-5.1552,0.0,0.0,0.0,0.0,0.0,0.0,0.0,0.0,0.0,0.0,0.0,0.0,0.0,0.0,-4.6515,0.0,-4.7535,0.0,0.0,0.0,0.0,0.0,0.0,0.0,0.0,-5.0558,-5.0827,-5.0944,-5.1211,-5.1441,0.0,-5.1607,-5.1287,0.0,0.0,0.0,0.0,0.0,0.0,0.0,0.0,-5.0701,-5.093,-5.1291,-5.1631,-5.1908,-5.2174,-5.2417,-5.2692,-5.2692,-5.2927,-5.3463,-5.3631,-5.3685,0.0,0.0,0.0,0.0,0.0,0.0,0.0,0.0,0.0,0.0,0.0,0.0,0.0,0.0,0.0,0.0,0.0,0.0,0.0,0.0,0.0,0.0,0.0,-5.3819,0.0,0.0,0.0,0.0,0.0,0.0,0.0,0.0,0.0,-5.3471,-5.2955,-5.2681,-5.2475,-5.2238,-5.223,-5.2701,0.0,0.0,0.0,0.0,0.0,0.0,0.0,-5.4106,-5.3812,-5.3708,-5.3614,-5.3587,-5.3393,-5.358,-5.4401,0.0,0.0,-5.3465,-5.3606,-5.3528,-5.2381,-5.241,-5.2314,-5.1233,-5.1051,-5.1051,0.0,0.0,0.0,0.0,0.0,0.0,0.0,0.0,-4.6891,-4.6971,0.0,-4.7785,0.0,0.0,0.0,0.0,0.0,-5.1364,0.0,0.0,-5.2789,-5.3061,-5.2418,-5.3078,-5.3264,-5.2938,-5.2901,-5.269,-5.2326,-5.2148,0.0,0.0,0.0,0.0,0.0,0.0,-5.114,-5.1741,-5.2123,-5.2648,-5.3453,-5.4137,-5.4885,-5.5612,-5.5647,-5.5647,-5.5647,-5.4989,-5.4634,-5.46,-5.3957,0.0,0.0,0.0,0.0,0.0,0.0,0.0,0.0,0.0,0.0,0.0,0.0,0.0,0.0,0.0,0.0,0.0,0.0,0.0,0.0,-5.441,0.0,0.0,0.0,0.0,0.0,0.0,0.0,0.0,0.0,0.0,-5.4894,-5.4498,-5.4307,-5.4291,0.0,0.0,0.0,0.0,-5.3953,-5.4979,-5.5162,-5.5399,-5.6046,-5.5978,-5.5503,-5.4666,0.0,0.0,-5.4417,-5.4476,-5.4745,-5.5629,-5.5661,-5.523,-5.4687,-5.5323,-5.5367,-5.3712,-5.3919,-5.3807,-5.2355,-5.1973,-5.1913,-4.5212,0.0,0.0,0.0,0.0,-4.5939,-4.6585,-4.7504,-4.7818,-4.8255,-4.8831,-4.9521,0.0,0.0,0.0,0.0,0.0,0.0,-5.1938,-5.2306,-5.2683,-5.2957,-5.3162,-5.3382,-5.3416,-5.3314,-5.3331,-5.3263,-5.3178,-5.3093,-5.2712,-5.1987,0.0,0.0,0.0,0.0,-5.2287,-5.3105,-5.3661,-5.4278,-5.5045,-5.5247,-5.5471,-5.5681,-5.5681,-5.5681,-5.5716,-5.5513,-5.5395,-5.5412,-5.5157,0.0,0.0,0.0,0.0,0.0,0.0,0.0,0.0,0.0,0.0,0.0,0.0,0.0,0.0,0.0,0.0,0.0,0.0,0.0,-5.4566,-5.441,-5.4692,0.0,0.0,0.0,0.0,0.0,0.0,0.0,0.0,0.0,-5.6805,-5.5715,-5.4845,0.0,0.0,-5.5349,-5.5122,-5.5969,-5.6456,-5.5958,-5.6133,0.0,-5.6403,-5.6447,-5.663,-5.7038,-5.6422,-5.5834,-5.5907,-5.5756,-5.613,-5.7617,-5.7875,-5.7754,-5.7552,-5.6802,-5.6296,-5.6183,-5.5937,-5.5498,-5.4932,-5.4322,-5.3837,-4.6684,-4.6553,-4.624,-4.6319,-4.6678,-4.7102,-4.7858,-4.8798,-4.927,-4.9814,-5.0301,-5.0669,-5.0935,-5.1045,-5.152,0.0,0.0,0.0,-5.2389,-5.294,-5.294,-5.3161,-5.3501,-5.3518,-5.3518,-5.3518,-5.3518,-5.3518,-5.3518,-5.3518,-5.3364,-5.3026,0.0,0.0,-5.2845,-5.2917,-5.3478,-5.4462,-5.5135,-5.57,-5.6139,-5.6427,-5.6579,-5.6579,-5.6562,-5.6579,-5.6562,-5.6292,-5.6156,-5.6156,-5.5833,-5.5681,0.0,0.0,0.0,0.0,0.0,0.0,0.0,0.0,0.0,0.0,0.0,-5.4583,-5.4583,0.0,0.0,0.0,-5.5294,-5.5344,-5.5057,-5.5172,0.0,0.0,0.0,0.0,0.0,0.0,0.0,-5.7327,-5.767,-5.7913,-5.7913,-5.7308,-5.6746,-5.631,-5.6847,-5.7257,-5.7059,0.0,-5.779,-5.7485,-5.7646,-5.7829,-5.7957,-5.799,-5.8109,-5.8316,-5.7543,-5.7066,-5.7365,-5.728,-5.7669,-5.8887,-5.9315,-5.9415,-5.9733,-5.8994,-5.8083,-5.7602,-5.7359,-5.7088,-5.6733,-5.6195,-5.5905,-4.8032,-4.9045,-4.7275,-4.718,-4.8159,-4.8555,-4.9388,-5.049,-5.0994,-5.1314,-5.1441,-5.1349,-5.1496,-5.185,-5.1833,0.0,-5.2665,-5.2682,-5.294,-5.3518,-5.3518,-5.3518,-5.3518,-5.3518,-5.3518,-5.3518,-5.3551,-5.3585,-5.3619,-5.367,-5.4025,-5.4634,-5.3648,-5.3631,-5.4616,-5.4287,-5.4656,-5.5766,-5.6461,-5.6816,-5.69,-5.7543,-5.7881,-5.7865,-5.7881,-5.7865,-5.7848,-5.7256,-5.6884,-5.6884,-5.6258,-5.5902,-5.5902,0.0,0.0,0.0,0.0,0.0,0.0,0.0,0.0,0.0,0.0,0.0,0.0,0.0,0.0,0.0,-5.6359,0.0,-5.5869,-5.641,0.0,0.0,0.0,-5.7567,-5.7448,-5.7448,-5.7465,-5.7532,0.0,0.0,-5.8533,-5.9192,-5.9431,-5.8984,-5.8763,-5.8738,-5.8933,-5.856,-5.8501,-5.9231,-5.9413,-5.9643,-6.005,-6.0122,-5.9781,-5.9056,-5.8219,-5.8172,-5.8806,-5.8951,-5.9318,-6.016,-6.0283,-6.0482,-6.1264,-6.125,-6.0662,-5.8403,-5.8495,-5.8723,-5.803,-5.7767,-5.7775,-5.0059,-5.0864,-5.0403,-5.0302,-5.0407,-5.0512,-5.073,-5.1012,-5.115,-5.1217,-5.1315,-5.1792,-5.2417,-5.3092,-5.3092,-5.3161,-5.3297,-5.3263,-5.3348,-5.3501,-5.3518,-5.3518,-5.3518,-5.3518,-5.3518,-5.3551,-5.4059,-5.4329,-5.4363,-5.4905,-5.5277,-5.5411,-5.5155,-5.5172,-5.5411,-5.5201,-5.5555,-5.6545,-5.6714,-5.707,-5.7594,-5.7797,-5.7881,-5.7881,-5.7881,-5.7881,-5.7881,-5.7712,-5.7628,-5.7611,-5.7459,-5.7374,-5.7374,-5.7374,0.0,0.0,0.0,0.0,0.0,0.0,0.0,0.0,0.0,-5.6292,-5.6292,0.0,-5.6342,0.0,-5.6207,-5.6122,-5.6511,-5.6697,0.0,0.0,-5.7707,-5.8045,-5.8511,-5.8579,-5.8815,-5.9355,-5.9574,-5.9692,-5.9675,-6.0367,-6.0844,-6.0714,-6.0337,-5.9984,-5.9776,-6.0508,-6.0834,-6.0448,-6.0481,-6.0638,-6.0828,-6.1374,-6.1447,-6.0588,-6.0249,-6.0249,-6.0456,-6.0473,-6.076,-6.1627,-6.1856,-6.1941,-6.2076,-6.2127,-6.1964,-6.131,-6.0858,-6.0415,-6.0191,-5.9628,-5.9161,-5.0844,-5.187,-5.187,-5.2008,-5.2215,-5.186,-5.1708,-5.1742,-5.208,-5.2232,-5.2249,-5.2672,-5.3095,-5.3501,-5.3518,-5.3518,-5.3518,-5.3518,-5.3518,-5.3518,-5.3518,-5.3518,-5.3518,-5.3839,-5.3974,-5.4025,-5.4735,-5.5074,-5.5124,-5.5513,-5.5886,-5.619,-5.619,-5.6359,-5.6664,-5.6236,-5.6421,-5.7256,-5.7289,-5.7476,-5.7865,-5.7881,-5.7881,-5.7881,-5.7881,-5.7881,-5.7881,-5.7881,-5.7881,-5.7881,-5.7881,-5.7881,-5.7881,-5.7881,-5.7881,0.0,0.0,0.0,0.0,0.0,0.0,0.0,0.0,0.0,0.0,0.0,-5.6934,-5.7273,-5.6917,-5.685,-5.7239,-5.7594,-5.7949,-5.8355,-5.8693,-5.9049,-5.9455,-5.9505,-5.9658,-6.0047,-6.0419,-6.0639,-6.0655,-6.1298,-6.1772,-6.1789,-6.156,-6.1306,-6.1163,-6.1755,-6.1974,-6.1497,-6.1554,-6.1611,-6.1652,-6.2047,-6.2223,-6.1773,-6.1595,-6.1652,-6.1595,-6.1611,-6.1813,-6.2302,-6.2398,-6.2398,-6.2398,-6.2398,-6.2398,-6.2341,-6.1991,-6.1652,-6.1595,-6.121,-6.0861,-5.1178,-5.2452,-5.2452,-5.2858,-5.345,-5.2739,-5.2452,-5.252,-5.3196,-5.3518,-5.3518,-5.3518,-5.3518,-5.3518,-5.3518,-5.3518,-5.3518,-5.3518,-5.3518,-5.3518,-5.3518,-5.3551,-5.367,-5.4296,-5.4651,-5.4769,-5.5497,-5.5833,-5.5852,-5.5953,-5.6325,-5.6917,-5.6934,-5.7256,-5.7831,-5.7256,-5.7256,-5.7865,-5.7881,-5.7881,-5.7881,-5.7881,-5.7881,-5.7881,-5.7881,-5.7881,-5.7881,-5.7881,-5.7881,-5.7881,-5.7881,-5.7881,-5.7881,-5.7881,-5.7881,0.0,-5.7881,0.0,0.0,0.0,0.0,0.0,0.0,0.0,0.0,-5.7019,-5.7391,-5.8118,-5.8169,-5.8169,-5.8169,-5.8761,-5.915,-5.9167,-5.9708,-6.0148,-6.025,-6.025,-6.03,-6.0385,-6.1011,-6.1434,-6.1467,-6.2009,-6.2398,-6.2347,-6.233,-6.2274,-6.2364,-6.2381,-6.2358,-6.2398,-6.2398,-6.2302,-6.2319,-6.2358,-6.2381,-6.2398,-6.2358,-6.2398,-6.2358,-6.2358,-6.2398,-6.2398,-6.2398,-6.2398,-6.2398,-6.2398,-6.2398,-6.2398,-6.2358,-6.2341,-6.2341,-6.2302,-6.2398,-5.2448,-5.3281,-5.3264,-5.3365,-5.3484,-5.3331,-5.3281,-5.3298,-5.3433,-5.3518,-5.3518,-5.3518,-5.3518,-5.3518,-5.3518,-5.3518,-5.3518,-5.3518,-5.3518,-5.3518,-5.3518,-5.3822,-5.4363,-5.4515,-5.4921,-5.553,-5.6241,-5.6596,-5.6613,-5.7171,-5.7543,-5.7679,-5.7679,-5.7746,-5.7881,0.0,0.0,0.0,-5.7881,-5.7881,-5.7881,-5.7881,-5.7881,-5.7881,-5.7881,0.0,-5.7881,-5.7881,-5.7881,-5.7881,-5.7881,0.0,0.0,0.0,0.0,0.0,0.0,0.0,0.0,0.0,0.0,0.0,-5.8676,-5.8338,-5.7763,-5.8237,-5.8913,-5.959,-5.9674,-5.9674,-5.9674,-5.9793,-5.9894,-5.9911,-6.003,-6.0334,-6.096,-6.1078,-6.1281,-6.189,-6.2093,-6.2178,-6.2178,-6.2313,-6.2398,-6.2398,-6.2398,-6.2398,-6.2398,-6.2398,-6.2398,-6.2398,-6.2398,-6.2398,-6.2398,-6.2398,-6.2398,-6.2398,-6.2398,-6.2398,-6.2398,-6.2398,-6.2398,-6.2398,-6.2398,-6.2398,-6.2398,-6.2398,-6.2398,-6.2398,-6.2398,-6.2398,-6.2398,-6.2398,-6.2398,-5.3127,0.0,-5.3518,-5.3518,0.0,-5.3518,-5.3518,-5.3518,-5.3518,-5.3518,-5.3518,-5.3518,-5.3518,-5.3518,-5.3518,-5.3518,-5.3518,-5.3518,-5.3518,-5.3518,-5.3518,-5.389,-5.46,-5.4989,-5.553,-5.6258,-5.6985,-5.734,-5.7357,-5.7712,-5.7881,-5.7881,-5.7881,-5.7881,-5.7881,-5.7881,-5.7881,-5.7881,-5.7881,-5.7881,-5.7898,-5.8237,-5.844,-5.8457,0.0,0.0,0.0,0.0,0.0,0.0,0.0,0.0,0.0,0.0,0.0,-5.8981,-5.8964,-5.8981,-5.8981,-5.8964,-5.915,-5.9522,-5.9556,-5.9387,-5.9015,-5.9336,-5.9708,-6.0047,-6.0097,-6.0097,-6.0114,-6.0452,-6.0689,-6.0706,-6.1011,-6.1417,-6.1755,-6.1839,-6.1975,-6.2296,-6.2398,-6.2398,-6.2398,-6.2398,-6.2398,-6.2398,-6.2398,-6.2398,-6.2398,-6.2398,-6.2398,-6.2398,-6.2398,-6.2398,-6.2398,-6.2398,-6.2398,-6.2398,-6.2398,-6.2398,-6.2398,-6.2398,-6.2398,-6.2398,-6.2398,-6.2398,-6.2398,-6.2398,-6.2398,-6.2398,-6.2398,-6.2398,-6.2398,-6.2398,-6.2398,-5.3518,-5.3518,-5.3518,-5.3518,-5.3518,-5.3518,-5.3518,-5.3518,0.0,0.0,0.0,-5.3518,-5.3518,-5.3518,-5.3518,-5.3518,-5.3518,-5.3518,-5.3518,-5.3518,-5.3518,-5.3957,-5.4803,-5.5429,-5.6173,-5.7002,-5.7611,-5.7881,-5.7881,-5.7881,-5.7881,-5.7881,-5.7881,-5.7881,-5.7898,-5.8017,-5.8084,-5.8084,-5.8084,-5.8084,-5.8118,-5.8812,-5.9218,-5.9218,-5.9793,-6.0097,-6.0097,-6.0097,-6.0097,-6.0097,-6.0097,-6.0097,-6.0097,-6.0097,-6.0097,-6.0097,-6.0097,-6.0097,-6.0097,-6.0097,-6.0165,-6.03,-6.0436,-6.0452,-6.0317,-6.0317,-6.0368,-6.0486,-6.0503,-6.052,-6.0503,-6.1078,-6.1501,-6.1501,-6.2026,-6.2381,-6.2398,-6.2398,-6.2364,-6.2398,-6.2398,-6.2398,-6.2398,-6.2398,-6.2398,-6.2398,-6.2398,-6.2398,-6.2398,-6.2398,-6.2398,-6.2398,-6.2398,-6.2398,-6.2398,-6.2398,-6.2398,-6.2398,-6.2398,-6.2398,-6.2398,-6.2398,-6.2398,-6.2398,-6.2398,-6.2398,-6.2398,-6.2398,-6.2398,-6.2398,-6.2398,-6.2398,-6.2398,-6.2398,-6.2398,-5.3518,-5.3518,-5.3518,-5.3518,-5.3518,-5.3518,-5.3518,-5.3518,-5.3518,-5.3518,-5.3518,-5.3518,-5.3518,-5.3518,-5.3518,-5.3518,-5.3518,-5.3518,-5.3518,0.0,-5.3518,-5.4245,-5.5547,-5.5666,-5.641,-5.7662,-5.7884,-5.7881,-5.7881,-5.7881,-5.7881,-5.7881,-5.7881,-5.7881,-5.7932,-5.8524,-5.8846,-5.8846,-5.8863,-5.8863,-5.8863,-5.9573,-5.9945,-5.9962,-6.0063,-6.0097,-6.0097,-6.0114,-6.0097,-6.0097,-6.0097,-6.0097,-6.0097,-6.0131,-6.0097,-6.0097,-6.0097,-6.0097,-6.0097,-6.0097,-6.0402,-6.1095,-6.1704,-6.1806,-6.1197,-6.1129,-6.14,-6.1992,-6.2009,-6.2059,-6.2076,-6.2144,-6.2195,-6.2212,-6.233,-6.2398,-6.2398,-6.2398,-6.2398,-6.2398,-6.2398,-6.2398,-6.2398,-6.2398,-6.2398,-6.2398,-6.2398,-6.2398,-6.2398,-6.2398,-6.2398,-6.2398,-6.2398,-6.2398,-6.2398,-6.2398,-6.2398,-6.2398,-6.2398,-6.2398,-6.2398,-6.2398,-6.2398,-6.2398,-6.2398,-6.2398,-6.2398,-6.2398,-6.2398,-6.2398,-6.2398,-6.2398,-6.2398,-6.2398,-6.2398,-5.3518,-5.3518,-5.3518,-5.3518,-5.3518,-5.3518,-5.3518,-5.3518,-5.3518,-5.3518,-5.3518,-5.3518,-5.3518,-5.3518,-5.3518,-5.3518,-5.3518,-5.3518,-5.3518,-5.3518,-5.3518,-5.4296,-5.558,-5.5681,-5.6478,-5.7814,-5.7881,-5.7881,-5.7881,-5.7881,-5.7881,-5.7881,-5.7881,-5.8084,-5.849,-5.8846,-5.9218,-5.959,-5.9607,-5.9607,-5.9624,-6.0351,-6.0757,-6.0757,-6.1112,-6.1349,-6.1332,-6.1332,-6.1349,-6.1349,-6.1349,-6.1349,-6.1349,-6.1332,-6.1349,-6.1349,-6.1349,-6.1332,-6.1349,-6.1349,-6.1501,-6.1856,-6.2195,-6.2262,-6.1924,-6.189,-6.2042,-6.2364,-6.2398,-6.2398,-6.2398,-6.2398,-6.2398,-6.2398,-6.2398,-6.2398,-6.2398,-6.2398,-6.2398,-6.2398,-6.2398,-6.2398,-6.2398,-6.2398,-6.2398,-6.2398,-6.2398,-6.2398,-6.2398,-6.2398,-6.2398,-6.2398,-6.2398,-6.2398,-6.2398,-6.2398,-6.2398,-6.2398,-6.2398,-6.2398,-6.2398,-6.2398,-6.2398,-6.2398,-6.2398,-6.2398,-6.2398,-6.2398,-6.2398,-6.2398,-6.2398,-6.2398,-6.2398,-6.2398,-6.2398,-5.3518,-5.3518,-5.3518,-5.3518,-5.3518,-5.3518,-5.3518,-5.3518,-5.3518,-5.3518,-5.3518,-5.3518,-5.3518,-5.3518,-5.3518,-5.3518,-5.3518,-5.3518,-5.3518,-5.3518,-5.3518,-5.4296,-5.5598,-5.5681,-5.6478,-5.7746,-5.7881,-5.7881,-5.7881,-5.7881,-5.7881,-5.7898,-5.8051,-5.844,-5.9015,-5.9353,-5.981,-6.0351,-6.0537,-6.0554,-6.0402,-6.1146,-6.1552,-6.1586,-6.2076,-6.2398,-6.2398,-6.2398,-6.2398,-6.2398,-6.2398,-6.2398,-6.2398,-6.2398,-6.2398,-6.2398,-6.2398,-6.2398,-6.2398,-6.2398,-6.2398,-6.2398,-6.2398,-6.2398,-6.2398,-6.2398,-6.2398,-6.2398,-6.2398,-6.2398,-6.2398,-6.2398,-6.2398,-6.2398,-6.2398,-6.2398,-6.2398,-6.2398,-6.2398,-6.2398,-6.2398,-6.2398,-6.2398,-6.2398,-6.2398,-6.2398,-6.2398,-6.2398,-6.2398,-6.2398,-6.2398,-6.2398,-6.2398,-6.2398,-6.2398,-6.2398,-6.2398,-6.2398,-6.2398,-6.2398,-6.2398,-6.2398,-6.2398,-6.2398,-6.2398,-6.2398,-6.2398,-6.2398,-6.2398,-6.2398,-6.2398,-6.2398,-6.2398,-6.2398,-6.2398,-5.3518,-5.3518,-5.3518,-5.3518,-5.3518,-5.3518,-5.3518,-5.3518,-5.3518,-5.3518,-5.3518,-5.3518,-5.3518,-5.3518,-5.3518,-5.3518,-5.3518,-5.3518,-5.3518,-5.3518,-5.3518,-5.4296,-5.5614,-5.5733,-5.6478,-5.7729,-5.7881,-5.7881,-5.7881,-5.7881,-5.7881,-5.7966,-5.8558,-5.893,-5.9167,-6.0385,-6.1112,-6.1197,-6.1856,-6.1873,-6.1281,-6.1907,-6.2296,-6.2296,-6.2347,-6.2398,-6.2398,-6.2398,-6.2398,-6.2398,-6.2398,-6.2398,-6.2398,-6.2398,-6.2398,-6.2398,-6.2398,-6.2398,-6.2398,-6.2398,-6.2398,-6.2398,-6.2398,-6.2398,-6.2398,-6.2398,-6.2398,-6.2398,-6.2398,-6.2398,-6.2398,-6.2398,-6.2398,-6.2398,-6.2398,-6.2398,-6.2398,-6.2398,-6.2398,-6.2398,-6.2398,-6.2398,-6.2398,-6.2398,-6.2398,-6.2398,-6.2398,-6.2398,-6.2398,-6.2398,-6.2398,-6.2398,-6.2398,-6.2398,-6.2398,-6.2398,-6.2398,-6.2398,-6.2398,-6.2398,-6.2398,-6.2398,-6.2398,-6.2398,-6.2398,-6.2398,-6.2398,-6.2398,-6.2398,-6.2398,-6.2398,-6.2398,-6.2398,-6.2398,-6.2398,-5.3518,-5.3518,-5.3518,-5.3518,-5.3518,-5.3518,-5.3518,-5.3518,-5.3518,-5.3518,-5.3518,-5.3518,-5.3518,-5.3518,-5.3518,-5.3518,-5.3518,-5.3518,-5.3518,-5.3551,-5.3923,-5.4718,-5.5683,-5.619,-5.69,-5.7814,-5.7881,-5.7881,-5.7881,-5.7881,-5.7881,-5.7966,-5.8643,-5.9218,-5.9708,-6.074,-6.1501,-6.1941,-6.2229,-6.2245,-6.2026,-6.2229,-6.2398,-6.2398,-6.2398,-6.2398,-6.2398,-6.2398,-6.2398,-6.2398,-6.2398,-6.2398,-6.2398,-6.2398,-6.2398,-6.2398,-6.2398,-6.2398,-6.2398,-6.2398,-6.2398,-6.2398,-6.2398,-6.2398,-6.2398,-6.2398,-6.2398,-6.2398,-6.2398,-6.2398,-6.2398,-6.2398,-6.2398,-6.2398,-6.2398,-6.2398,-6.2398,-6.2398,-6.2398,-6.2398,-6.2398,-6.2398,-6.2398,-6.2398,-6.2398,-6.2398,-6.2398,-6.2398,-6.2398,-6.2398,-6.2398,-6.2398,-6.2398,-6.2398,-6.2398,-6.2398,-6.2398,-6.2398,-6.2398,-6.2398,-6.2398,-6.2398,-6.2398,-6.2398,-6.2398,-6.2398,-6.2398,-6.2398,-6.2398,-6.2398,-6.2398,-6.2398,-6.2398,-6.2398,-6.2398,-5.3315,-5.3501,-5.3518,-5.3518,-5.3518,-5.3518,-5.3518,-5.3518,-5.3518,-5.3518,-5.3518,-5.3518,-5.3518,-5.3518,-5.3518,-5.3518,-5.3518,-5.3518,-5.3518,-5.3585,-5.4245,-5.4989,-5.575,-5.6461,-5.7171,-5.778,-5.7881,-5.7881,-5.7881,-5.7881,-5.7983,-5.8271,-5.8947,-5.9674,-6.0436,-6.1197,-6.1856,-6.233,-6.2398,-6.2398,-6.2398,-6.2398,-6.2398,-6.2398,-6.2398,-6.2398,-6.2398,-6.2398,-6.2398,-6.2398,-6.2398,-6.2398,-6.2398,-6.2398,-6.2398,-6.2398,-6.2398,-6.2398,-6.2398,-6.2398,-6.2398,-6.2398,-6.2398,-6.2398,-6.2398,-6.2398,-6.2398,-6.2398,-6.2398,-6.2398,-6.2398,-6.2398,-6.2398,-6.2398,-6.2398,-6.2398,-6.2398,-6.2398,-6.2398,-6.2398,-6.2398,-6.2398,-6.2398,-6.2398,-6.2398,-6.2398,-6.2398,-6.2398,-6.2398,-6.2398,-6.2398,-6.2398,-6.2398,-6.2398,-6.2398,-6.2398,-6.2398,-6.2398,-6.2398,-6.2398,-6.2398,-6.2398,-6.2398,-6.2398,-6.2398,-6.2398,-6.2398,-6.2398,-6.2398,-6.2398,-6.2398,-6.2398,-6.2398,-6.2398,-6.2398,-5.2807,-5.3467,-5.3518,-5.3518,-5.3518,-5.3518,-5.3518,-5.3518,-5.3518,-5.3518,-5.3518,-5.3518,-5.3518,-5.3518,-5.3518,-5.3518,-5.3518,-5.3518,-5.3518,-5.3585,-5.4296,-5.5006,-5.5733,-5.6461,-5.7188,-5.7848,-5.7881,-5.7881,-5.7881,-5.7881,-5.8254,-5.8947,-5.9641,-6.0419,-6.118,-6.189,-6.2347,-6.2381,-6.2398,-6.2398,-6.2398,-6.2398,-6.2398,-6.2398,-6.2398,-6.2398,-6.2398,-6.2398,-6.2398,-6.2398,-6.2398,-6.2398,-6.2398,-6.2398,-6.2398,-6.2398,-6.2398,-6.2398,-6.2398,-6.2398,-6.2398,-6.2398,-6.2398,-6.2398,-6.2398,-6.2398,-6.2398,-6.2398,-6.2398,-6.2398,-6.2398,-6.2398,-6.2398,-6.2398,-6.2398,-6.2398,-6.2398,-6.2398,-6.2398,-6.2398,-6.2398,-6.2398,-6.2398,-6.2398,-6.2398,-6.2398,-6.2398,-6.2398,-6.2398,-6.2398,-6.2398,-6.2398,-6.2398,-6.2398,-6.2398,-6.2398,-6.2398,-6.2398,-6.2398,-6.2398,-6.2398,-6.2398,-6.2398,-6.2398,-6.2398,-6.2398,-6.2398,-6.2398,-6.2398,-6.2398,-6.2398,-6.2398,-6.2398,-6.2398,-6.2398,-5.279,-5.3501,-5.3518,-5.3518,-5.3518,-5.3518,-5.3518,-5.3518,-5.3518,-5.3518,-5.3518,-5.3518,-5.3518,-5.3518,-5.3518,-5.3518,-5.3518,-5.3518,-5.3518,-5.3653,-5.4752,-5.5446,-5.5801,-5.6917,-5.7594,-5.7831,-5.7881,-5.7881,-5.7881,-5.7881,-5.8271,-5.9015,-5.9742,-6.0503,-6.1298,-6.2042,-6.2398,-6.2398,-6.2398,-6.2398,-6.2398,-6.2398,-6.2398,-6.2398,-6.2398,-6.2398,-6.2398,-6.2398,-6.2398,-6.2398,-6.2398,-6.2398,-6.2398,-6.2398,-6.2398,-6.2398,-6.2398,-6.2398,-6.2398,-6.2398,-6.2398,-6.2398,-6.2398,-6.2398,-6.2398,-6.2398,-6.2398,-6.2398,-6.2398,-6.2398,-6.2398,-6.2398,-6.2398,-6.2398,-6.2398,-6.2398,-6.2398,-6.2398,-6.2398,-6.2398,-6.2398,-6.2398,-6.2398,-6.2398,-6.2398,-6.2398,-6.2398,-6.2398,-6.2398,-6.2398,-6.2398,-6.2398,-6.2398,-6.2398,-6.2398,-6.2398,-6.2398,-6.2398,-6.2398,-6.2398,-6.2398,-6.2398,-6.2398,-6.2398,-6.2398,-6.2398,-6.2398,-6.2398,-6.2398,-6.2398,-6.2398,-6.2398,-6.2398,-6.2398,-6.2398,-5.2604,-5.3112,-5.3399,-5.3518,-5.3518,-5.3518,-5.3518,-5.3518,-5.3518,-5.3518,-5.3518,-5.3518,-5.3518,-5.3518,-5.3518,-5.3518,-5.3518,-5.3518,-5.3518,-5.3653,-5.5023,-5.5681,-5.5953,-5.7205,-5.7881,-5.7881,-5.7881,-5.7881,-5.7881,-5.7881,-5.8406,-5.937,-5.9877,-6.0622,-6.1569,-6.2161,-6.2398,-6.2398,-6.2398,-6.2398,-6.2398,-6.2398,-6.2398,-6.2398,-6.2398,-6.2398,-6.2398,-6.2398,-6.2398,-6.2398,-6.2398,-6.2398,-6.2398,-6.2398,-6.2398,-6.2398,-6.2398,-6.2398,-6.2398,-6.2398,-6.2398,-6.2398,-6.2398,-6.2398,-6.2398,-6.2398,-6.2398,-6.2398,-6.2398,-6.2398,-6.2398,-6.2398,-6.2398,-6.2398,-6.2398,-6.2398,-6.2398,-6.2398,-6.2398,-6.2398,-6.2398,-6.2398,-6.2398,-6.2398,-6.2398,-6.2398,-6.2398,-6.2398,-6.2398,-6.2398,-6.2398,-6.2398,-6.2398,-6.2398,-6.2398,-6.2398,-6.2398,-6.2398,-6.2398,-6.2398,-6.2398,-6.2398,-6.2398,-6.2398,-6.2398,-6.2398,-6.2398,-6.2398,-6.2398,-6.2398,-6.2398,-6.2398,-6.2398,-6.2398,-6.2398,-5.2283,-5.2469,-5.3179,-5.3518,-5.3518,-5.3518,-5.3518,-5.3518,-5.3518,-5.3518,-5.3518,-5.3518,-5.3518,-5.3518,-5.3518,-5.3518,-5.3518,-5.3518,-5.3518,-5.3653,-5.5023,-5.5716,-5.5818,-5.7205,-5.7881,-5.7881,-5.7881,-5.7881,-5.7881,-5.7915,-5.8592,-5.9827,-6.0047,-6.0825,-6.233,-6.2364,-6.2398,-6.2398,-6.2398,-6.2398,-6.2398,-6.2398,-6.2398,-6.2398,-6.2398,-6.2398,-6.2398,-6.2398,-6.2398,-6.2398,-6.2398,-6.2398,-6.2398,-6.2398,-6.2398,-6.2398,-6.2398,-6.2398,-6.2398,-6.2398,-6.2398,-6.2398,-6.2398,-6.2398,-6.2398,-6.2398,-6.2398,-6.2398,-6.2398,-6.2398,-6.2398,-6.2398,-6.2398,-6.2398,-6.2398,-6.2398,-6.2398,-6.2398,-6.2398,-6.2398,-6.2398,-6.2398,-6.2398,-6.2398,-6.2398,-6.2398,-6.2398,-6.2398,-6.2398,-6.2398,-6.2398,-6.2398,-6.2398,-6.2398,-6.2398,-6.2398,-6.2398,-6.2398,-6.2398,-6.2398,-6.2398,-6.2398,-6.2398,-6.2398,-6.2398,-6.2398,-6.2398,-6.2398,-6.2398,-6.2398,-6.2398,-6.2398,-6.2398,-6.2398,-6.2398,-5.1843,-5.2384,-5.3162,-5.3518,-5.3518,-5.3518,-5.3518,-5.3518,-5.3518,-5.3518,-5.3518,-5.3518,-5.3518,-5.3518,-5.3518,-5.3518,-5.3518,-5.3518,-5.3518,-5.3771,-5.5023,-5.5681,-5.5987,-5.7205,-5.7881,-5.7881,-5.7881,-5.7881,-5.7881,-5.7881,-5.8643,-5.9827,-6.0097,-6.0892,-6.2296,-6.2398,-6.2398,-6.2398,-6.2398,-6.2398,-6.2398,-6.2398,-6.2398,-6.2398,-6.2398,-6.2398,-6.2398,-6.2398,-6.2398,-6.2398,-6.2398,-6.2398,-6.2398,-6.2398,-6.2398,-6.2398,-6.2398,-6.2398,-6.2398,-6.2398,-6.2398,-6.2398,-6.2398,-6.2398,-6.2398,-6.2398,-6.2398,-6.2398,-6.2398,-6.2398,-6.2398,-6.2398,-6.2398,-6.2398,-6.2398,-6.2398,-6.2398,-6.2398,-6.2398,-6.2398,-6.2398,-6.2398,-6.2398,-6.2398,-6.2398,-6.2398,-6.2398,-6.2398,-6.2398,-6.2398,-6.2398,-6.2398,-6.2398,-6.2398,-6.2398,-6.2398,-6.2398,-6.2398,-6.2398,-6.2398,-6.2398,-6.2398,-6.2398,-6.2398,-6.2398,-6.2398,-6.2398,-6.2398,-6.2398,-6.2398,-6.2398,-6.2398,-6.2398,-6.2398,-6.2398,-5.1488,-5.1995,-5.3061,-5.3518,-5.3518,-5.3518,-5.3518,-5.3518,-5.3518,-5.3518,-5.3518,-5.3518,-5.3518,-5.3518,-5.3518,-5.3518,-5.3518,-5.3518,-5.3518,-5.3737,-5.504,-5.5664,-5.5902,-5.7205,-5.7881,-5.7881,-5.7881,-5.7881,-5.7881,-5.7932,-5.8643,-5.9877,-6.0097,-6.0858,-6.2245,-6.2398,-6.2398,-6.2398,-6.2398,-6.2398,-6.2398,-6.2398,-6.2398,-6.2398,-6.2398,-6.2398,-6.2398,-6.2398,-6.2398,-6.2398,-6.2398,-6.2398,-6.2398,-6.2398,-6.2398,-6.2398,-6.2398,-6.2398,-6.2398,-6.2398,-6.2398,-6.2398,-6.2398,-6.2398,-6.2398,-6.2398,-6.2398,-6.2398,-6.2398,-6.2398,-6.2398,-6.2398,-6.2398,-6.2398,-6.2398,-6.2398,-6.2398,-6.2398,-6.2398,-6.2398,-6.2398,-6.2398,-6.2398,-6.2398,-6.2398,-6.2398,-6.2398,-6.2398,-6.2398,-6.2398,-6.2398,-6.2398,-6.2398,-6.2398,-6.2398,-6.2398,-6.2398,-6.2398,-6.2398,-6.2398,-6.2398,-6.2398,-6.2398,-6.2398,-6.2398,-6.2398,-6.2398,-6.2398,-6.2398,-6.2398,-6.2398,-6.2398,-6.2398,-6.2398,-6.2398,-5.1234,-5.1403,-5.2858,-5.3518,-5.3518,-5.3518,-5.3518,-5.3518,-5.3518,-5.3518,-5.3518,-5.3518,-5.3518,-5.3518,-5.3518,-5.3518,-5.3518,-5.3518,-5.3518,-5.3907,-5.4989,-5.5766,-5.6258,-5.7357,-5.7848,-5.7881,-5.7881,-5.7881,-5.7881,-5.7881,-5.8609,-5.981,-6.008,-6.0808,-6.1992,-6.233,-6.2398,-6.2398,-6.2398,-6.2398,-6.2398,-6.2398,-6.2398,-6.2398,-6.2398,-6.2398,-6.2398,-6.2398,-6.2398,-6.2398,-6.2398,-6.2398,-6.2398,-6.2398,-6.2398,-6.2398,-6.2398,-6.2398,-6.2398,-6.2398,-6.2398,-6.2398,-6.2398,-6.2398,-6.2398,-6.2398,-6.2398,-6.2398,-6.2398,-6.2398,-6.2398,-6.2398,-6.2398,-6.2398,-6.2398,-6.2398,-6.2398,-6.2398,-6.2398,-6.2398,-6.2398,-6.2398,-6.2398,-6.2398,-6.2398,-6.2398,-6.2398,-6.2398,-6.2398,-6.2398,-6.2398,-6.2398,-6.2398,-6.2398,-6.2398,-6.2398,-6.2398,-6.2398,-6.2398,-6.2398,-6.2398,-6.2398,-6.2398,-6.2398,-6.2398,-6.2398,-6.2398,-6.2398,-6.2398,-6.2398,-6.2398,-6.2398,-6.2398,-6.2398,-6.2398,-5.1234,-5.1354,-5.2858,-5.3518,-5.3518,-5.3518,-5.3518,-5.3518,-5.3518,-5.3518,-5.3518,-5.3518,-5.3518,-5.3518,-5.3518,-5.3518,-5.3518,-5.3518,-5.3518,-5.3737,-5.5023,-5.6342,-5.7154,-5.7645,-5.7881,-5.7881,-5.7881,-5.7881,-5.7881,-5.7881,-5.8406,-5.9285,-5.9877,-6.0571,-6.1501,-6.2127,-6.2381,-6.2398,-6.2398,-6.2398,-6.2398,-6.2398,-6.2398,-6.2398,-6.2398,-6.2398,-6.2398,-6.2398,-6.2398,-6.2398,-6.2398,-6.2398,-6.2398,-6.2398,-6.2398,-6.2398,-6.2398,-6.2398,-6.2398,-6.2398,-6.2398,-6.2398,-6.2398,-6.2398,-6.2398,-6.2398,-6.2398,-6.2398,-6.2398,-6.2398,-6.2398,-6.2398,-6.2398,-6.2398,-6.2398,-6.2398,-6.2398,-6.2398,-6.2398,-6.2398,-6.2398,-6.2398,-6.2398,-6.2398,-6.2398,-6.2398,-6.2398,-6.2398,-6.2398,-6.2398,-6.2398,-6.2398,-6.2398,-6.2398,-6.2398,-6.2398,-6.2398,-6.2398,-6.2398,-6.2398,-6.2398,-6.2398,-6.2398,-6.2398,-6.2398,-6.2398,-6.2398,-6.2398,-6.2398,-6.2398,-6.2398,-6.2398,-6.2398,-6.2398,-6.2398,-5.1234,-5.1352,-5.2858,-5.3518,-5.3518,-5.3518,-5.3518,-5.3518,-5.3518,-5.3518,-5.3518,-5.3518,-5.3518,-5.3518,-5.3518,-5.3518,-5.3518,-5.3518,-5.3518,-5.3754,-5.504,-5.6461,-5.756,-5.7881,-5.7881,-5.7881,-5.7881,-5.7881,-5.7881,-5.7881,-5.8304,-5.9049,-5.9742,-6.052,-6.1332,-6.2009,-6.2398,-6.2398,-6.2398,-6.2398,-6.2398,-6.2398,-6.2398,-6.2398,-6.2398,-6.2398,-6.2398,-6.2398,-6.2398,-6.2398,-6.2398,-6.2398,-6.2398,-6.2398,-6.2398,-6.2398,-6.2398,-6.2398,-6.2398,-6.2398,-6.2398,-6.2398,-6.2398,-6.2398,-6.2398,-6.2398,-6.2398,-6.2398,-6.2398,-6.2398,-6.2398,-6.2398,-6.2398,-6.2398,-6.2398,-6.2398,-6.2398,-6.2398,-6.2398,-6.2398,-6.2398,-6.2398,-6.2398,-6.2398,-6.2398,-6.2398,-6.2398,-6.2398,-6.2398,-6.2398,-6.2398,-6.2398,-6.2398,-6.2398,-6.2398,-6.2398,-6.2398,-6.2398,-6.2398,-6.2398,-6.2398,-6.2398,-6.2398,-6.2398,-6.2398,-6.2398,-6.2398,-6.2398,-6.2398,-6.2398,-6.2398,-6.2398,-6.2398,-6.2398,-6.2398,-5.1234,-5.1303,-5.2858,-5.3518,-5.3518,-5.3518,-5.3518,-5.3518,-5.3518,-5.3518,-5.3518,-5.3518,-5.3518,-5.3518,-5.3518,-5.3518,-5.3518,-5.3518,-5.3619,-5.4059,-5.5108,-5.6444,-5.7526,-5.7831,-5.7865,-5.7881,-5.7881,-5.7881,-5.7881,-5.7881,-5.8203,-5.8812,-5.9539,-6.0351,-6.1028,-6.1839,-6.2279,-6.2398,-6.2398,-6.2398,-6.2398,-6.2398,-6.2398,-6.2398,-6.2398,-6.2398,-6.2398,-6.2398,-6.2398,-6.2398,-6.2398,-6.2398,-6.2398,-6.2398,-6.2398,-6.2398,-6.2398,-6.2398,-6.2398,-6.2398,-6.2398,-6.2398,-6.2398,-6.2398,-6.2398,-6.2398,-6.2398,-6.2398,-6.2398,-6.2398,-6.2398,-6.2398,-6.2398,-6.2398,-6.2398,-6.2398,-6.2398,-6.2398,-6.2398,-6.2398,-6.2398,-6.2398,-6.2398,-6.2398,-6.2398,-6.2398,-6.2398,-6.2398,-6.2398,-6.2398,-6.2398,-6.2398,-6.2398,-6.2398,-6.2398,-6.2398,-6.2398,-6.2398,-6.2398,-6.2398,-6.2398,-6.2398,-6.2398,-6.2398,-6.2398,-6.2398,-6.2398,-6.2398,-6.2398,-6.2398,-6.2398,-6.2398,-6.2398,-6.2398,-6.2398,-5.1234,-5.1352,-5.2858,-5.3518,-5.3518,-5.3518,-5.3518,-5.3518,-5.3518,-5.3518,-5.3518,-5.3518,-5.3518,-5.3518,-5.3518,-5.3518,-5.3518,-5.3534,-5.3788,-5.4465,-5.526,-5.6173,-5.707,-5.7594,-5.7865,-5.7881,-5.7881,-5.7881,-5.7881,-5.7898,-5.7949,-5.822,-5.8981,-5.9624,-6.0368,-6.1214,-6.1856,-6.2262,-6.2381,-6.2398,-6.2398,-6.2398,-6.2398,-6.2398,-6.2398,-6.2398,-6.2398,-6.2398,-6.2398,-6.2398,-6.2398,-6.2398,-6.2398,-6.2398,-6.2398,-6.2398,-6.2398,-6.2398,-6.2398,-6.2398,-6.2398,-6.2398,-6.2398,-6.2398,-6.2398,-6.2398,-6.2398,-6.2398,-6.2398,-6.2398,-6.2398,-6.2398,-6.2398,-6.2398,-6.2398,-6.2398,-6.2398,-6.2398,-6.2398,-6.2398,-6.2398,-6.2398,-6.2398,-6.2398,-6.2398,-6.2398,-6.2398,-6.2398,-6.2398,-6.2398,-6.2398,-6.2398,-6.2398,-6.2398,-6.2398,-6.2398,-6.2398,-6.2398,-6.2398,-6.2398,-6.2398,-6.2398,-6.2398,-6.2398,-6.2398,-6.2398,-6.2398,-6.2398,-6.2398,-6.2398,-6.2398,-6.2398,-6.2398,-6.2398,-6.2398,-5.0891,-5.1354,-5.2858,-5.3518,-5.3518,-5.3518,-5.3518,-5.3518,-5.3518,-5.3518,-5.3518,-5.3518,-5.3518,-5.3518,-5.3518,-5.3518,-5.3518,-5.3518,-5.389,-5.46,-5.5361,-5.6105,-5.6833,-5.7476,-5.7881,-5.7881,-5.7881,-5.7881,-5.7881,-5.7881,-5.7881,-5.7949,-5.8643,-5.9184,-5.9742,-6.0706,-6.1467,-6.1856,-6.2229,-6.2398,-6.2398,-6.2398,-6.2398,-6.2398,-6.2398,-6.2398,-6.2398,-6.2398,-6.2398,-6.2398,-6.2398,-6.2398,-6.2398,-6.2398,-6.2398,-6.2398,-6.2398,-6.2398,-6.2398,-6.2398,-6.2398,-6.2398,-6.2398,-6.2398,-6.2398,-6.2398,-6.2398,-6.2398,-6.2398,-6.2398,-6.2398,-6.2398,-6.2398,-6.2398,-6.2398,-6.2398,-6.2398,-6.2398,-6.2398,-6.2398,-6.2398,-6.2398,-6.2398,-6.2398,-6.2398,-6.2398,-6.2398,-6.2398,-6.2398,-6.2398,-6.2398,-6.2398,-6.2398,-6.2398,-6.2398,-6.2398,-6.2398,-6.2398,-6.2398,-6.2398,-6.2398,-6.2398,-6.2398,-6.2398,-6.2398,-6.2398,-6.2398,-6.2398,-6.2398,-6.2398,-6.2398,-6.2398,-6.2398,-6.2398,-6.2398,-5.0409,-5.1325,-5.2724,-5.3382,-5.3518,-5.3518,-5.3518,-5.3518,-5.3518,-5.3518,-5.3518,-5.3518,-5.3518,-5.3518,-5.3518,-5.3518,-5.3518,-5.3534,-5.3856,-5.4346,-5.5057,-5.5801,-5.6545,-5.7205,-5.7729,-5.7848,-5.7881,-5.7881,-5.7881,-5.7881,-5.7881,-5.7983,-5.8457,-5.8879,-5.9302,-6.0317,-6.118,-6.1434,-6.2059,-6.2398,-6.2398,-6.2398,-6.2398,-6.2398,-6.2398,-6.2398,-6.2398,-6.2398,-6.2398,-6.2398,-6.2398,-6.2398,-6.2398,-6.2398,-6.2398,-6.2398,-6.2398,-6.2398,-6.2398,-6.2398,-6.2398,-6.2398,-6.2398,-6.2398,-6.2398,-6.2398,-6.2398,-6.2398,-6.2398,-6.2398,-6.2398,-6.2398,-6.2398,-6.2398,-6.2398,-6.2398,-6.2398,-6.2398,-6.2398,-6.2398,-6.2398,-6.2398,-6.2398,-6.2398,-6.2398,-6.2398,-6.2398,-6.2398,-6.2398,-6.2398,-6.2398,-6.2398,-6.2398,-6.2398,-6.2398,-6.2398,-6.2398,-6.2398,-6.2398,-6.2398,-6.2398,-6.2398,-6.2398,-6.2398,-6.2398,-6.2398,-6.2398,-6.2398,-6.2398,-6.2398,-6.2398,-6.2398,-6.2398,-6.2398,-6.2398,-4.9899,-5.1205,-5.2119,-5.2868,-5.3433,-5.3518,-5.3518,-5.3518,-5.3518,-5.3518,-5.3518,-5.3518,-5.3518,-5.3518,-5.3518,-5.3518,-5.3518,-5.3534,-5.3602,-5.389,-5.4532,-5.526,-5.6038,-5.6782,-5.734,-5.7746,-5.7881,-5.7881,-5.7881,-5.7881,-5.7881,-5.7915,-5.8051,-5.8372,-5.9015,-5.9877,-6.0605,-6.1078,-6.1823,-6.2262,-6.2279,-6.2364,-6.2398,-6.2398,-6.2398,-6.2398,-6.2398,-6.2398,-6.2398,-6.2398,-6.2398,-6.2398,-6.2398,-6.2398,-6.2398,-6.2398,-6.2398,-6.2398,-6.2398,-6.2398,-6.2398,-6.2398,-6.2398,-6.2398,-6.2398,-6.2398,-6.2398,-6.2398,-6.2398,-6.2398,-6.2398,-6.2398,-6.2398,-6.2398,-6.2398,-6.2398,-6.2398,-6.2398,-6.2398,-6.2398,-6.2398,-6.2398,-6.2398,-6.2398,-6.2398,-6.2398,-6.2398,-6.2398,-6.2398,-6.2398,-6.2398,-6.2398,-6.2398,-6.2398,-6.2398,-6.2398,-6.2398,-6.2398,-6.2398,-6.2398,-6.2398,-6.2398,-6.2398,-6.2398,-6.2398,-6.2398,-6.2398,-6.2398,-6.2398,-6.2398,-6.2398,-6.2398,-6.2398,-6.2398,-6.2398,-4.9176,-5.0579,-5.1798,-5.2537,-5.2903,-5.3365,-5.3518,-5.3518,-5.3518,-5.3518,-5.3518,-5.3518,-5.3518,-5.3518,-5.3518,-5.3518,-5.3518,-5.3518,-5.3518,-5.367,-5.4262,-5.4989,-5.5681,-5.6444,-5.7188,-5.7695,-5.7881,-5.7881,-5.7881,-5.7881,-5.7881,-5.7881,-5.7881,-5.8084,-5.8507,-5.915,-5.9708,-6.0334,-6.1197,-6.1839,-6.189,-6.2144,-6.2381,-6.2398,-6.2398,-6.2398,-6.2398,-6.2398,-6.2398,-6.2398,-6.2398,-6.2398,-6.2398,-6.2398,-6.2398,-6.2398,-6.2398,-6.2398,-6.2398,-6.2398,-6.2398,-6.2398,-6.2398,-6.2398,-6.2398,-6.2398,-6.2398,-6.2398,-6.2398,-6.2398,-6.2398,-6.2398,-6.2398,-6.2398,-6.2398,-6.2398,-6.2398,-6.2398,-6.2398,-6.2398,-6.2398,-6.2398,-6.2398,-6.2398,-6.2398,-6.2398,-6.2398,-6.2398,-6.2398,-6.2398,-6.2398,-6.2398,-6.2398,-6.2398,-6.2398,-6.2398,-6.2398,-6.2398,-6.2398,-6.2398,-6.2398,-6.2398,-6.2398,-6.2398,-6.2398,-6.2398,-6.2398,-6.2398,-6.2398,-6.2398,-6.2398,-6.2398,-6.2398,-6.2398,-6.2398,-4.8491,-5.0021,-5.1288,-5.1931,-5.2164,-5.2712,-5.2972,-5.3007,-5.2972,-5.3058,-5.3246,-5.3246,-5.3314,-5.3467,-5.3518,-5.3518,-5.3518,-5.3518,-5.3518,-5.3619,-5.4025,-5.4735,-5.5497,-5.6241,-5.6884,-5.7461,-5.7848,-5.7865,-5.7881,-5.7881,-5.7881,-5.7881,-5.7881,-5.7881,-5.8084,-5.8761,-5.8913,-5.9438,-6.0283,-6.1061,-6.1434,-6.1975,-6.2398,-6.2398,-6.2398,-6.2398,-6.2398,-6.2398,-6.2398,-6.2398,-6.2398,-6.2398,-6.2398,-6.2398,-6.2398,-6.2398,-6.2398,-6.2398,-6.2398,-6.2398,-6.2398,-6.2398,-6.2398,-6.2398,-6.2398,-6.2398,-6.2398,-6.2398,-6.2398,-6.2398,-6.2398,-6.2398,-6.2398,-6.2398,-6.2398,-6.2398,-6.2398,-6.2398,-6.2398,-6.2398,-6.2398,-6.2398,-6.2398,-6.2398,-6.2398,-6.2398,-6.2398,-6.2398,-6.2398,-6.2398,-6.2398,-6.2398,-6.2398,-6.2398,-6.2398,-6.2398,-6.2398,-6.2398,-6.2398,-6.2398,-6.2398,-6.2398,-6.2398,-6.2398,-6.2398,-6.2398,-6.2398,-6.2398,-6.2398,-6.2398,-6.2398,-6.2398,-6.2398,-6.2398,-6.2398,-4.7973,-4.9899,-5.0096,-5.0592,-5.122,-5.1406,-5.1406,-5.1443,-5.1516,-5.1789,-5.2449,-5.252,-5.2868,-5.3348,-5.3518,-5.3518,-5.3518,-5.3518,-5.3518,-5.3551,-5.3704,-5.4143,-5.4786,-5.548,-5.6275,-5.7004,-5.7613,-5.7848,-5.7881,-5.7881,-5.7881,-5.7881,-5.7881,-5.7881,-5.7966,-5.8507,-5.8981,-5.915,-5.9827,-6.0588,-6.1298,-6.1975,-6.2279,-6.2398,-6.2398,-6.2398,-6.2398,-6.2398,-6.2398,-6.2398,-6.2398,-6.2398,-6.2398,-6.2398,-6.2398,-6.2398,-6.2398,-6.2398,-6.2398,-6.2398,-6.2398,-6.2398,-6.2398,-6.2398,-6.2398,-6.2398,-6.2398,-6.2398,-6.2398,-6.2398,-6.2398,-6.2398,-6.2398,-6.2398,-6.2398,-6.2398,-6.2398,-6.2398,-6.2398,-6.2398,-6.2398,-6.2398,-6.2398,-6.2398,-6.2398,-6.2398,-6.2398,-6.2398,-6.2398,-6.2398,-6.2398,-6.2398,-6.2398,-6.2398,-6.2398,-6.2398,-6.2398,-6.2398,-6.2398,-6.2398,-6.2398,-6.2398,-6.2398,-6.2398,-6.2398,-6.2398,-6.2398,-6.2398,-6.2398,-6.2398,-6.2398,-6.2398,-6.2398,-6.2398,-6.2381,-4.797,-4.9188,-4.9686,-5.0104,-5.0477,-5.0881,-5.1091,-5.1091,-5.1091,-5.1311,-5.168,-5.2164,-5.2764,-5.3331,-5.3518,-5.3518,-5.3518,-5.3518,-5.3518,-5.3518,-5.3568,-5.389,-5.4515,-5.4989,-5.5616,-5.6632,-5.7137,-5.7509,-5.7695,-5.7881,-5.7881,-5.7881,-5.7881,-5.7881,-5.7881,-5.8203,-5.8338,-5.8558,-5.915,-6.0097,-6.1044,-6.162,-6.1975,-6.2364,-6.2381,-6.2398,-6.2398,-6.2398,-6.2398,-6.2398,-6.2398,-6.2398,-6.2398,-6.2398,-6.2398,-6.2398,-6.2398,-6.2398,-6.2398,-6.2398,-6.2398,-6.2398,-6.2398,-6.2398,-6.2398,-6.2398,-6.2398,-6.2398,-6.2398,-6.2398,-6.2398,-6.2398,-6.2398,-6.2398,-6.2398,-6.2398,-6.2398,-6.2398,-6.2398,-6.2398,-6.2398,-6.2398,-6.2398,-6.2398,-6.2398,-6.2398,-6.2398,-6.2398,-6.2398,-6.2398,-6.2398,-6.2398,-6.2398,-6.2398,-6.2398,-6.2398,-6.2398,-6.2398,-6.2398,-6.2398,-6.2398,-6.2398,-6.2398,-6.2398,-6.2398,-6.2398,-6.2398,-6.2398,-6.2398,-6.2398,-6.2398,-6.2398,-6.2398,-6.2347,-6.2262,-4.8158,-4.8646,-4.9325,-4.955,-4.963,-5.0245,-5.0445,-5.0445,-5.0422,-5.0576,-5.1032,-5.1806,-5.2642,-5.3161,-5.3365,-5.3518,-5.3518,-5.3518,-5.3518,-5.3518,-5.3568,-5.3805,-5.4194,-5.4532,-5.5311,-5.6513,-5.6765,-5.7239,-5.7695,-5.7881,-5.7881,-5.7881,-5.7881,-5.7881,-5.7881,-5.7932,-5.7983,-5.8051,-5.8727,-5.9607,-6.0503,-6.1112,-6.1569,-6.1975,-6.2262,-6.2398,-6.2398,-6.2398,-6.2398,-6.2398,-6.2398,-6.2398,-6.2398,-6.2398,-6.2398,-6.2398,-6.2398,-6.2398,-6.2398,-6.2398,-6.2398,-6.2398,-6.2398,-6.2398,-6.2398,-6.2398,-6.2398,-6.2398,-6.2398,-6.2398,-6.2398,-6.2398,-6.2398,-6.2398,-6.2398,-6.2398,-6.2398,-6.2398,-6.2398,-6.2398,-6.2398,-6.2398,-6.2398,-6.2398,-6.2398,-6.2398,-6.2398,-6.2398,-6.2398,-6.2398,-6.2398,-6.2398,-6.2398,-6.2398,-6.2398,-6.2398,-6.2398,-6.2398,-6.2398,-6.2398,-6.2398,-6.2398,-6.2398,-6.2398,-6.2398,-6.2398,-6.2398,-6.2398,-6.2398,-6.2398,-6.2398,-6.2398,-6.2381,-6.2279,-6.2026,-4.8573,-4.862,-4.8687,-4.8728,-4.8744,-4.8713,-4.8795,-4.8984,-4.8877,-4.9405,-5.0245,-5.1438,-5.2148,-5.2485,-5.2938,-5.323,-5.3382,-5.3467,-5.3399,-5.3399,-5.3534,-5.3585,-5.3856,-5.4279,-5.4905,-5.5754,-5.6276,-5.7053,-5.7712,-5.7831,-5.7865,-5.7881,-5.7881,-5.7881,-5.7881,-5.7881,-5.7881,-5.8,-5.8541,-5.893,-5.9691,-6.0385,-6.1197,-6.1518,-6.2009,-6.2381,-6.2398,-6.2398,-6.2398,-6.2398,-6.2398,-6.2398,-6.2398,-6.2398,-6.2398,-6.2398,-6.2398,-6.2398,-6.2398,-6.2398,-6.2398,-6.2398,-6.2398,-6.2398,-6.2398,-6.2398,-6.2398,-6.2398,-6.2398,-6.2398,-6.2398,-6.2398,-6.2398,-6.2398,-6.2398,-6.2398,-6.2398,-6.2398,-6.2398,-6.2398,-6.2398,-6.2398,-6.2398,-6.2398,-6.2398,-6.2398,-6.2398,-6.2398,-6.2398,-6.2398,-6.2398,-6.2398,-6.2398,-6.2398,-6.2398,-6.2398,-6.2398,-6.2398,-6.2398,-6.2398,-6.2398,-6.2398,-6.2398,-6.2398,-6.2398,-6.2398,-6.2398,-6.2398,-6.2398,-6.2398,-6.2381,-6.233,-6.1992,-6.167,-6.1434,-4.8604,-4.8604,-4.8604,-4.8604,-4.8604,-4.8604,-4.8604,-4.8604,-4.8604,-4.9081,-4.9908,-5.057,-5.1086,-5.157,-5.1789,-5.2023,-5.2095,-5.259,-5.2677,-5.2989,-5.3178,-5.3433,-5.3653,-5.3805,-5.4313,-5.5075,-5.5767,-5.6511,-5.7154,-5.7645,-5.7848,-5.7881,-5.7881,-5.7881,-5.7881,-5.7881,-5.7881,-5.7932,-5.8203,-5.849,-5.9116,-5.9488,-6.0334,-6.1332,-6.1467,-6.1975,-6.2296,-6.2381,-6.2398,-6.2398,-6.2398,-6.2398,-6.2398,-6.2398,-6.2398,-6.2398,-6.2398,-6.2398,-6.2398,-6.2398,-6.2398,-6.2398,-6.2398,-6.2398,-6.2398,-6.2398,-6.2398,-6.2398,-6.2398,-6.2398,-6.2398,-6.2398,-6.2398,-6.2398,-6.2398,-6.2398,-6.2398,-6.2398,-6.2398,-6.2398,-6.2398,-6.2398,-6.2398,-6.2398,-6.2398,-6.2398,-6.2398,-6.2398,-6.2398,-6.2398,-6.2398,-6.2398,-6.2398,-6.2398,-6.2398,-6.2398,-6.2398,-6.2398,-6.2398,-6.2398,-6.2398,-6.2398,-6.2398,-6.2398,-6.2398,-6.2398,-6.2398,-6.2398,-6.2398,-6.2398,-6.2296,-6.2178,-6.1721,-6.1095,-6.0689,-4.8604,-4.8604,-4.8604,-4.8604,-4.8604,-4.8604,-4.8604,-4.8604,-4.8604,-4.8893,-4.951,-4.9765,-5.0182,-5.0691,-5.107,-5.1182,-5.1369,-5.1696,-5.1878,-5.2219,-5.2642,-5.3058,-5.3195,-5.3483,-5.3991,-5.4617,-5.5361,-5.6104,-5.6894,-5.7541,-5.7814,-5.7881,-5.7881,-5.7881,-5.7881,-5.7881,-5.7881,-5.7881,-5.7932,-5.8084,-5.8643,-5.8998,-5.9353,-6.0503,-6.0757,-6.1315,-6.1772,-6.1975,-6.2161,-6.2296,-6.2398,-6.2398,-6.2398,-6.2398,-6.2398,-6.2398,-6.2398,-6.2398,-6.2398,-6.2398,-6.2398,-6.2398,-6.2398,-6.2398,-6.2398,-6.2398,-6.2398,-6.2398,-6.2398,-6.2398,-6.2398,-6.2398,-6.2398,-6.2398,-6.2398,-6.2398,-6.2398,-6.2398,-6.2398,-6.2398,-6.2398,-6.2398,-6.2398,-6.2398,-6.2398,-6.2398,-6.2398,-6.2398,-6.2398,-6.2398,-6.2398,-6.2398,-6.2398,-6.2398,-6.2398,-6.2398,-6.2398,-6.2398,-6.2398,-6.2398,-6.2398,-6.2398,-6.2398,-6.2398,-6.2398,-6.2398,-6.2381,-6.2364,-6.2381,-6.2398,-6.211,-6.167,-6.1011,-6.0351,-5.9844,-4.8604,-4.8604,-4.8604,-4.8604,-4.8604,-4.8604,-4.8604,-4.8604,-4.8604,-4.8646,-4.8836,-4.947,-4.9789,-5.0049,-5.0461,-5.0653,-5.0751,-5.0995,-5.1107,-5.1294,-5.1915,-5.2272,-5.2642,-5.3073,-5.3635,-5.4565,-5.5225,-5.5883,-5.6701,-5.7335,-5.7695,-5.7881,-5.7881,-5.7881,-5.7881,-5.7881,-5.7881,-5.7881,-5.7881,-5.7966,-5.8135,-5.8592,-5.9015,-5.9471,-5.9894,-6.052,-6.1112,-6.1484,-6.1738,-6.2093,-6.233,-6.2381,-6.2398,-6.2398,-6.2398,-6.2398,-6.2398,-6.2398,-6.2398,-6.2398,-6.2398,-6.2398,-6.2398,-6.2398,-6.2398,-6.2398,-6.2398,-6.2398,-6.2398,-6.2398,-6.2398,-6.2398,-6.2398,-6.2398,-6.2398,-6.2398,-6.2398,-6.2398,-6.2398,-6.2398,-6.2398,-6.2398,-6.2398,-6.2398,-6.2398,-6.2398,-6.2398,-6.2398,-6.2398,-6.2398,-6.2398,-6.2398,-6.2398,-6.2398,-6.2398,-6.2398,-6.2398,-6.2398,-6.2398,-6.2398,-6.2398,-6.2398,-6.2398,-6.2398,-6.2364,-6.2347,-6.233,-6.2313,-6.189,-6.14,-6.1298,-6.0875,-6.0233,-5.9624,-5.9099,-4.8604,-4.8604,-4.8604,-4.8604,-4.8604,-4.8604,-4.8604,-4.8604,-4.8604,-4.8604,-4.8646,-4.8975,-4.9056,-4.9163,-4.9309,-4.9574,-4.9614,-5.0206,-5.0322,-5.04,-5.1124,-5.1806,-5.2219,-5.2605,-5.3158,-5.3871,-5.4634,-5.5394,-5.6068,-5.6917,-5.7509,-5.7746,-5.7881,-5.7881,-5.7881,-5.7881,-5.7881,-5.7881,-5.7881,-5.7898,-5.7915,-5.8186,-5.8524,-5.8964,-5.9252,-5.9742,-6.0469,-6.0842,-6.1298,-6.1687,-6.1941,-6.2296,-6.233,-6.2347,-6.2398,-6.2398,-6.2398,-6.2398,-6.2398,-6.2398,-6.2398,-6.2398,-6.2398,-6.2398,-6.2398,-6.2398,-6.2398,-6.2398,-6.2398,-6.2398,-6.2398,-6.2398,-6.2398,-6.2398,-6.2398,-6.2398,-6.2398,-6.2398,-6.2398,-6.2398,-6.2398,-6.2398,-6.2398,-6.2398,-6.2398,-6.2398,-6.2398,-6.2398,-6.2398,-6.2398,-6.2398,-6.2398,-6.2398,-6.2398,-6.2398,-6.2398,-6.2398,-6.2398,-6.2398,-6.2398,-6.2398,-6.2398,-6.2398,-6.2398,-6.2347,-6.2279,-6.1839,-6.1366,-6.0655,-6.0216,-6.0131,-5.9996,-5.9488,-5.8896,-5.8355,-4.8604,-4.8604,-4.8604,-4.8604,-4.8604,-4.8604,-4.8604,-4.8604,-4.8604,-4.8604,-4.8604,-4.8604,-4.8604,-4.8604,-4.8604,-4.8604,-4.8661,-4.9122,-4.9446,-4.955,-5.0283,-5.0859,-5.1364,-5.2043,-5.2614,-5.328,-5.4143,-5.5023,-5.5783,-5.6478,-5.7171,-5.7729,-5.7881,-5.7881,-5.7881,-5.7881,-5.7881,-5.7881,-5.7881,-5.7881,-5.7881,-5.7983,-5.8152,-5.8457,-5.871,-5.8964,-5.9641,-6.0199,-6.0672,-6.1011,-6.1501,-6.1975,-6.2042,-6.2229,-6.233,-6.2398,-6.2398,-6.2398,-6.2398,-6.2398,-6.2398,-6.2398,-6.2398,-6.2398,-6.2398,-6.2398,-6.2398,-6.2398,-6.2398,-6.2398,-6.2398,-6.2398,-6.2398,-6.2398,-6.2398,-6.2398,-6.2398,-6.2398,-6.2398,-6.2398,-6.2398,-6.2398,-6.2398,-6.2398,-6.2398,-6.2398,-6.2398,-6.2398,-6.2398,-6.2398,-6.2398,-6.2398,-6.2398,-6.2398,-6.2398,-6.2398,-6.2398,-6.2398,-6.2347,-6.2296,-6.2398,-6.2398,-6.2398,-6.2296,-6.1992,-6.1586,-6.0926,-6.0334,-5.9776,-5.9302,-5.8998,-5.8846,-5.8643,-5.8321,-5.7915,-4.8604,-4.8604,-4.8604,-4.8604,-4.8604,-4.8604,-4.8604,-4.8604,-4.8604,-4.8604,-4.8604,-4.8604,-4.8604,-4.8604,-4.8604,-4.8604,-4.8604,-4.8687,-4.8728,-4.8893,-4.955,-4.9908,-5.0554,-5.1443,-5.2108,-5.2787,-5.3686,-5.4786,-5.5664,-5.6664,-5.7357,-5.7729,-5.7865,-5.7881,-5.7881,-5.7881,-5.7881,-5.7881,-5.7881,-5.7881,-5.7881,-5.7881,-5.7949,-5.8101,-5.8135,-5.8406,-5.8879,-5.9252,-5.9624,-6.0114,-6.0791,-6.1112,-6.1467,-6.1941,-6.2178,-6.2347,-6.2296,-6.2398,-6.2398,-6.2398,-6.2398,-6.2398,-6.2398,-6.2398,-6.2398,-6.2398,-6.2398,-6.2398,-6.2398,-6.2398,-6.2398,-6.2398,-6.2398,-6.2398,-6.2398,-6.2398,-6.2398,-6.2398,-6.2398,-6.2398,-6.2398,-6.2398,-6.2398,-6.2398,-6.2398,-6.2398,-6.2398,-6.2398,-6.2398,-6.2398,-6.2398,-6.2398,-6.2398,-6.2398,-6.2398,-6.2347,-6.2398,-6.2398,-6.2161,-6.2076,-6.2229,-6.211,-6.1755,-6.1501,-6.1366,-6.0926,-6.0216,-5.9607,-5.9066,-5.8643,-5.8372,-5.8271,-5.8271,-5.8169,-5.7881,-4.8604,-4.8604,-4.8604,-4.8604,-4.8604,-4.8604,-4.8604,-4.8604,-4.8604,-4.8604,-4.8604,-4.8604,-4.8604,-4.8604,-4.8604,-4.8604,-4.8604,-4.8604,-4.8604,-4.8769,-4.8959,-4.9349,-5.0049,-5.0957,-5.1674,-5.2455,-5.3361,-5.4515,-5.575,-5.6799,-5.7509,-5.7848,-5.7881,-5.7881,-5.7881,-5.7881,-5.7881,-5.7881,-5.7881,-5.7881,-5.7881,-5.7881,-5.7881,-5.7881,-5.7881,-5.8118,-5.8271,-5.8744,-5.9099,-5.9387,-6.0047,-6.0419,-6.0503,-6.0689,-6.0892,-6.1637,-6.2009,-6.2398,-6.2398,-6.2398,-6.2381,-6.2381,-6.2398,-6.2398,-6.2398,-6.2398,-6.2398,-6.2398,-6.2398,-6.2398,-6.2398,-6.2398,-6.2398,-6.2398,-6.2398,-6.2398,-6.2398,-6.2398,-6.2398,-6.2398,-6.2398,-6.2398,-6.2398,-6.2398,-6.2398,-6.2398,-6.2381,-6.2364,-6.2364,-6.2347,-6.2398,-6.2398,-6.2212,-6.2144,-6.2245,-6.2245,-6.233,-6.2364,-6.1941,-6.1586,-6.1484,-6.1281,-6.0926,-6.0639,-6.0419,-5.9996,-5.9438,-5.8913,-5.8473,-5.8271,-5.8017,-5.7949,-5.7881,-5.7881,-5.7881,-4.8604,-4.8604,-4.8604,-4.8604,-4.8604,-4.8604,-4.8604,-4.8604,-4.8604,-4.8604,-4.8604,-4.8604,-4.8604,-4.8604,-4.8604,-4.8604,-4.8604,-4.8604,-4.8604,-4.8604,-4.8604,-4.8893,-4.959,-5.0522,-5.1275,-5.2068,-5.2987,-5.4126,-5.5445,-5.6681,-5.7492,-5.7881,-5.7881,-5.7881,-5.7881,-5.7881,-5.7881,-5.7881,-5.7881,-5.7881,-5.7881,-5.7881,-5.7881,-5.7881,-5.7881,-5.7881,-5.7915,-5.8457,-5.8541,-5.8676,-5.9268,-5.9641,-5.9776,-5.9945,-6.0199,-6.0875,-6.1078,-6.1552,-6.1772,-6.189,-6.2093,-6.2296,-6.2364,-6.2398,-6.2398,-6.2398,-6.2398,-6.2398,-6.2398,-6.2398,-6.2398,-6.2398,-6.2398,-6.2398,-6.2398,-6.2398,-6.2398,-6.2398,-6.2398,-6.2398,-6.2398,-6.2398,-6.2398,-6.2381,-6.2398,-6.2398,-6.2296,-6.2127,-6.2161,-6.2212,-6.2313,-6.2398,-6.2076,-6.1839,-6.1907,-6.1789,-6.1569,-6.1383,-6.1078,-6.0791,-6.0706,-6.0554,-6.0283,-5.986,-5.9421,-5.9066,-5.8778,-5.8389,-5.8,-5.7881,-5.7881,-5.7881,-5.7881,-5.7881,-5.7881,-4.8604,-4.8604,-4.8604,-4.8604,-4.8604,-4.8604,-4.8604,-4.8604,-4.8604,-4.8604,-4.8604,-4.8604,-4.8604,-4.8604,-4.8604,-4.8604,-4.8604,-4.8604,-4.8604,-4.8604,-4.8604,-4.8728,-4.9188,-5.0135,-5.0881,-5.1563,-5.2559,-5.3819,-5.4937,-5.6205,-5.7323,-5.7831,-5.7881,-5.7881,-5.7881,-5.7881,-5.7881,-5.7881,-5.7881,-5.7881,-5.7881,-5.7881,-5.7881,-5.7881,-5.7881,-5.7881,-5.7881,-5.7898,-5.7881,-5.8135,-5.844,-5.8896,-5.9116,-5.9556,-5.9877,-6.0114,-6.03,-6.0672,-6.1044,-6.118,-6.1501,-6.1839,-6.2245,-6.2178,-6.211,-6.233,-6.2381,-6.2398,-6.2398,-6.2398,-6.2398,-6.2398,-6.2398,-6.2398,-6.2398,-6.2398,-6.2398,-6.2398,-6.2398,-6.2398,-6.2398,-6.2347,-6.2026,-6.1975,-6.1704,-6.2026,-6.1907,-6.1637,-6.1637,-6.1704,-6.1772,-6.1907,-6.1569,-6.1163,-6.1095,-6.0926,-6.0503,-6.0266,-6.0131,-6.0047,-5.9996,-5.9844,-5.9658,-5.9184,-5.871,-5.849,-5.8203,-5.7966,-5.7881,-5.7881,-5.7881,-5.7881,-5.7881,-5.7881,-5.7881,-4.8604,-4.8604,-4.8604,-4.8604,-4.8604,-4.8604,-4.8604,-4.8604,-4.8604,-4.8604,-4.8604,-4.8604,-4.8604,-4.8604,-4.8604,-4.8604,-4.8604,-4.8604,-4.8604,-4.8604,-4.8604,-4.8604,-4.8769,-4.9734,-5.0496,-5.1266,-5.2244,-5.3628,-5.5088,-5.6258,-5.7137,-5.778,-5.7865,-5.7881,-5.7881,-5.7881,-5.7881,-5.7881,-5.7881,-5.7881,-5.7881,-5.7881,-5.7881,-5.7881,-5.7881,-5.7881,-5.7881,-5.7881,-5.7881,-5.7983,-5.8034,-5.8152,-5.8186,-5.8879,-5.9218,-5.9353,-5.9691,-6.003,-6.0266,-6.0419,-6.0622,-6.0875,-6.118,-6.145,-6.1721,-6.2127,-6.2347,-6.2364,-6.2398,-6.2398,-6.2398,-6.2398,-6.2398,-6.2398,-6.2398,-6.2398,-6.2398,-6.2364,-6.2364,-6.2347,-6.2347,-6.2042,-6.167,-6.1434,-6.118,-6.0943,-6.0689,-6.0503,-6.0537,-6.0571,-6.0503,-6.0588,-6.0605,-6.0368,-6.03,-6.008,-5.9691,-5.9556,-5.9488,-5.9404,-5.9302,-5.9049,-5.8795,-5.844,-5.8068,-5.8034,-5.8017,-5.7949,-5.7881,-5.7881,-5.7881,-5.7881,-5.7881,-5.7881,-5.7881,-4.8604,-4.8604,-4.8604,-4.8604,-4.8604,-4.8604,-4.8604,-4.8604,-4.8604,-4.8604,-4.8604,-4.8604,-4.8604,-4.8604,-4.8604,-4.8604,-4.8604,-4.8604,-4.8604,-4.8604,-4.8604,-4.8604,-4.8959,-4.9486,-5.0345,-5.1145,-5.2357,-5.3783,-5.5191,-5.5936,-5.663,-5.7374,-5.7611,-5.7848,-5.7865,-5.7881,-5.7881,-5.7881,-5.7881,-5.7881,-5.7881,-5.7881,-5.7881,-5.7881,-5.7881,-5.7881,-5.7881,-5.7881,-5.7881,-5.7881,-5.7915,-5.7932,-5.8,-5.8304,-5.849,-5.8592,-5.8846,-5.9268,-5.9505,-5.9641,-5.9742,-6.008,-6.0368,-6.0757,-6.0774,-6.1163,-6.1789,-6.189,-6.233,-6.2398,-6.2398,-6.2398,-6.2398,-6.2398,-6.2398,-6.2398,-6.2212,-6.2042,-6.1924,-6.1789,-6.1552,-6.1028,-6.0774,-6.0757,-6.0554,-6.052,-6.0148,-5.9759,-5.9708,-5.9607,-5.9471,-5.9421,-5.9539,-5.959,-5.9573,-5.9285,-5.8879,-5.8812,-5.8863,-5.8693,-5.8541,-5.822,-5.7898,-5.7915,-5.7932,-5.7915,-5.7898,-5.7881,-5.7881,-5.7881,-5.7881,-5.7881,-5.7881,-5.7881,-5.7881,-4.8563,-4.8604,-4.8604,-4.8604,-4.8604,-4.8604,-4.8604,-4.8604,-4.8604,-4.8604,-4.8604,-4.8604,-4.8604,-4.8604,-4.8604,-4.8604,-4.8604,-4.8604,-4.8604,-4.8604,-4.8604,-4.8604,-4.8918,-4.9486,-5.0438,-5.1533,-5.2746,-5.3683,-5.4718,-5.5344,-5.597,-5.6748,-5.7323,-5.7816,-5.7848,-5.7881,-5.7881,-5.7881,-5.7881,-5.7881,-5.7881,-5.7881,-5.7881,-5.7881,-5.7881,-5.7881,-5.7881,-5.7881,-5.7881,-5.7881,-5.7881,-5.7881,-5.7881,-5.8,-5.7983,-5.8101,-5.8135,-5.8473,-5.871,-5.8863,-5.9201,-5.9556,-5.9827,-5.9962,-5.9979,-6.0385,-6.0994,-6.1383,-6.1839,-6.2026,-6.2026,-6.2042,-6.2042,-6.2042,-6.2042,-6.2042,-6.1772,-6.1518,-6.1332,-6.1146,-6.0723,-6.0182,-5.9996,-5.9979,-5.9928,-5.9928,-5.9725,-5.9387,-5.9099,-5.8913,-5.8744,-5.8693,-5.8744,-5.8778,-5.8829,-5.8676,-5.8355,-5.8271,-5.8304,-5.8051,-5.7881,-5.7881,-5.7881,-5.7881,-5.7881,-5.7881,-5.7881,-5.7881,-5.7881,-5.7881,-5.7881,-5.7881,-5.7881,-5.7881,-5.7881,-4.8469,-4.8604,-4.8604,-4.8604,-4.8604,-4.8604,-4.8604,-4.8604,-4.8604,-4.8604,-4.8604,-4.8604,-4.8604,-4.8604,-4.8604,-4.8604,-4.8604,-4.8604,-4.8604,-4.8604,-4.8604,-4.8604,-4.8918,-4.967,-5.0783,-5.1842,-5.2919,-5.3821,-5.4346,-5.4735,-5.5497,-5.6681,-5.6833,-5.7323,-5.7865,-5.7881,-5.7881,-5.7881,-5.7881,-5.7881,-5.7881,-5.7881,-5.7881,-5.7881,-5.7881,-5.7881,-5.7881,-5.7881,-5.7881,-5.7881,-5.7881,-5.7881,-5.7881,-5.7881,-5.7881,-5.7881,-5.7881,-5.7983,-5.8237,-5.8271,-5.8609,-5.8609,-5.8879,-5.9218,-5.937,-5.9708,-6.0114,-6.0216,-6.0537,-6.0655,-6.0689,-6.0757,-6.0774,-6.0774,-6.0774,-6.0774,-6.0655,-6.0537,-6.0402,-6.03,-6.0131,-5.9624,-5.9218,-5.9133,-5.8964,-5.8896,-5.866,-5.8372,-5.8423,-5.8237,-5.8118,-5.8118,-5.8135,-5.8034,-5.8101,-5.8237,-5.8034,-5.7915,-5.7881,-5.7881,-5.7881,-5.7881,-5.7881,-5.7881,-5.7881,-5.7881,-5.7881,-5.7881,-5.7881,-5.7881,-5.7881,-5.7881,-5.7881,-5.7881,-5.7881]}]]